[[{"header":{"parameterUnit":"m.s-1","parameterCategory":1,"la1":31.0,"la2":29.5877,"lo1":-88.7671,"lo2":-86.6584,"dy":0.0162,"dx":0.0185,"nx":115,"ny":88,"refTime":"2024-05-21T12:00:00:Z","depth":0,"parameterNumber":2,"parameterNumberName":"U-component_of_WINDS"},"data":[0.0,0.0,0.0,0.0,0.0,0.0,0.0,0.0,0.0,0.0,0.0,0.0,0.0,0.0,0.0,0.0,0.0,0.0,0.0,0.0,0.0,0.0,0.0,0.0,0.0,0.0,0.0,0.0,0.0,0.0,0.0,0.0,0.0,0.0,0.0,0.0,0.0,0.0,0.0,0.0,0.0,0.0,0.0,0.0,0.0,0.0,0.0,0.0,0.0,0.0,0.0,0.0,0.0,0.0,0.0,0.0,0.0,0.0,0.0,0.0,0.0,0.0,0.0,0.0,0.0,0.0,0.0,0.0,0.0,0.0,0.0,0.0,0.0,0.0,0.0,0.0,0.0,0.0,0.0,0.0,0.0,0.0,0.0,0.0,0.0,0.0,0.0,0.0,0.0,0.0,0.0,0.0,0.0,0.0,0.0,0.0,0.0,0.0,0.0,0.0,0.0,0.0,0.0,0.0,0.0,0.0,0.0,0.0,0.0,0.0,0.0,0.0,0.0,0.0,0.0,0.0,0.0,0.0,0.0,0.0,0.0,0.0,0.0,0.0,0.0,0.0,0.0,0.0,0.0,0.0,0.0,0.0,0.0,0.0,0.0,0.0,0.0,0.0,0.0,0.0,0.0,0.0,0.0,0.0,0.0,0.0,0.0,0.0,0.0,0.0,0.0,0.0,0.0,0.0,0.0,0.0,0.0,0.0,0.0,0.0,0.0,0.0,0.0,0.0,0.0,0.0,0.0,0.0,0.0,0.0,0.0,0.0,0.0,0.0,0.0,0.0,0.0,0.0,0.0,0.0,0.0,0.0,0.0,0.0,0.0,0.0,0.0,0.0,0.0,0.0,0.0,0.0,0.0,0.0,0.0,0.0,0.0,0.0,0.0,0.0,0.0,0.0,0.0,0.0,0.0,0.0,0.0,0.0,0.0,0.0,0.0,0.0,0.0,0.0,0.0,0.0,0.0,0.0,0.0,0.0,0.0,0.0,0.0,0.0,0.0,0.0,0.0,0.0,0.0,0.0,0.0,0.0,0.0,0.0,0.0,0.0,0.0,0.0,0.0,0.0,0.0,0.0,0.0,0.0,0.0,0.0,0.0,0.0,0.0,0.0,0.0,0.0,0.0,0.0,0.0,0.0,0.0,0.0,0.0,0.0,0.0,0.0,0.0,0.0,0.0,0.0,0.0,0.0,0.0,0.0,0.0,0.0,0.0,0.0,0.0,0.0,0.0,0.0,0.0,0.0,0.0,0.0,0.0,0.0,0.0,0.0,0.0,0.0,0.0,0.0,0.0,0.0,0.0,0.0,0.0,0.0,0.0,0.0,0.0,0.0,0.0,0.0,0.0,0.0,0.0,0.0,0.0,0.0,0.0,0.0,0.0,0.0,0.0,0.0,0.0,0.0,0.0,0.0,0.0,0.0,0.0,0.0,0.0,0.0,0.0,0.0,0.0,0.0,0.0,0.0,0.0,0.0,0.0,0.0,0.0,0.0,0.0,0.0,0.0,0.0,0.0,0.0,0.0,0.0,0.0,0.0,0.0,0.0,0.0,0.0,0.0,0.0,0.0,0.0,0.0,0.0,0.0,0.0,0.0,0.0,0.0,0.0,0.0,0.0,0.0,0.0,0.0,0.0,0.0,0.0,0.0,0.0,0.0,0.0,0.0,0.0,0.0,0.0,0.0,0.0,0.0,0.0,0.0,0.0,0.0,0.0,0.0,0.0,0.0,0.0,0.0,0.0,0.0,0.0,0.0,0.0,0.0,0.0,0.0,0.0,0.0,0.0,0.0,0.0,0.0,0.0,0.0,0.0,0.0,0.0,0.0,0.0,0.0,0.0,0.0,0.0,0.0,0.0,0.0,0.0,0.0,0.0,0.0,0.0,0.0,0.0,0.0,0.0,0.0,0.0,0.0,0.0,0.0,0.0,0.0,0.0,0.0,0.0,0.0,0.0,0.0,0.0,0.0,0.0,0.0,0.0,0.0,0.0,0.0,0.0,0.0,0.0,0.0,0.0,0.0,0.0,0.0,0.0,0.0,0.0,0.0,0.0,0.0,0.0,0.0,0.0,0.0,0.0,0.0,0.0,0.0,0.0,0.0,0.0,0.0,0.0,0.0,0.0,0.0,0.0,0.0,0.0,0.0,0.0,0.0,0.0,0.0,0.0,0.0,0.0,0.0,0.0,0.0,0.0,0.0,0.0,0.0,0.0,0.0,0.0,0.0,0.0,0.0,0.0,0.0,0.0,0.0,0.0,0.0,0.0,0.0,0.0,0.0,0.0,0.0,0.0,0.0,0.0,0.0,0.0,0.0,0.0,0.0,0.0,0.0,0.0,0.0,0.0,0.0,0.0,0.0,0.0,0.0,0.0,0.0,0.0,0.0,0.0,0.0,0.0,0.0,0.0,0.0,0.0,0.0,0.0,0.0,0.0,0.0,0.0,0.0,0.0,0.0,0.0,0.0,0.0,0.0,0.0,0.0,0.0,0.0,0.0,0.0,0.0,0.0,0.0,0.0,0.0,0.0,0.0,0.0,0.0,0.0,0.0,0.0,0.0,0.0,0.0,0.0,0.0,0.0,0.0,0.0,0.0,0.0,0.0,0.0,0.0,0.0,0.0,0.0,0.0,0.0,0.0,0.0,0.0,0.0,0.0,0.0,0.0,0.0,0.0,0.0,0.0,0.0,0.0,0.0,0.0,0.0,0.0,0.0,0.0,0.0,0.0,0.0,0.0,0.0,0.0,0.0,0.0,0.0,0.0,0.0,0.0,0.0,0.0,0.0,0.0,0.0,0.0,0.0,0.0,0.0,0.0,0.0,0.0,0.0,0.0,0.0,0.0,0.0,0.0,0.0,0.0,0.0,0.0,0.0,0.0,0.0,0.0,0.0,0.0,0.0,0.0,0.0,0.0,0.0,0.0,0.0,0.0,0.0,0.0,0.0,0.0,0.0,0.0,0.0,0.0,0.0,0.0,0.0,0.0,0.0,0.0,0.0,0.0,0.0,0.0,0.0,0.0,0.0,0.0,0.0,0.0,0.0,0.0,0.0,0.0,0.0,0.0,0.0,0.0,0.0,0.0,0.0,0.0,0.0,0.0,0.0,0.0,0.0,0.0,0.0,0.0,0.0,0.0,0.0,0.0,0.0,0.0,0.0,0.0,0.0,0.0,0.0,0.0,0.0,0.0,0.0,0.0,0.0,0.0,0.0,0.0,0.0,0.0,0.0,0.0,0.0,0.0,0.0,0.0,0.0,0.0,0.0,0.0,0.0,0.0,0.0,0.0,0.0,0.0,0.0,0.0,0.0,0.0,0.0,0.0,0.0,0.0,0.0,0.0,0.0,0.0,0.0,0.0,0.0,0.0,0.0,0.0,0.0,0.0,0.0,0.0,0.0,0.0,0.0,0.0,0.0,0.0,0.0,0.0,0.0,0.0,0.0,0.0,0.0,0.0,0.0,0.0,0.0,0.0,0.0,0.0,0.0,0.0,0.0,0.0,0.0,0.0,0.0,0.0,0.0,0.0,0.0,0.0,0.0,0.0,0.0,0.0,0.0,0.0,0.0,0.0,0.0,0.0,0.0,0.0,0.0,0.0,0.0,0.0,0.0,0.0,0.0,0.0,0.0,0.0,0.0,0.0,0.0,0.0,0.0,0.0,0.0,0.0,0.0,0.0,0.0,0.0,0.0,0.0,0.0,0.0,0.0,0.0,0.0,0.0,0.0,0.0,0.0,0.0,0.0,0.0,0.0,0.0,0.0,0.0,0.0,0.0,0.0,0.0,0.0,0.0,0.0,0.0,0.0,0.0,0.0,0.0,0.0,0.0,0.0,0.0,0.0,0.0,0.0,0.0,0.0,0.0,0.0,0.0,0.0,0.0,0.0,0.0,0.0,0.0,0.0,0.0,0.0,0.0,0.0,0.0,0.0,0.0,0.0,0.0,0.0,0.0,0.0,0.0,0.0,0.0,0.0,0.0,0.0,0.0,0.0,0.0,0.0,0.0,0.0,0.0,0.0,0.0,0.0,0.0,0.0,0.0,0.0,0.0,0.0,0.0,0.0,0.0,0.0,0.0,0.0,0.0,0.0,0.0,0.0,0.0,0.0,0.0,0.0,0.0,0.0,0.0,0.0,0.0,0.0,0.0,0.0,0.0,0.0,0.0,0.0,0.0,0.0,0.0,0.0,0.0,0.0,0.0,0.0,0.0,0.0,0.0,0.0,0.0,0.0,0.0,0.0,0.0,0.0,0.0,0.0,0.0,0.0,0.0,0.0,0.0,0.0,0.0,-4.2506,0.0,0.0,0.0,0.0,0.0,0.0,0.0,0.0,0.0,0.0,0.0,0.0,0.0,0.0,0.0,0.0,0.0,0.0,0.0,0.0,0.0,0.0,0.0,0.0,0.0,0.0,0.0,0.0,0.0,0.0,0.0,0.0,0.0,0.0,0.0,0.0,0.0,0.0,0.0,0.0,0.0,0.0,0.0,0.0,0.0,0.0,0.0,0.0,0.0,0.0,0.0,0.0,0.0,0.0,0.0,0.0,0.0,0.0,0.0,0.0,0.0,0.0,0.0,0.0,0.0,0.0,0.0,0.0,0.0,0.0,0.0,0.0,0.0,0.0,0.0,0.0,0.0,0.0,0.0,0.0,0.0,0.0,0.0,0.0,0.0,0.0,0.0,0.0,0.0,0.0,0.0,0.0,0.0,0.0,0.0,0.0,0.0,0.0,0.0,0.0,0.0,0.0,0.0,0.0,0.0,0.0,0.0,0.0,0.0,0.0,-4.792,-4.7149,-4.7902,-4.6434,-4.247,0.0,0.0,0.0,0.0,0.0,0.0,0.0,0.0,0.0,0.0,0.0,0.0,0.0,0.0,0.0,0.0,0.0,0.0,0.0,0.0,0.0,0.0,0.0,0.0,0.0,0.0,0.0,0.0,0.0,0.0,0.0,0.0,0.0,0.0,0.0,0.0,0.0,0.0,0.0,0.0,0.0,0.0,0.0,0.0,0.0,0.0,0.0,0.0,0.0,0.0,0.0,0.0,0.0,0.0,0.0,0.0,0.0,0.0,0.0,0.0,0.0,0.0,0.0,0.0,0.0,0.0,0.0,0.0,0.0,0.0,0.0,0.0,0.0,0.0,0.0,0.0,0.0,0.0,0.0,0.0,0.0,0.0,0.0,0.0,0.0,0.0,0.0,0.0,0.0,0.0,0.0,0.0,0.0,0.0,0.0,0.0,0.0,0.0,0.0,0.0,0.0,0.0,0.0,0.0,0.0,0.0,0.0,0.0,0.0,0.0,0.0,0.0,-4.8343,-4.6874,-4.3277,0.0,0.0,0.0,0.0,0.0,0.0,0.0,0.0,0.0,0.0,0.0,0.0,0.0,0.0,0.0,0.0,0.0,0.0,0.0,0.0,0.0,0.0,0.0,0.0,0.0,0.0,0.0,0.0,0.0,0.0,0.0,0.0,0.0,0.0,0.0,0.0,0.0,0.0,0.0,0.0,0.0,0.0,0.0,0.0,0.0,0.0,0.0,0.0,0.0,0.0,0.0,0.0,0.0,0.0,0.0,0.0,0.0,0.0,0.0,0.0,0.0,0.0,0.0,0.0,0.0,0.0,0.0,0.0,0.0,0.0,0.0,0.0,0.0,0.0,0.0,0.0,0.0,0.0,0.0,0.0,0.0,0.0,0.0,0.0,0.0,0.0,0.0,0.0,0.0,0.0,0.0,0.0,0.0,0.0,0.0,0.0,0.0,0.0,0.0,0.0,0.0,0.0,0.0,0.0,0.0,0.0,0.0,0.0,0.0,0.0,-4.6764,-5.0325,-4.9738,0.0,-4.5736,0.0,0.0,0.0,0.0,0.0,0.0,0.0,0.0,0.0,0.0,0.0,0.0,0.0,0.0,0.0,0.0,0.0,0.0,0.0,0.0,0.0,0.0,0.0,0.0,0.0,0.0,0.0,0.0,0.0,0.0,0.0,0.0,0.0,0.0,0.0,0.0,0.0,0.0,0.0,0.0,0.0,0.0,0.0,0.0,0.0,0.0,0.0,0.0,0.0,0.0,0.0,0.0,0.0,0.0,0.0,0.0,0.0,0.0,0.0,0.0,0.0,0.0,0.0,0.0,0.0,0.0,0.0,0.0,0.0,0.0,0.0,0.0,0.0,0.0,0.0,0.0,0.0,0.0,0.0,0.0,0.0,0.0,0.0,0.0,0.0,0.0,0.0,0.0,0.0,0.0,0.0,0.0,0.0,0.0,0.0,0.0,0.0,0.0,0.0,0.0,0.0,0.0,0.0,0.0,0.0,0.0,0.0,0.0,0.0,0.0,-4.8086,-5.0729,-4.904,-4.7168,0.0,0.0,0.0,0.0,0.0,0.0,0.0,0.0,0.0,0.0,0.0,0.0,0.0,0.0,0.0,0.0,0.0,0.0,0.0,0.0,0.0,0.0,0.0,0.0,0.0,0.0,0.0,0.0,0.0,0.0,0.0,0.0,0.0,0.0,0.0,0.0,0.0,0.0,0.0,0.0,0.0,0.0,0.0,0.0,0.0,0.0,0.0,0.0,0.0,0.0,0.0,0.0,0.0,0.0,0.0,0.0,0.0,0.0,0.0,0.0,0.0,0.0,0.0,0.0,0.0,0.0,0.0,0.0,0.0,0.0,0.0,0.0,0.0,0.0,0.0,0.0,0.0,0.0,0.0,0.0,0.0,0.0,0.0,0.0,0.0,0.0,0.0,0.0,0.0,0.0,0.0,0.0,0.0,0.0,0.0,0.0,0.0,0.0,0.0,0.0,0.0,0.0,0.0,0.0,0.0,0.0,0.0,0.0,0.0,0.0,-4.7902,-4.9224,-5.0912,-4.8967,-4.6728,-4.4452,0.0,0.0,0.0,0.0,0.0,0.0,0.0,0.0,0.0,0.0,0.0,0.0,0.0,0.0,0.0,0.0,0.0,0.0,0.0,0.0,0.0,0.0,0.0,0.0,0.0,0.0,0.0,0.0,0.0,0.0,0.0,0.0,0.0,0.0,0.0,0.0,0.0,0.0,0.0,0.0,0.0,0.0,0.0,0.0,0.0,0.0,0.0,0.0,0.0,0.0,0.0,0.0,0.0,0.0,0.0,0.0,0.0,0.0,0.0,0.0,0.0,0.0,0.0,0.0,0.0,0.0,0.0,0.0,0.0,0.0,0.0,0.0,0.0,0.0,0.0,0.0,0.0,0.0,0.0,0.0,0.0,0.0,0.0,0.0,0.0,0.0,0.0,0.0,0.0,0.0,0.0,0.0,0.0,0.0,0.0,0.0,0.0,0.0,0.0,0.0,0.0,0.0,0.0,0.0,0.0,0.0,0.0,0.0,-5.2249,-4.9811,-4.9481,-5.1867,-5.0381,-4.7627,0.0,0.0,0.0,0.0,0.0,0.0,0.0,0.0,0.0,0.0,0.0,0.0,0.0,0.0,0.0,0.0,0.0,0.0,0.0,0.0,0.0,0.0,0.0,0.0,0.0,0.0,0.0,0.0,0.0,0.0,0.0,0.0,0.0,0.0,0.0,0.0,0.0,0.0,0.0,0.0,0.0,0.0,0.0,0.0,0.0,0.0,0.0,0.0,0.0,0.0,0.0,0.0,0.0,0.0,0.0,0.0,0.0,0.0,0.0,0.0,0.0,0.0,0.0,0.0,0.0,0.0,0.0,0.0,0.0,0.0,0.0,0.0,0.0,0.0,0.0,0.0,0.0,0.0,0.0,0.0,0.0,0.0,0.0,0.0,0.0,0.0,0.0,0.0,0.0,0.0,0.0,0.0,0.0,0.0,0.0,0.0,0.0,0.0,0.0,0.0,0.0,0.0,0.0,0.0,0.0,0.0,0.0,0.0,0.0,-4.6911,-4.8306,-5.0508,-5.3261,-4.9958,-4.7315,0.0,0.0,0.0,0.0,0.0,0.0,0.0,0.0,0.0,0.0,0.0,0.0,0.0,0.0,0.0,0.0,0.0,0.0,0.0,0.0,0.0,0.0,0.0,0.0,0.0,0.0,0.0,0.0,0.0,0.0,0.0,0.0,0.0,0.0,0.0,0.0,0.0,0.0,0.0,0.0,0.0,0.0,0.0,0.0,0.0,0.0,0.0,0.0,0.0,0.0,0.0,0.0,0.0,0.0,0.0,0.0,0.0,0.0,0.0,0.0,0.0,0.0,0.0,0.0,0.0,0.0,0.0,0.0,0.0,0.0,0.0,0.0,0.0,0.0,0.0,0.0,0.0,0.0,0.0,0.0,0.0,0.0,0.0,0.0,0.0,0.0,0.0,0.0,0.0,0.0,0.0,0.0,0.0,0.0,0.0,0.0,0.0,0.0,0.0,0.0,0.0,0.0,0.0,0.0,0.0,0.0,0.0,0.0,0.0,-4.5883,0.0,-5.216,0.0,-4.9664,-4.6526,0.0,0.0,0.0,0.0,0.0,0.0,0.0,0.0,0.0,0.0,0.0,0.0,0.0,0.0,0.0,0.0,0.0,0.0,0.0,0.0,0.0,0.0,0.0,0.0,0.0,0.0,0.0,0.0,0.0,0.0,0.0,0.0,0.0,0.0,0.0,0.0,0.0,0.0,0.0,0.0,0.0,0.0,0.0,0.0,0.0,0.0,0.0,0.0,0.0,0.0,0.0,0.0,0.0,0.0,0.0,0.0,0.0,0.0,0.0,0.0,0.0,0.0,0.0,0.0,0.0,0.0,0.0,0.0,0.0,0.0,0.0,0.0,0.0,0.0,0.0,0.0,0.0,0.0,0.0,0.0,0.0,0.0,0.0,0.0,0.0,0.0,0.0,0.0,0.0,0.0,0.0,0.0,0.0,0.0,0.0,0.0,0.0,0.0,0.0,0.0,0.0,0.0,0.0,0.0,0.0,0.0,0.0,0.0,-4.5112,-5.0472,-5.3665,-5.4237,-5.2087,-4.9591,-4.5333,0.0,0.0,0.0,0.0,0.0,0.0,0.0,0.0,0.0,0.0,0.0,0.0,0.0,0.0,0.0,0.0,0.0,0.0,0.0,0.0,0.0,0.0,0.0,0.0,0.0,0.0,0.0,0.0,0.0,0.0,0.0,0.0,0.0,0.0,0.0,0.0,0.0,0.0,0.0,0.0,0.0,0.0,0.0,0.0,0.0,0.0,0.0,0.0,0.0,0.0,0.0,0.0,0.0,0.0,0.0,0.0,0.0,0.0,0.0,0.0,0.0,0.0,0.0,0.0,0.0,0.0,0.0,0.0,0.0,0.0,0.0,0.0,0.0,0.0,0.0,0.0,0.0,0.0,0.0,0.0,0.0,0.0,0.0,0.0,0.0,0.0,0.0,0.0,0.0,0.0,0.0,0.0,0.0,0.0,0.0,0.0,0.0,0.0,0.0,0.0,0.0,0.0,0.0,0.0,0.0,0.0,0.0,0.0,0.0,-4.825,-5.1426,-5.3555,-5.4252,-4.937,-4.6214,0.0,0.0,0.0,0.0,0.0,0.0,0.0,0.0,0.0,0.0,0.0,0.0,0.0,0.0,0.0,0.0,0.0,0.0,0.0,0.0,0.0,0.0,0.0,0.0,0.0,0.0,0.0,0.0,0.0,0.0,0.0,0.0,0.0,0.0,0.0,0.0,0.0,0.0,0.0,0.0,0.0,0.0,0.0,0.0,0.0,0.0,0.0,0.0,0.0,0.0,0.0,0.0,0.0,0.0,0.0,0.0,0.0,0.0,0.0,0.0,0.0,0.0,0.0,0.0,0.0,0.0,0.0,0.0,0.0,0.0,0.0,0.0,0.0,0.0,0.0,0.0,0.0,0.0,0.0,0.0,0.0,0.0,0.0,0.0,0.0,0.0,0.0,0.0,0.0,0.0,0.0,0.0,0.0,0.0,0.0,0.0,0.0,0.0,0.0,0.0,0.0,0.0,0.0,0.0,0.0,0.0,0.0,0.0,0.0,-5.0362,-5.3151,-5.495,-5.5574,-5.0472,-4.7315,-4.6397,0.0,0.0,0.0,0.0,0.0,0.0,0.0,0.0,0.0,0.0,0.0,0.0,0.0,0.0,0.0,0.0,0.0,0.0,0.0,0.0,0.0,0.0,0.0,0.0,0.0,0.0,0.0,0.0,0.0,0.0,0.0,0.0,0.0,0.0,0.0,0.0,0.0,0.0,0.0,0.0,0.0,0.0,0.0,0.0,0.0,0.0,0.0,0.0,0.0,0.0,0.0,0.0,0.0,0.0,0.0,0.0,0.0,0.0,0.0,0.0,0.0,0.0,0.0,0.0,0.0,0.0,0.0,0.0,0.0,0.0,0.0,0.0,0.0,0.0,0.0,0.0,0.0,0.0,0.0,0.0,0.0,0.0,0.0,0.0,0.0,0.0,0.0,0.0,0.0,0.0,0.0,0.0,0.0,0.0,0.0,0.0,0.0,0.0,0.0,0.0,0.0,0.0,0.0,0.0,0.0,0.0,0.0,0.0,-5.5633,-5.807,-5.8253,-5.6037,-5.2601,-4.86,0.0,0.0,0.0,0.0,0.0,0.0,0.0,0.0,0.0,0.0,0.0,0.0,0.0,0.0,0.0,0.0,0.0,0.0,0.0,0.0,0.0,0.0,0.0,0.0,0.0,0.0,0.0,0.0,0.0,0.0,0.0,0.0,0.0,0.0,0.0,0.0,0.0,0.0,0.0,0.0,0.0,0.0,0.0,0.0,0.0,0.0,0.0,0.0,0.0,0.0,0.0,0.0,0.0,0.0,0.0,0.0,0.0,0.0,0.0,0.0,0.0,0.0,0.0,0.0,0.0,0.0,0.0,0.0,0.0,0.0,0.0,0.0,0.0,0.0,0.0,0.0,0.0,0.0,0.0,0.0,0.0,0.0,0.0,0.0,0.0,0.0,0.0,0.0,0.0,0.0,0.0,0.0,0.0,0.0,0.0,0.0,0.0,0.0,0.0,0.0,0.0,0.0,0.0,0.0,0.0,0.0,0.0,0.0,0.0,-5.6418,-5.9428,-6.0676,-5.9905,-5.4032,-4.9884,0.0,0.0,0.0,0.0,0.0,0.0,0.0,0.0,0.0,0.0,0.0,0.0,0.0,0.0,0.0,0.0,0.0,0.0,0.0,0.0,0.0,0.0,0.0,0.0,0.0,0.0,0.0,0.0,0.0,0.0,0.0,0.0,0.0,0.0,0.0,0.0,0.0,0.0,0.0,0.0,0.0,0.0,0.0,0.0,0.0,0.0,0.0,0.0,0.0,0.0,0.0,0.0,0.0,0.0,0.0,0.0,0.0,0.0,0.0,0.0,0.0,0.0,0.0,0.0,0.0,0.0,0.0,0.0,0.0,0.0,0.0,0.0,0.0,0.0,0.0,0.0,0.0,0.0,0.0,0.0,0.0,0.0,0.0,0.0,0.0,0.0,0.0,0.0,0.0,0.0,0.0,0.0,0.0,0.0,0.0,0.0,0.0,0.0,0.0,0.0,0.0,0.0,0.0,0.0,0.0,0.0,0.0,0.0,-5.4913,-5.8767,-6.097,-6.2254,-6.2622,-5.6932,-5.2454,0.0,0.0,0.0,0.0,0.0,0.0,0.0,0.0,0.0,0.0,0.0,0.0,0.0,0.0,0.0,0.0,0.0,0.0,0.0,0.0,0.0,0.0,0.0,0.0,0.0,0.0,0.0,0.0,0.0,0.0,0.0,0.0,0.0,0.0,0.0,0.0,0.0,0.0,0.0,0.0,0.0,0.0,0.0,0.0,0.0,0.0,0.0,0.0,0.0,0.0,0.0,0.0,0.0,0.0,0.0,0.0,0.0,0.0,0.0,0.0,0.0,0.0,0.0,0.0,0.0,0.0,0.0,0.0,0.0,0.0,0.0,0.0,0.0,0.0,0.0,0.0,0.0,0.0,0.0,0.0,0.0,0.0,0.0,0.0,0.0,0.0,0.0,0.0,0.0,0.0,0.0,0.0,0.0,0.0,0.0,0.0,0.0,0.0,0.0,0.0,0.0,0.0,0.0,0.0,0.0,0.0,0.0,0.0,-5.6638,-6.1227,-6.2291,-6.3209,-6.3906,-5.9979,-5.5207,0.0,0.0,0.0,0.0,0.0,0.0,0.0,0.0,0.0,0.0,0.0,0.0,0.0,0.0,0.0,0.0,0.0,0.0,0.0,0.0,0.0,0.0,0.0,0.0,0.0,0.0,0.0,0.0,0.0,0.0,0.0,0.0,0.0,0.0,0.0,0.0,0.0,0.0,0.0,0.0,0.0,0.0,0.0,0.0,0.0,0.0,0.0,0.0,0.0,0.0,0.0,0.0,0.0,0.0,0.0,0.0,0.0,0.0,0.0,0.0,0.0,0.0,0.0,0.0,0.0,0.0,0.0,0.0,0.0,0.0,0.0,0.0,0.0,0.0,0.0,0.0,0.0,0.0,0.0,0.0,0.0,0.0,0.0,0.0,0.0,0.0,0.0,0.0,0.0,0.0,0.0,0.0,0.0,0.0,0.0,0.0,0.0,0.0,0.0,0.0,0.0,0.0,0.0,0.0,0.0,0.0,0.0,0.0,-5.6124,-5.9648,-6.1741,-6.3209,-6.4053,-5.8877,-5.4363,0.0,0.0,0.0,0.0,0.0,0.0,0.0,0.0,0.0,0.0,0.0,0.0,0.0,0.0,0.0,0.0,0.0,0.0,0.0,0.0,0.0,0.0,0.0,0.0,0.0,0.0,0.0,0.0,0.0,0.0,0.0,0.0,0.0,0.0,0.0,0.0,0.0,0.0,0.0,0.0,0.0,0.0,0.0,0.0,0.0,0.0,0.0,0.0,-4.0601,0.0,0.0,0.0,0.0,0.0,0.0,0.0,0.0,0.0,0.0,0.0,0.0,0.0,0.0,0.0,0.0,0.0,0.0,0.0,0.0,0.0,0.0,0.0,0.0,0.0,0.0,0.0,0.0,0.0,0.0,0.0,0.0,0.0,0.0,0.0,0.0,0.0,0.0,0.0,0.0,0.0,0.0,0.0,0.0,0.0,0.0,0.0,0.0,0.0,0.0,0.0,0.0,0.0,0.0,0.0,0.0,0.0,0.0,0.0,-5.7116,-6.0236,-6.1961,-6.3025,-6.3282,-5.9098,-5.5207,0.0,0.0,0.0,0.0,0.0,0.0,0.0,0.0,0.0,0.0,0.0,0.0,0.0,0.0,0.0,0.0,0.0,0.0,0.0,0.0,0.0,0.0,0.0,0.0,0.0,0.0,0.0,0.0,0.0,0.0,0.0,0.0,0.0,0.0,0.0,0.0,0.0,0.0,0.0,0.0,0.0,0.0,0.0,0.0,0.0,0.0,0.0,0.0,0.0,0.0,0.0,0.0,0.0,0.0,0.0,0.0,0.0,0.0,0.0,0.0,0.0,0.0,0.0,0.0,0.0,0.0,0.0,0.0,0.0,0.0,0.0,0.0,0.0,0.0,0.0,0.0,0.0,0.0,0.0,0.0,0.0,0.0,0.0,0.0,0.0,0.0,0.0,0.0,0.0,0.0,0.0,0.0,0.0,0.0,0.0,0.0,0.0,0.0,0.0,0.0,0.0,0.0,0.0,0.0,0.0,0.0,0.0,-5.3644,-5.7923,-6.1263,-6.2328,-6.2743,-6.2585,-5.9612,-5.6381,-5.291,0.0,0.0,0.0,0.0,0.0,0.0,0.0,0.0,0.0,0.0,0.0,0.0,0.0,0.0,0.0,0.0,0.0,0.0,0.0,0.0,0.0,0.0,0.0,0.0,0.0,0.0,0.0,0.0,0.0,0.0,0.0,0.0,0.0,0.0,0.0,0.0,0.0,0.0,-3.4438,-3.8585,0.0,0.0,0.0,0.0,0.0,0.0,0.0,0.0,-4.1427,0.0,0.0,0.0,0.0,0.0,0.0,0.0,0.0,0.0,0.0,0.0,0.0,0.0,0.0,0.0,0.0,0.0,0.0,0.0,0.0,0.0,0.0,0.0,0.0,0.0,0.0,0.0,0.0,0.0,0.0,0.0,0.0,0.0,0.0,0.0,0.0,0.0,0.0,0.0,0.0,0.0,0.0,0.0,0.0,0.0,0.0,0.0,0.0,0.0,0.0,0.0,0.0,0.0,0.0,0.0,0.0,-5.0288,-5.2637,-5.6014,-6.0493,-6.2034,-6.2475,-6.1777,-5.9318,-5.5868,-5.1353,0.0,0.0,0.0,0.0,0.0,0.0,0.0,0.0,0.0,0.0,0.0,0.0,0.0,0.0,0.0,0.0,0.0,0.0,0.0,0.0,0.0,0.0,0.0,0.0,0.0,0.0,0.0,0.0,0.0,0.0,0.0,0.0,0.0,0.0,0.0,0.0,0.0,0.0,0.0,-4.214,-4.3834,0.0,0.0,0.0,0.0,0.0,0.0,0.0,0.0,-4.1518,0.0,0.0,0.0,0.0,0.0,0.0,0.0,0.0,0.0,0.0,0.0,0.0,0.0,0.0,0.0,0.0,0.0,0.0,0.0,0.0,0.0,0.0,0.0,0.0,0.0,0.0,0.0,0.0,0.0,0.0,0.0,0.0,0.0,0.0,0.0,0.0,0.0,0.0,0.0,0.0,0.0,0.0,0.0,0.0,0.0,0.0,0.0,0.0,0.0,0.0,0.0,0.0,0.0,0.0,0.0,-4.9407,-5.3592,-5.7226,-6.0309,-6.1557,-6.1777,-6.0933,-5.785,-5.4032,0.0,0.0,0.0,0.0,0.0,0.0,0.0,0.0,0.0,0.0,0.0,0.0,0.0,0.0,0.0,0.0,0.0,0.0,0.0,0.0,0.0,0.0,0.0,0.0,0.0,0.0,0.0,0.0,0.0,0.0,0.0,0.0,0.0,0.0,0.0,0.0,0.0,0.0,0.0,0.0,-4.3326,-4.4714,-4.5446,0.0,0.0,0.0,0.0,0.0,0.0,-4.2262,-4.1469,0.0,0.0,0.0,0.0,0.0,0.0,0.0,0.0,0.0,0.0,0.0,0.0,0.0,0.0,0.0,0.0,0.0,0.0,0.0,0.0,0.0,0.0,0.0,0.0,0.0,0.0,0.0,0.0,0.0,0.0,0.0,0.0,0.0,0.0,0.0,0.0,0.0,0.0,0.0,0.0,0.0,0.0,0.0,0.0,0.0,0.0,0.0,0.0,0.0,0.0,0.0,0.0,0.0,0.0,0.0,-4.8343,-5.4069,-5.807,-6.0089,-6.0933,-6.0896,-5.9905,-5.6638,-5.2674,0.0,0.0,0.0,0.0,0.0,0.0,0.0,0.0,0.0,0.0,0.0,0.0,0.0,0.0,0.0,0.0,0.0,0.0,0.0,0.0,0.0,0.0,0.0,0.0,0.0,0.0,0.0,0.0,0.0,0.0,0.0,0.0,0.0,0.0,0.0,0.0,0.0,0.0,0.0,0.0,0.0,-4.5669,-4.6244,-4.5466,0.0,0.0,0.0,0.0,-4.391,-4.3308,0.0,0.0,0.0,0.0,0.0,0.0,0.0,0.0,0.0,0.0,0.0,0.0,0.0,0.0,0.0,0.0,0.0,0.0,0.0,0.0,0.0,0.0,0.0,0.0,0.0,0.0,0.0,0.0,0.0,0.0,0.0,0.0,0.0,0.0,0.0,0.0,0.0,0.0,0.0,0.0,0.0,0.0,0.0,0.0,0.0,0.0,0.0,0.0,0.0,0.0,0.0,0.0,0.0,0.0,0.0,0.0,-4.8196,-5.1903,-5.5552,-5.9148,-6.0126,-5.9795,-5.8327,-5.7116,-5.3261,0.0,0.0,0.0,0.0,0.0,0.0,0.0,0.0,0.0,0.0,0.0,0.0,0.0,0.0,0.0,0.0,0.0,0.0,0.0,0.0,0.0,0.0,0.0,0.0,0.0,0.0,0.0,0.0,0.0,0.0,0.0,0.0,0.0,0.0,0.0,0.0,0.0,0.0,0.0,0.0,0.0,-4.7597,-4.519,-4.5263,-4.55,0.0,0.0,-4.5466,-4.6278,-4.7361,0.0,0.0,0.0,0.0,0.0,0.0,0.0,0.0,0.0,0.0,0.0,0.0,0.0,0.0,0.0,0.0,0.0,0.0,0.0,0.0,0.0,0.0,0.0,0.0,0.0,0.0,0.0,0.0,0.0,0.0,0.0,0.0,0.0,0.0,0.0,0.0,0.0,0.0,0.0,0.0,0.0,0.0,0.0,0.0,0.0,0.0,0.0,0.0,0.0,0.0,0.0,0.0,0.0,0.0,0.0,-4.3351,-4.7626,-5.2616,-5.6506,-5.9074,-5.9515,-5.9171,-5.8033,-5.5464,-5.1499,0.0,0.0,0.0,0.0,0.0,0.0,0.0,0.0,0.0,0.0,0.0,0.0,0.0,0.0,0.0,0.0,0.0,0.0,0.0,0.0,0.0,0.0,0.0,0.0,0.0,0.0,0.0,0.0,0.0,0.0,0.0,0.0,0.0,0.0,0.0,0.0,0.0,0.0,0.0,0.0,0.0,0.0,-4.7729,-4.7631,0.0,0.0,0.0,-4.7225,-4.7936,0.0,0.0,0.0,0.0,0.0,0.0,0.0,0.0,0.0,0.0,0.0,0.0,0.0,0.0,0.0,0.0,0.0,0.0,0.0,0.0,0.0,0.0,0.0,0.0,0.0,0.0,0.0,0.0,0.0,0.0,0.0,0.0,0.0,0.0,0.0,0.0,0.0,0.0,0.0,0.0,0.0,0.0,0.0,0.0,0.0,0.0,0.0,0.0,0.0,0.0,0.0,0.0,0.0,0.0,0.0,0.0,0.0,-4.7149,-5.3298,-5.7262,-5.8841,-5.8707,-5.8194,-5.7373,-5.4106,0.0,0.0,0.0,0.0,0.0,0.0,0.0,0.0,0.0,0.0,0.0,0.0,0.0,0.0,0.0,0.0,0.0,0.0,0.0,0.0,0.0,0.0,0.0,0.0,0.0,0.0,0.0,-2.7385,0.0,0.0,0.0,0.0,0.0,0.0,0.0,0.0,0.0,0.0,0.0,0.0,0.0,0.0,-4.7597,-4.9052,-4.9424,-4.9763,0.0,0.0,-4.8849,-4.9221,-4.9154,-4.8071,0.0,0.0,0.0,0.0,0.0,0.0,0.0,0.0,0.0,0.0,0.0,0.0,0.0,0.0,0.0,0.0,0.0,0.0,0.0,0.0,0.0,0.0,0.0,0.0,0.0,0.0,0.0,0.0,0.0,0.0,0.0,0.0,0.0,0.0,0.0,0.0,0.0,0.0,0.0,0.0,0.0,0.0,0.0,0.0,0.0,0.0,0.0,0.0,0.0,0.0,0.0,0.0,0.0,0.0,0.0,-4.7149,-5.2747,-5.6455,-5.796,-5.7336,-5.6602,-5.578,-5.4032,-5.0141,0.0,0.0,0.0,0.0,0.0,0.0,0.0,0.0,0.0,0.0,0.0,0.0,0.0,0.0,0.0,0.0,0.0,0.0,0.0,0.0,0.0,0.0,0.0,0.0,0.0,0.0,0.0,0.0,0.0,0.0,0.0,0.0,0.0,0.0,0.0,0.0,0.0,0.0,0.0,0.0,0.0,-4.7631,-4.709,-4.9323,-5.1082,0.0,0.0,-5.0777,-5.0101,-5.115,-5.0541,-4.6312,0.0,0.0,0.0,0.0,0.0,0.0,0.0,0.0,0.0,0.0,0.0,0.0,0.0,0.0,0.0,0.0,0.0,0.0,0.0,0.0,0.0,0.0,0.0,0.0,0.0,0.0,0.0,0.0,0.0,0.0,0.0,0.0,0.0,0.0,0.0,0.0,0.0,0.0,0.0,0.0,0.0,0.0,0.0,0.0,0.0,0.0,0.0,0.0,0.0,0.0,0.0,0.0,0.0,-4.291,-4.5645,-5.172,-5.539,-5.6455,-5.6235,-5.5684,-5.4876,-5.3775,-5.0398,0.0,0.0,0.0,0.0,0.0,0.0,0.0,0.0,0.0,0.0,0.0,0.0,0.0,0.0,0.0,0.0,0.0,0.0,0.0,0.0,0.0,0.0,0.0,0.0,0.0,0.0,0.0,0.0,-2.8455,-2.8349,-2.7858,0.0,0.0,0.0,0.0,0.0,0.0,0.0,0.0,0.0,0.0,-4.8815,-4.9424,-5.0879,0.0,0.0,-5.2198,-5.1792,-5.1488,-5.115,-4.9898,-4.6853,-4.5602,0.0,0.0,0.0,0.0,0.0,0.0,0.0,0.0,0.0,0.0,0.0,0.0,0.0,0.0,0.0,0.0,0.0,0.0,0.0,0.0,0.0,0.0,0.0,0.0,0.0,0.0,0.0,0.0,0.0,0.0,0.0,0.0,0.0,0.0,0.0,0.0,0.0,0.0,0.0,0.0,0.0,0.0,0.0,0.0,0.0,0.0,0.0,0.0,0.0,0.0,0.0,0.0,-4.2416,-4.5021,-5.1206,-5.4803,-5.5574,-5.5354,-5.4987,-5.4399,-5.3408,-5.0508,0.0,0.0,0.0,0.0,0.0,0.0,0.0,0.0,0.0,0.0,0.0,0.0,0.0,0.0,0.0,0.0,0.0,0.0,0.0,0.0,0.0,0.0,0.0,0.0,0.0,0.0,0.0,0.0,-2.8727,-2.8518,-2.8162,0.0,0.0,0.0,0.0,0.0,0.0,0.0,0.0,0.0,0.0,-4.9458,-5.071,-5.1691,-5.2503,-5.3078,-5.2469,-5.1961,-5.1995,-5.1116,-4.9661,-4.7462,0.0,0.0,0.0,0.0,0.0,0.0,0.0,0.0,0.0,0.0,0.0,0.0,0.0,0.0,0.0,0.0,0.0,0.0,0.0,0.0,0.0,0.0,0.0,0.0,0.0,0.0,0.0,0.0,0.0,0.0,0.0,0.0,0.0,0.0,0.0,0.0,0.0,0.0,0.0,0.0,0.0,0.0,0.0,0.0,0.0,0.0,0.0,0.0,0.0,0.0,0.0,0.0,0.0,-4.2673,-4.5883,-5.1463,-5.4766,-5.55,-5.4803,-5.4399,-5.4326,-5.2858,-5.0435,-4.7039,0.0,0.0,0.0,0.0,0.0,0.0,0.0,0.0,0.0,0.0,0.0,0.0,0.0,0.0,0.0,0.0,0.0,0.0,0.0,0.0,0.0,0.0,0.0,0.0,0.0,0.0,-2.8564,-2.8118,-2.8162,0.0,0.0,0.0,0.0,0.0,0.0,0.0,0.0,0.0,0.0,-4.7124,-4.9289,-5.0033,-5.1386,-5.2334,-5.2367,-5.1758,-5.1285,-5.1251,-5.1151,-5.0407,0.0,0.0,0.0,0.0,0.0,0.0,0.0,0.0,0.0,0.0,0.0,0.0,0.0,0.0,0.0,0.0,0.0,0.0,0.0,0.0,0.0,0.0,0.0,0.0,0.0,0.0,0.0,-4.3547,-4.2085,0.0,0.0,0.0,0.0,0.0,0.0,0.0,0.0,0.0,0.0,0.0,-4.9453,-5.0628,0.0,0.0,0.0,0.0,0.0,0.0,0.0,0.0,0.0,0.0,0.0,0.0,-4.2947,-4.5259,-5.0729,-5.3739,-5.3995,-5.3739,-5.3592,-5.3628,-5.3078,-5.0508,-4.5645,0.0,0.0,0.0,0.0,0.0,0.0,0.0,0.0,0.0,0.0,0.0,0.0,0.0,0.0,0.0,0.0,0.0,0.0,0.0,0.0,0.0,0.0,0.0,0.0,0.0,-3.0108,0.0,0.0,0.0,0.0,0.0,0.0,0.0,0.0,0.0,0.0,0.0,-4.3836,-4.5799,-4.8173,-4.9999,-5.0744,-5.1657,-5.2503,0.0,0.0,0.0,0.0,0.0,0.0,0.0,0.0,0.0,0.0,0.0,0.0,0.0,0.0,-4.4722,-4.1745,-4.0561,-4.0155,-4.0392,0.0,0.0,0.0,0.0,0.0,0.0,0.0,0.0,0.0,0.0,0.0,0.0,0.0,0.0,0.0,0.0,-4.4586,0.0,0.0,0.0,0.0,0.0,0.0,0.0,0.0,-5.2129,-5.372,-5.3516,-5.4761,-5.3837,0.0,-5.1091,-4.759,0.0,0.0,0.0,0.0,0.0,0.0,0.0,0.0,-4.4085,-4.6049,-5.0729,-5.3203,-5.3203,-5.3203,-5.3203,-5.3203,-5.2931,-5.0618,-4.6104,-4.313,-3.968,0.0,0.0,0.0,0.0,0.0,0.0,0.0,0.0,0.0,0.0,0.0,0.0,0.0,0.0,0.0,0.0,0.0,0.0,0.0,0.0,0.0,0.0,0.0,-3.0696,0.0,0.0,0.0,0.0,0.0,0.0,0.0,0.0,0.0,-4.0121,-4.3193,-4.5906,-4.7361,-4.9018,-5.0371,-5.1116,0.0,0.0,0.0,0.0,0.0,0.0,0.0,-5.0473,-4.9224,-4.9224,-4.9187,-4.8413,-4.8917,-4.9052,-4.8041,0.0,0.0,-4.5162,-4.4215,-4.3944,-4.4181,-4.4418,-4.4491,-4.4282,-4.4857,-4.5229,0.0,0.0,0.0,0.0,0.0,0.0,0.0,0.0,-5.3472,-5.2972,0.0,-5.024,0.0,0.0,0.0,0.0,0.0,0.0,0.0,0.0,-5.6996,-5.8415,-5.7572,-5.7248,-5.6445,-5.5212,-5.5137,-5.3236,-4.952,-4.4966,0.0,0.0,0.0,0.0,0.0,0.0,-4.5957,-4.8287,-5.1536,-5.3203,-5.3203,-5.3203,-5.3203,-5.3167,-5.2417,-5.0802,-4.8416,-4.5993,-4.2893,-3.8909,-3.5004,0.0,0.0,0.0,0.0,0.0,0.0,0.0,0.0,0.0,0.0,0.0,0.0,0.0,0.0,0.0,0.0,0.0,0.0,0.0,0.0,-3.1289,0.0,0.0,0.0,0.0,0.0,0.0,0.0,0.0,0.0,0.0,-4.2557,-4.5026,-4.7394,-4.8781,0.0,0.0,0.0,0.0,-5.1489,-5.2266,-5.1758,-5.1555,-5.2198,-5.23,-5.2029,-5.1252,0.0,0.0,-4.9458,-4.9627,-4.9593,-4.821,-4.8545,-4.8984,-4.8917,-4.7665,-4.7022,-4.7635,-4.7225,-4.7124,-4.7767,-4.8139,-4.868,-6.332,0.0,0.0,0.0,0.0,-5.8781,-5.9665,-6.1204,-5.9396,-5.8127,-5.7165,-5.428,0.0,0.0,0.0,0.0,0.0,0.0,-5.3626,-5.5066,-5.7047,-5.8144,-5.8449,-5.8972,-5.8375,-5.6871,-5.7133,-5.5828,-5.3046,-5.1022,-4.6801,-4.0561,0.0,0.0,0.0,0.0,-4.7352,-4.926,-5.1867,-5.3203,-5.3203,-5.3203,-5.3203,-5.3167,-5.1867,-5.0508,-4.9187,-4.7369,-4.4544,-4.0618,-3.8762,0.0,0.0,0.0,0.0,0.0,0.0,0.0,0.0,0.0,0.0,0.0,0.0,0.0,0.0,0.0,0.0,0.0,0.0,0.0,-3.2726,-3.2542,-3.2551,0.0,0.0,0.0,0.0,0.0,0.0,0.0,0.0,0.0,-4.5466,-4.7158,-4.8545,0.0,0.0,-5.098,-5.1151,-5.1657,-5.2266,-5.3044,0.0,0.0,0.0,-5.23,-5.2063,-5.1286,-5.1354,-5.1319,-5.0676,-5.0304,-4.9796,-4.8849,-4.8883,-4.9018,-4.8984,-4.868,-4.8443,-4.8612,-4.8511,-4.8443,-4.8646,-4.8883,-4.9018,-6.8359,-6.4666,-6.3012,-6.2627,-6.3051,-6.2897,-6.3858,-6.5513,-6.3935,-6.3012,-6.2358,-5.9704,-5.7088,-5.4636,-5.3087,0.0,0.0,0.0,-5.6934,-5.828,-5.9038,-5.9637,-6.0097,-6.0288,-5.9635,-5.8297,-5.8212,-5.7043,-5.484,-5.4069,-5.0729,-4.5131,0.0,0.0,-4.4562,-4.7186,-4.9224,-5.0565,-5.2307,-5.3203,-5.3203,-5.3203,-5.3078,-5.2711,-5.1793,-5.0729,-4.9591,-4.86,-4.6361,-4.271,-4.1148,-3.8322,0.0,0.0,0.0,0.0,0.0,0.0,0.0,0.0,0.0,0.0,0.0,-2.8998,-2.8558,0.0,0.0,0.0,-3.231,-3.3548,-3.4408,-3.5029,0.0,0.0,0.0,0.0,0.0,0.0,0.0,-4.3904,-4.5805,-4.7192,-4.7631,-4.8714,-4.9424,-4.9424,-5.0473,-5.1286,-5.1557,0.0,-5.2604,-5.3382,-5.3518,-5.3348,-5.2875,-5.2773,-5.2536,-5.1758,-5.1624,-5.1386,-5.0845,-5.0371,-4.9864,-4.9221,-4.9018,-4.9018,-4.9018,-4.9018,-4.9018,-4.9018,-4.9018,-4.9018,-4.9018,-4.9018,-4.9018,-7.1783,-7.0667,-6.6744,-6.5128,-6.5166,-6.5974,-6.6705,-6.7359,-6.7321,-6.7321,-6.7167,-6.5474,-6.332,-6.0858,-5.8561,0.0,0.0,-6.0281,-6.1396,-6.2216,-6.2166,-6.2178,-6.2062,-6.1243,-6.0414,-5.9458,-5.8703,-5.7473,-5.5779,-5.4926,-5.3377,-5.1096,-5.0215,-4.9738,-4.9721,-5.0472,-5.1279,-5.2087,-5.2821,-5.3203,-5.3203,-5.3151,-5.2747,-5.2013,-5.1793,-5.0986,-4.9574,-4.9353,-4.7865,-4.4819,-4.2453,-3.9407,-3.5591,0.0,0.0,0.0,0.0,0.0,0.0,0.0,0.0,0.0,0.0,0.0,0.0,0.0,0.0,0.0,-3.5407,0.0,-3.6594,-3.8128,0.0,0.0,0.0,-4.0722,-4.1542,-4.3504,-4.5326,-4.6718,0.0,0.0,0.0,0.0,-5.0067,-4.9999,-5.071,-5.1454,-5.2131,-5.2164,-5.2503,-5.3247,-5.3348,-5.3315,-5.3078,-5.3112,-5.2875,-5.2198,-5.2164,-5.1555,-5.0405,-4.9999,-4.9729,-4.912,-4.9018,-4.9018,-4.9018,-4.9018,-4.9018,-4.9018,-4.9018,-4.9018,-4.9018,-4.9018,-4.9018,-7.2668,-7.1745,-7.009,-6.9398,-6.9436,-6.9629,-6.9821,-6.9937,-6.936,-6.909,-6.8898,-6.659,-6.4512,-6.2666,-6.2089,-6.1935,-6.2115,-6.2512,-6.282,-6.3012,-6.3012,-6.2666,-6.2101,-6.1908,-6.1108,-5.9985,-5.9741,-5.874,-5.7083,-5.6246,-5.5061,-5.3576,-5.2711,-5.172,-5.0582,-5.1316,-5.2123,-5.2931,-5.3093,-5.3203,-5.3167,-5.2601,-5.2197,-5.1997,-5.0178,-4.9003,-4.86,-4.7425,-4.614,-4.4728,-4.2983,-4.1038,-3.8836,-3.5055,0.0,0.0,0.0,0.0,0.0,0.0,0.0,0.0,0.0,-3.4064,-3.158,0.0,-3.5936,0.0,-3.8159,-3.8884,-3.8362,-3.9534,0.0,0.0,-4.2286,-4.3369,-4.5229,-4.594,-4.6616,-4.753,-4.8443,-4.9018,-4.9018,-4.9627,-4.9864,-4.939,-5.0405,-5.1252,-5.1422,-5.1422,-5.1725,-5.2401,-5.2164,-5.1758,-5.1793,-5.1758,-5.1725,-5.1522,-5.1014,-5.0473,-5.0168,-4.9627,-4.9187,-4.9018,-4.9018,-4.9018,-4.9018,-4.9018,-4.9018,-4.9018,-4.9018,-4.9018,-4.9018,-4.9018,-4.9018,-7.2976,-7.2129,-7.1283,-7.0706,-7.0398,-7.0744,-7.0898,-7.086,-7.0437,-7.0052,-6.9552,-6.7398,-6.5705,-6.4512,-6.4474,-6.4474,-6.4474,-6.4474,-6.4474,-6.4436,-6.3666,-6.3051,-6.2589,-6.1858,-6.1045,-6.0118,-6.0103,-5.9099,-5.7285,-5.6779,-5.5753,-5.4149,-5.3686,-5.2957,-5.194,-5.2307,-5.2747,-5.3167,-5.3203,-5.3203,-5.3167,-5.2417,-5.1667,-5.0932,-4.9591,-4.8343,-4.7278,-4.6728,-4.5736,-4.4232,-4.2983,-4.1405,-3.9423,-3.6523,-3.4908,0.0,0.0,0.0,0.0,0.0,0.0,0.0,0.0,0.0,0.0,0.0,-3.8266,0.0,-4.1071,0.0,-4.1336,-4.3171,-4.4501,-4.468,-4.5399,-4.6278,-4.7225,-4.7564,-4.7936,-4.8342,-4.8748,-4.9018,-4.9018,-4.9357,-4.9458,-4.9052,-4.9695,-5.0338,-5.0676,-5.098,-5.1352,-5.1725,-5.1455,-5.1217,-5.1217,-5.1217,-5.1082,-5.0744,-5.0371,-4.9999,-4.9661,-4.9289,-4.9018,-4.9018,-4.9018,-4.9018,-4.9018,-4.9018,-4.9018,-4.9018,-4.9018,-4.9018,-4.9018,-4.9018,-4.9018,-7.2976,-7.2129,-7.1283,-7.0475,-6.9898,-7.0591,-7.0783,-7.0591,-7.0591,-7.0167,-6.9436,-6.7936,-6.6821,-6.6051,-6.5936,-6.5897,-6.5897,-6.5897,-6.5897,-6.5782,-6.4205,-6.3397,-6.3231,-6.1704,-6.0712,-6.0189,-6.0175,-5.9147,-5.717,-5.7057,-5.5994,-5.4092,-5.3924,-5.3701,-5.3277,-5.3293,-5.3251,-5.3203,-5.3203,-5.3203,-5.3167,-5.2307,-5.1169,-4.9831,-4.9353,-4.8142,-4.603,-4.6471,-4.5792,-4.3625,-4.2837,-4.1405,-3.9129,-3.7588,-3.667,0.0,-3.5826,0.0,0.0,0.0,0.0,0.0,0.0,0.0,0.0,-4.0047,-4.1148,-4.1902,-4.4173,-4.5342,-4.4703,-4.7226,-4.8368,-4.714,-4.8173,-4.8748,-4.8173,-4.8612,-4.9018,-4.9018,-4.9018,-4.9018,-4.9018,-4.9018,-4.9018,-4.9018,-4.9086,-4.9323,-4.9864,-5.0473,-5.0879,-5.1014,-5.0948,-5.0744,-5.0777,-5.0845,-5.0642,-5.0067,-4.9932,-4.9729,-4.9154,-4.9018,-4.9018,-4.9018,-4.9018,-4.9018,-4.9018,-4.9018,-4.9018,-4.9018,-4.9018,-4.9018,-4.9018,-4.9018,-4.9018,-7.3014,-7.2129,-7.1245,-7.0821,-7.0667,-7.0821,-7.0129,-6.8898,-6.8898,-6.8783,-6.8629,-6.8282,-6.7667,-6.6821,-6.6205,-6.5897,-6.5897,-6.5897,-6.5897,-6.5859,-6.482,-6.3974,-6.3281,-6.232,-6.145,-6.0697,-6.0697,-5.9907,-5.8424,-5.7791,-5.6747,-5.5333,-5.4693,-5.4135,-5.3702,0.0,0.0,0.0,-5.3203,-5.3203,-5.313,-5.1793,-5.0875,-5.0508,-4.7976,0.0,-4.592,-4.5406,-4.4635,-4.3571,-4.3351,0.0,0.0,0.0,0.0,0.0,0.0,0.0,0.0,0.0,0.0,0.0,-4.1111,-4.0561,-3.9863,-4.3387,-4.5535,-4.515,-4.7368,-4.838,-4.7093,-4.8102,-4.8574,-4.7823,-4.8477,-4.8951,-4.8815,-4.8917,-4.9018,-4.9018,-4.9018,-4.9018,-4.9018,-4.9018,-4.9018,-4.9018,-4.9018,-4.9052,-4.9187,-4.939,-4.9661,-5.0135,-4.9898,-4.9492,-4.9424,-4.9492,-4.9526,-4.9221,-4.9221,-4.9154,-4.9052,-4.9018,-4.9018,-4.9018,-4.9018,-4.9018,-4.9018,-4.9018,-4.9018,-4.9018,-4.9018,-4.9018,-4.9018,-4.9018,-4.9018,-7.3014,0.0,-7.1283,-7.0667,0.0,-7.0321,-6.959,-6.8462,-6.9283,-6.9398,-6.9013,-6.859,-6.7936,-6.7026,-6.582,-6.5243,-6.5243,-6.482,-6.4859,-6.5205,-6.3935,-6.3358,-6.3281,-6.2012,-6.1243,-6.0819,-6.0781,-6.0006,-5.8566,-5.8157,-5.7057,-5.5382,-5.5017,-5.4579,-5.4153,-5.3905,-5.3604,-5.3188,-5.3203,-5.3203,-5.3167,-5.2013,-5.1022,-5.0178,0.0,0.0,0.0,0.0,0.0,0.0,0.0,0.0,0.0,0.0,0.0,-4.054,-4.1222,-4.1479,-4.1148,-4.2176,-4.302,-4.3461,-4.4232,-4.4158,-4.2947,-4.5847,-4.7567,-4.7312,-4.944,-5.0177,-4.8502,-4.9293,-4.9556,-4.8625,-4.8781,-4.9018,-4.9018,-4.9018,-4.9018,-4.9018,-4.9018,-4.9018,-4.9018,-4.9018,-4.9018,-4.9018,-4.9018,-4.9018,-4.9018,-4.9018,-4.9187,-4.9492,-4.9289,-4.9018,-4.9018,-4.9018,-4.9018,-4.9018,-4.9018,-4.9018,-4.9018,-4.9018,-4.9018,-4.9018,-4.9018,-4.9018,-4.9018,-4.9018,-4.9018,-4.9018,-4.9018,-4.9018,-4.9018,-4.9018,-4.9018,-7.2899,-7.1898,-7.1206,-7.0514,-6.9898,-6.9898,-6.9513,-6.8936,0.0,0.0,0.0,-6.8706,-6.7936,-6.6974,-6.5513,-6.482,-6.4782,-6.4089,-6.4089,-6.4512,-6.3012,-6.2589,-6.3012,-6.1512,-6.0781,-6.0781,-6.0781,-5.9935,-5.8346,-5.8269,-5.727,-5.5377,-5.5199,-5.496,-5.4484,-5.3941,-5.3526,-5.3209,-5.3203,-5.3203,-5.3167,-5.2417,-5.13,-4.9867,-4.9537,-4.8343,-4.6214,-4.6104,-4.5443,-4.4029,-4.3424,-4.2727,-4.1829,-4.2506,-4.3167,-4.3681,-4.4488,-4.4929,-4.4929,-4.5663,-4.5883,-4.5351,-4.6562,-4.6966,-4.6177,-4.7719,-4.8826,-4.8952,-5.0873,-5.1266,-4.9474,-5.0223,-5.0397,-4.9138,-4.9018,-4.9018,-4.9018,-4.9018,-4.9018,-4.9018,-4.9018,-4.9018,-4.9018,-4.9018,-4.9018,-4.9018,-4.9018,-4.9018,-4.9018,-4.9018,-4.9018,-4.9052,-4.9052,-4.9018,-4.9018,-4.9018,-4.9018,-4.9018,-4.9018,-4.9018,-4.9018,-4.9018,-4.9018,-4.9018,-4.9018,-4.9018,-4.9018,-4.9018,-4.9018,-4.9018,-4.9018,-4.9018,-4.9018,-4.9018,-4.9018,-7.2552,-7.1091,-7.0937,-7.086,-7.0744,-7.0744,-7.0667,-7.0514,-7.0052,-6.9398,-6.8577,-6.8462,-6.7936,-6.7051,-6.6128,-6.5705,-6.5705,-6.559,-6.5205,0.0,-6.3589,-6.282,-6.2216,-6.1243,-6.0781,-6.0781,-6.0781,-5.9935,-5.8434,-5.828,-5.7373,-5.5802,-5.561,-5.5224,-5.4484,-5.3682,-5.3251,-5.3188,-5.3203,-5.3203,-5.3167,-5.2417,-5.1573,-5.0618,-4.926,-4.8012,-4.6966,-4.6929,-4.6526,-4.5626,-4.6085,-4.5755,-4.4324,-4.4929,-4.5149,-4.4635,-4.5296,-4.5736,-4.5773,-4.6507,-4.7186,-4.7755,-4.7993,-4.7773,-4.7076,-4.9114,-5.0468,-5.0533,-5.1471,-5.1742,-5.0892,-5.043,-4.9919,-4.9138,-4.9018,-4.9018,-4.9018,-4.9018,-4.9018,-4.9018,-4.9018,-4.9018,-4.9018,-4.9018,-4.9018,-4.9018,-4.9018,-4.9018,-4.9018,-4.9018,-4.9018,-4.9018,-4.9018,-4.9018,-4.9018,-4.9018,-4.9018,-4.9018,-4.9018,-4.9018,-4.9018,-4.9018,-4.9018,-4.9018,-4.9018,-4.9018,-4.9018,-4.9018,-4.9018,-4.9018,-4.8984,-4.8951,-4.8917,-4.8917,-4.8917,-7.2476,-7.0975,-7.0898,-7.0898,-7.0898,-7.0898,-7.0898,-7.086,-7.0514,-6.986,-6.909,-6.8615,-6.7898,-6.7013,-6.5743,-6.5205,-6.5166,-6.4243,-6.3858,-6.3782,-6.2551,-6.2012,-6.2024,-6.1204,-6.0781,-6.0781,-6.0319,-5.9473,-5.8357,-5.7819,-5.6934,-5.5769,-5.5508,-5.4947,-5.4153,-5.3702,-5.344,-5.3225,-5.3203,-5.3203,-5.3203,-5.2858,-5.205,-5.0839,-5.0031,-4.904,-4.781,-4.7333,-4.6929,-4.6562,-4.6471,-4.6104,-4.5443,-4.6122,-4.6379,-4.6049,-4.6764,-4.7205,-4.7205,-4.7535,-4.7902,-4.8269,-4.8746,-4.8857,-4.8489,-4.9884,-5.0986,-5.1426,-5.2236,-5.2242,-5.1215,-5.0796,-5.0174,-4.9107,-4.9018,-4.9018,-4.9018,-4.9018,-4.9018,-4.9018,-4.9018,-4.9018,-4.9018,-4.9018,-4.9018,-4.9018,-4.9018,-4.9018,-4.9018,-4.9018,-4.9018,-4.9018,-4.9018,-4.9018,-4.9018,-4.9018,-4.9018,-4.9018,-4.9018,-4.9018,-4.9018,-4.9018,-4.9018,-4.9018,-4.9018,-4.9018,-4.9018,-4.9018,-4.9018,-4.8984,-4.8646,-4.8477,-4.8379,-4.8105,-4.797,-7.2476,-7.0898,-7.0898,-7.0898,-7.0898,-7.0898,-7.0898,-7.0898,-7.0898,-7.0321,-6.9398,-6.8706,-6.7821,-6.6744,-6.5436,-6.4897,-6.4705,-6.332,-6.2897,-6.3128,-6.1781,-6.137,-6.1704,-6.1089,-6.0781,-6.0666,-5.9935,-5.9088,-5.828,-5.7434,-5.656,-5.5748,-5.5212,-5.464,-5.3959,-5.3758,-5.3524,-5.3209,-5.3203,-5.3203,-5.3203,-5.3203,-5.2454,-5.0949,-5.0802,-5.0031,-4.8416,-4.77,-4.7369,-4.7333,-4.6801,-4.6434,-4.6471,-4.7003,-4.7369,-4.7406,-4.7957,-4.8306,-4.8306,-4.8306,-4.8379,-4.8563,-4.9206,-4.9757,-5.0161,-5.0692,-5.1316,-5.1977,-5.2526,-5.2417,-5.1317,-5.0903,-5.0369,-4.9199,-4.9018,-4.9018,-4.9018,-4.9018,-4.9018,-4.9018,-4.9018,-4.9018,-4.9018,-4.9018,-4.9018,-4.9018,-4.9018,-4.9018,-4.9018,-4.9018,-4.9018,-4.9018,-4.9018,-4.9018,-4.9018,-4.9018,-4.9018,-4.9018,-4.9018,-4.9018,-4.9018,-4.9018,-4.9018,-4.9018,-4.9018,-4.9018,-4.9018,-4.9018,-4.8917,-4.8748,-4.8308,-4.7872,-4.7665,-4.7293,-4.6989,-7.2476,-7.1014,-7.0898,-7.0898,-7.0898,-7.0898,-7.0898,-7.0898,-7.0898,-6.9975,-6.859,-6.8423,-6.7513,-6.6128,-6.582,-6.5743,-6.5667,-6.4782,-6.3935,-6.3243,-6.2397,-6.1601,-6.0973,-6.0819,-6.0781,-6.0704,-5.9896,-5.905,-5.828,-5.7396,-5.6522,-5.5714,-5.4919,-5.4516,-5.4338,-5.3643,-5.323,-5.3203,-5.3203,-5.3203,-5.3203,-5.3203,-5.2433,-5.0875,-5.0802,-5.0031,-4.836,-4.8233,-4.8196,-4.8196,-4.8086,-4.8086,-4.8049,-4.8159,-4.8196,-4.8196,-4.8269,-4.8306,-4.8306,-4.8306,-4.8636,-4.9297,-4.9574,-5.0271,-5.1557,-5.183,-5.1903,-5.2098,-5.2162,-5.1958,-5.1164,-5.0554,-4.9919,-4.9226,-4.9015,-4.9018,-4.9018,-4.9018,-4.9018,-4.9018,-4.9018,-4.9018,-4.9018,-4.9018,-4.9018,-4.9018,-4.9018,-4.9018,-4.9018,-4.9018,-4.9018,-4.9018,-4.9018,-4.9018,-4.9018,-4.9018,-4.9018,-4.9018,-4.9018,-4.9018,-4.9018,-4.9018,-4.9018,-4.9018,-4.9018,-4.9018,-4.8917,-4.8984,-4.8714,-4.8139,-4.7804,-4.7631,-4.709,-4.6718,-4.6684,-7.2476,-7.0937,-7.0898,-7.0898,-7.0898,-7.0898,-7.0898,-7.0898,-7.0898,-6.9975,-6.8513,-6.8398,-6.7475,-6.5897,-6.5897,-6.5897,-6.5782,-6.4474,-6.3666,-6.3205,-6.1935,-6.1139,-6.0819,-6.0781,-6.0781,-6.0666,-5.9435,-5.8627,-5.8127,-5.6896,-5.5934,-5.5338,-5.476,-5.4355,-5.4066,-5.3484,-5.3203,-5.3203,-5.3203,-5.3203,-5.3203,-5.3203,-5.2454,-5.1022,-5.0802,-5.0031,-4.8526,-4.8306,-4.8306,-4.8306,-4.8306,-4.8306,-4.8306,-4.8306,-4.8306,-4.8306,-4.8306,-4.8306,-4.8306,-4.8783,-4.9206,-4.9574,-5.0492,-5.1336,-5.1924,-5.2417,-5.2711,-5.2705,-5.2696,-5.2463,-5.1741,-5.106,-5.0362,-4.9693,-4.9256,-4.9018,-4.9018,-4.9018,-4.9018,-4.9018,-4.9018,-4.9018,-4.9018,-4.9018,-4.9018,-4.9018,-4.9018,-4.9018,-4.9018,-4.9018,-4.9018,-4.9018,-4.9018,-4.9018,-4.9018,-4.9018,-4.9018,-4.9018,-4.9018,-4.9018,-4.9018,-4.9018,-4.9018,-4.9018,-4.8951,-4.8748,-4.8376,-4.8342,-4.8139,-4.7496,-4.6786,-4.638,-4.5664,-4.5529,-4.5495,-7.2283,-7.1014,-7.0898,-7.0898,-7.0898,-7.0898,-7.0898,-7.0898,-7.0898,-6.9975,-6.8475,-6.8398,-6.7475,-6.6051,-6.5897,-6.5897,-6.5667,-6.4089,-6.3308,-6.3089,-6.1589,-6.0781,-6.0781,-6.0781,-6.0781,-6.0512,-5.9088,-5.805,-5.755,-5.6395,-5.5554,-5.5224,-5.4745,-5.4322,-5.3959,-5.3521,-5.3203,-5.3203,-5.3203,-5.3203,-5.3203,-5.3203,-5.2527,-5.1279,-5.0912,-5.0105,-4.8746,-4.8416,-4.8306,-4.8306,-4.8306,-4.8306,-4.8306,-4.8306,-4.8306,-4.8306,-4.8306,-4.8416,-4.8636,-4.9243,-4.9794,-5.0308,-5.141,-5.2087,-5.238,-5.2894,-5.3167,-5.3167,-5.3203,-5.2857,-5.2159,-5.1494,-5.0796,-5.009,-4.9402,-4.9018,-4.9018,-4.9018,-4.9018,-4.9018,-4.9018,-4.9018,-4.9018,-4.9018,-4.9018,-4.9018,-4.9018,-4.9018,-4.9018,-4.9018,-4.9018,-4.9018,-4.9018,-4.9018,-4.9018,-4.9018,-4.9018,-4.9018,-4.9018,-4.9018,-4.9018,-4.9018,-4.9018,-4.8984,-4.8883,-4.8578,-4.8139,-4.7902,-4.7361,-4.665,-4.594,-4.5365,-4.4919,-4.4682,-4.4649,-7.1745,-7.0937,-7.0898,-7.0898,-7.0898,-7.0898,-7.0898,-7.0898,-7.0898,-6.9975,-6.8513,-6.8398,-6.7475,-6.5936,-6.5897,-6.5897,-6.5667,-6.4089,-6.3308,-6.3128,-6.155,-6.0781,-6.0781,-6.0781,-6.0781,-6.0666,-5.9127,-5.7473,-5.6011,-5.578,-5.5703,-5.561,-5.489,-5.4484,-5.4322,-5.3641,-5.3188,-5.3188,-5.3203,-5.3203,-5.3203,-5.3203,-5.2821,-5.1977,-5.1206,-5.0398,-4.9537,-4.871,-4.8306,-4.8306,-4.8306,-4.8306,-4.8306,-4.8306,-4.8306,-4.8306,-4.8343,-4.8673,-4.9353,-4.9647,-5.0271,-5.1536,-5.194,-5.2344,-5.2947,-5.313,-5.3167,-5.3203,-5.3203,-5.2893,-5.2266,-5.1618,-5.0903,-5.0139,-4.9432,-4.9107,-4.9018,-4.9018,-4.9018,-4.9018,-4.9018,-4.9018,-4.9018,-4.9018,-4.9018,-4.9018,-4.9018,-4.9018,-4.9018,-4.9018,-4.9018,-4.9018,-4.9018,-4.9018,-4.9018,-4.9018,-4.9018,-4.9018,-4.9018,-4.8984,-4.9018,-4.9018,-4.8984,-4.8815,-4.8308,-4.797,-4.78,-4.7327,-4.6549,-4.5872,-4.5292,-4.475,-4.4649,-4.4615,-4.4581,-7.1706,-7.0898,-7.0898,-7.0898,-7.0898,-7.0898,-7.0898,-7.0898,-7.0898,-6.9975,-6.859,-6.8398,-6.7475,-6.5897,-6.5897,-6.5897,-6.5705,-6.4089,-6.3308,-6.3128,-6.1589,-6.0781,-6.0781,-6.0781,-6.0781,-6.055,-5.9088,-5.7396,-5.5857,-5.5703,-5.5703,-5.561,-5.516,-5.476,-5.4436,-5.3906,-5.3464,-5.3209,-5.3203,-5.3203,-5.3203,-5.3203,-5.3041,-5.2747,-5.1499,-5.0398,-4.961,-4.8746,-4.8306,-4.8306,-4.8306,-4.8306,-4.8306,-4.8306,-4.8306,-4.8379,-4.882,-4.928,-4.9684,-5.0565,-5.1353,-5.194,-5.2491,-5.2858,-5.3151,-5.3203,-5.3203,-5.3203,-5.3203,-5.3039,-5.2769,-5.2136,-5.1469,-5.077,-5.0061,-4.9462,-4.9107,-4.9018,-4.9018,-4.9018,-4.9018,-4.9018,-4.9018,-4.9018,-4.9018,-4.9018,-4.9018,-4.9018,-4.9018,-4.9018,-4.9018,-4.8984,-4.9018,-4.9018,-4.9018,-4.9018,-4.9018,-4.9018,-4.9018,-4.8951,-4.8917,-4.8443,-4.8274,-4.8139,-4.7665,-4.7022,-4.6786,-4.6143,-4.5466,-4.5258,-4.4682,-4.4649,-4.4615,-4.4581,-4.4581,-7.1437,-7.0937,-7.0898,-7.0898,-7.0898,-7.0898,-7.0898,-7.086,-7.0629,-6.9706,-6.8552,-6.8129,-6.7205,-6.6051,-6.5897,-6.5897,-6.5705,-6.4089,-6.3308,-6.3128,-6.155,-6.0781,-6.0781,-6.0781,-6.0781,-6.055,-5.9088,-5.7434,-5.5895,-5.5703,-5.5703,-5.5654,-5.5313,-5.496,-5.464,-5.4118,-5.3625,-5.3404,-5.3272,-5.3203,-5.3203,-5.3203,-5.3203,-5.2983,-5.1903,-5.0949,-5.0345,-4.9297,-4.8746,-4.8673,-4.8453,-4.8306,-4.8306,-4.8306,-4.8416,-4.8746,-4.928,-4.9867,-5.0418,-5.141,-5.2087,-5.238,-5.2858,-5.3203,-5.3203,-5.3203,-5.3203,-5.3203,-5.3203,-5.3203,-5.3103,-5.2747,-5.2196,-5.1494,-5.0796,-5.009,-4.9466,-4.9346,-4.9226,-4.9046,-4.9018,-4.9018,-4.9018,-4.9018,-4.9018,-4.9018,-4.9018,-4.9018,-4.9018,-4.9018,-4.8883,-4.8714,-4.8612,-4.8443,-4.8206,-4.8003,-4.8308,-4.8376,-4.8206,-4.8342,-4.8342,-4.7868,-4.7534,-4.7428,-4.6955,-4.621,-4.5568,-4.4987,-4.4716,-4.4615,-4.4615,-4.4615,-4.4581,-4.4581,-4.4547,-7.0937,-7.0898,-7.0898,-7.0898,-7.0898,-7.0898,-7.0898,-7.0706,-7.009,-6.9244,-6.8205,-6.7513,-6.6744,-6.6013,-6.5897,-6.5897,-6.559,-6.4089,-6.3308,-6.3128,-6.1589,-6.0781,-6.0781,-6.0781,-6.0627,-6.0473,-5.905,-5.7396,-5.5791,-5.5703,-5.5703,-5.5621,-5.5363,-5.5134,-5.5094,-5.4284,-5.3851,-5.3683,-5.34,-5.3225,-5.3203,-5.3203,-5.3203,-5.313,-5.2417,-5.1977,-5.1903,-5.0381,-4.95,-4.9427,-4.8746,-4.8343,-4.8306,-4.8306,-4.8636,-4.9353,-4.961,-5.0418,-5.1667,-5.1977,-5.2454,-5.2931,-5.3188,-5.3203,-5.3203,-5.3203,-5.3203,-5.3203,-5.3203,-5.3203,-5.3203,-5.3124,-5.2791,-5.2159,-5.1444,-5.0796,-5.023,-4.9976,-4.9751,-4.9226,-4.9046,-4.9018,-4.9018,-4.9018,-4.9018,-4.9018,-4.9018,-4.8951,-4.8849,-4.8815,-4.8612,-4.8075,-4.7902,-4.7767,-4.7259,-4.6853,-4.7259,-4.7564,-4.7293,-4.7225,-4.7293,-4.7022,-4.6853,-4.6684,-4.6177,-4.5466,-4.5162,-4.4682,-4.4682,-4.4581,-4.4581,-4.4581,-4.4581,-4.4581,-4.4479,-7.0898,-7.0898,-7.0898,-7.0898,-7.0898,-7.0898,-7.0629,-7.009,-6.9783,-6.8898,-6.7628,-6.7205,-6.6628,-6.6013,-6.5897,-6.5897,-6.5743,-6.4166,-6.3308,-6.3012,-6.155,-6.0781,-6.0781,-6.0781,-6.0204,-5.9165,-5.8588,-5.7396,-5.6011,-5.5703,-5.5703,-5.5643,-5.5577,-5.5375,-5.5107,-5.4563,-5.4153,-5.3796,-5.342,-5.3203,-5.3203,-5.3203,-5.3203,-5.3167,-5.2968,-5.2821,-5.2747,-5.0729,-4.9647,-4.961,-4.8783,-4.8306,-4.8306,-4.8306,-4.871,-4.9537,-5.0141,-5.0839,-5.1867,-5.2527,-5.2894,-5.313,-5.3203,-5.3203,-5.3203,-5.3203,-5.3203,-5.3203,-5.3203,-5.3203,-5.3203,-5.3203,-5.2893,-5.2183,-5.1922,-5.1519,-5.085,-5.0342,-4.9947,-4.9693,-4.9286,-4.9049,-4.9018,-4.9018,-4.9046,-4.9018,-4.9018,-4.8883,-4.8443,-4.8376,-4.797,-4.7293,-4.7192,-4.7022,-4.6583,-4.6177,-4.6244,-4.6549,-4.6447,-4.6312,-4.6346,-4.6278,-4.6109,-4.5872,-4.5365,-4.5026,-4.4716,-4.4581,-4.4581,-4.4581,-4.4581,-4.4581,-4.4581,-4.4547,-4.4479,-7.0898,-7.0898,-7.0898,-7.0898,-7.0898,-7.0898,-7.0437,-6.9706,-6.936,-6.8398,-6.7244,-6.6782,-6.6359,-6.5974,-6.5897,-6.5897,-6.5705,-6.4089,-6.3308,-6.3051,-6.1589,-6.0819,-6.0781,-6.0781,-6.0127,-5.8896,-5.8473,-5.7588,-5.6214,-5.5857,-5.5703,-5.5703,-5.5703,-5.5588,-5.5326,-5.4905,-5.45,-5.4066,-5.3662,-5.3339,-5.323,-5.3203,-5.3203,-5.3203,-5.3203,-5.3203,-5.3078,-5.1389,-5.0345,-4.9884,-4.8967,-4.8343,-4.8343,-4.8636,-4.915,-4.9994,-5.0802,-5.161,-5.238,-5.2894,-5.3203,-5.3203,-5.3203,-5.3203,-5.3203,-5.3203,-5.3203,-5.3203,-5.3203,-5.3203,-5.3203,-5.3203,-5.2959,-5.2576,-5.2531,-5.2219,-5.1544,-5.085,-5.0314,-5.0061,-4.9896,-4.9551,-4.9168,-4.9286,-4.9195,-4.9107,-4.9018,-4.8917,-4.8376,-4.8075,-4.753,-4.6921,-4.6583,-4.6312,-4.5969,-4.563,-4.5297,-4.5466,-4.5568,-4.5568,-4.563,-4.5432,-4.5263,-4.5229,-4.4891,-4.4823,-4.4581,-4.4581,-4.4581,-4.4581,-4.4581,-4.4581,-4.4581,-4.4581,-4.4513,-7.0898,-7.0898,-7.0898,-7.0898,-7.0898,-7.0898,-7.036,-6.9513,-6.8821,-6.7898,-6.6974,-6.6282,-6.5936,-6.5897,-6.5897,-6.5859,-6.5513,-6.4089,-6.3205,-6.2743,-6.1589,-6.0781,-6.0781,-6.0781,-6.0281,-5.9396,-5.8742,-5.7896,-5.6868,-5.6214,-5.5742,-5.5703,-5.5703,-5.5703,-5.5566,-5.5301,-5.4862,-5.4516,-5.4031,-5.3585,-5.3293,-5.3225,-5.3203,-5.3203,-5.3203,-5.3203,-5.3057,-5.227,-5.1463,-5.0692,-4.937,-4.871,-4.8673,-4.9224,-5.0031,-5.0802,-5.161,-5.227,-5.2968,-5.313,-5.3203,-5.3203,-5.3203,-5.3203,-5.3203,-5.3203,-5.3203,-5.3203,-5.3203,-5.3203,-5.3203,-5.3203,-5.3109,-5.3093,-5.3008,-5.2769,-5.2206,-5.1569,-5.0911,-5.0395,-5.0565,-5.06,-4.9359,-4.9677,-4.9722,-4.9432,-4.9256,-4.9063,-4.8527,-4.8014,-4.7458,-4.6752,-4.5901,-4.5664,-4.5292,-4.5224,-4.4925,-4.4993,-4.5089,-4.5089,-4.5089,-4.4919,-4.479,-4.4722,-4.4654,-4.4649,-4.4513,-4.4479,-4.4547,-4.4581,-4.4581,-4.4581,-4.4581,-4.4581,-4.4412,-7.0898,-7.0898,-7.0898,-7.0898,-7.0898,-7.0898,-7.0052,-6.8821,-6.8538,-6.759,-6.6397,-6.6013,-6.5897,-6.5897,-6.5859,-6.5551,-6.482,-6.382,-6.2935,-6.232,-6.132,-6.0819,-6.0781,-6.0781,-6.0358,-5.9588,-5.9204,-5.8434,-5.7099,-5.6753,-5.6291,-5.5703,-5.5703,-5.5703,-5.5621,-5.5326,-5.508,-5.4848,-5.4187,-5.3777,-5.3624,-5.3318,-5.3225,-5.3203,-5.3203,-5.3203,-5.313,-5.2417,-5.161,-5.0875,-5.0472,-5.0141,-5.0068,-5.0325,-5.0802,-5.1499,-5.1867,-5.2344,-5.2983,-5.3203,-5.3203,-5.3203,-5.3203,-5.3203,-5.3203,-5.3203,-5.3203,-5.3203,-5.3203,-5.3203,-5.3203,-5.3203,-5.2947,-5.2491,-5.2894,-5.3066,-5.2777,-5.2289,-5.1537,-5.089,-5.0936,-5.0541,-5.0082,-5.0231,-5.0619,-5.0417,-4.9935,-4.9378,-4.8701,-4.7665,-4.6955,-4.5766,-4.4953,-4.4852,-4.4716,-4.4682,-4.4649,-4.4682,-4.4716,-4.4784,-4.475,-4.4716,-4.4649,-4.4615,-4.4649,-4.4615,-4.4378,-4.4181,-4.4344,-4.4581,-4.4282,-4.4181,-4.4479,-4.4581,-4.4248,-7.0898,-7.0898,-7.0898,-7.0898,-7.0898,-7.0898,-6.9937,-6.8629,-6.8359,-6.7475,-6.6167,-6.5897,-6.5897,-6.5897,-6.5897,-6.5397,-6.4589,-6.3705,-6.2858,-6.2062,-6.1216,-6.0819,-6.0781,-6.0781,-6.0512,-6.005,-5.9665,-5.8781,-5.7665,-5.7214,-5.6522,-5.5857,-5.5703,-5.5703,-5.5703,-5.552,-5.525,-5.5002,-5.4414,-5.4013,-5.3777,-5.3383,-5.3209,-5.3203,-5.3203,-5.3203,-5.313,-5.2747,-5.2123,-5.1426,-5.1022,-5.0802,-5.0839,-5.1169,-5.1499,-5.1997,-5.2307,-5.2747,-5.3057,-5.3203,-5.3203,-5.3203,-5.3203,-5.3203,-5.3203,-5.3203,-5.3203,-5.3203,-5.3203,-5.3203,-5.3203,-5.3203,-5.2968,-5.2747,-5.2931,-5.3078,-5.2784,-5.2302,-5.1701,-5.1184,-5.0914,-5.0688,-5.0044,-5.0606,-5.0962,-5.0902,-5.0335,-4.9687,-4.892,-4.7654,-4.6554,-4.5629,-4.481,-4.4726,-4.4754,-4.472,-4.472,-4.4692,-4.4615,-4.4615,-4.4581,-4.4581,-4.4581,-4.4581,-4.4581,-4.4547,-4.4344,-4.4215,-4.4412,-4.4412,-4.4045,-4.4045,-4.4412,-4.4581,-4.4248,-7.0898,-7.0898,-7.0898,-7.0898,-7.0898,-7.0783,-6.9821,-6.859,-6.8244,-6.7359,-6.6128,-6.5897,-6.5897,-6.5897,-6.5859,-6.5359,-6.4397,-6.3628,-6.2743,-6.1897,-6.1166,-6.0781,-6.0781,-6.0781,-6.0742,-6.0589,-5.9973,-5.9165,-5.828,-5.7473,-5.6637,-5.5934,-5.5703,-5.5703,-5.5703,-5.5682,-5.5481,-5.5199,-5.479,-5.4355,-5.3959,-5.3583,-5.3334,-5.3203,-5.3203,-5.3203,-5.3203,-5.3093,-5.2784,-5.2123,-5.1426,-5.1242,-5.1242,-5.183,-5.2087,-5.227,-5.2747,-5.313,-5.3203,-5.3203,-5.3203,-5.3203,-5.3203,-5.3203,-5.3203,-5.3203,-5.3203,-5.3203,-5.3203,-5.3203,-5.3203,-5.3203,-5.302,-5.2858,-5.2968,-5.2674,-5.2123,-5.1977,-5.1788,-5.1004,-5.0842,-5.0772,-5.0412,-5.0617,-5.1225,-5.1766,-5.1038,-5.0063,-4.9193,-4.8041,-4.7122,-4.6352,-4.5551,-4.4797,-4.4858,-4.4824,-4.4824,-4.4824,-4.4699,-4.4615,-4.4581,-4.4581,-4.4581,-4.4581,-4.4581,-4.4581,-4.4547,-4.4513,-4.4479,-4.4384,-4.4113,-4.4282,-4.4581,-4.4581,-4.4384,-7.0898,-7.0898,-7.0898,-7.0898,-7.0783,-7.0206,-6.936,-6.8398,-6.7667,-6.6859,-6.6051,-6.5897,-6.5897,-6.5897,-6.582,-6.5051,-6.3743,-6.3243,-6.2512,-6.1166,-6.0935,-6.0781,-6.0781,-6.0781,-6.0781,-6.0742,-6.0627,-5.9704,-5.855,-5.7973,-5.7203,-5.5857,-5.5703,-5.5703,-5.5703,-5.5703,-5.5692,-5.552,-5.516,-5.4716,-5.4288,-5.3833,-5.3464,-5.323,-5.3203,-5.3203,-5.3203,-5.3203,-5.3093,-5.2931,-5.2747,-5.2491,-5.2543,-5.2726,-5.2858,-5.2894,-5.302,-5.3203,-5.3203,-5.3203,-5.3203,-5.3203,-5.3203,-5.3203,-5.3203,-5.3203,-5.3203,-5.3203,-5.3203,-5.3203,-5.3203,-5.3203,-5.2968,-5.2601,-5.2344,-5.2013,-5.1499,-5.216,-5.182,-5.0826,-5.1339,-5.2129,-5.0866,-5.1697,-5.22,-5.2453,-5.1664,-5.0605,-4.9494,-4.8392,-4.7512,-4.6734,-4.6089,-4.5372,-4.5442,-4.5451,-4.5346,-4.5222,-4.4988,-4.4803,-4.4776,-4.4581,-4.4581,-4.4581,-4.4581,-4.4581,-4.4581,-4.4215,-4.4012,-4.4113,-4.4215,-4.4344,-4.4445,-4.4513,-4.4581,-7.0898,-7.0898,-7.0898,-7.0898,-7.0744,-7.0052,-6.9206,-6.8321,-6.7475,-6.6628,-6.6013,-6.5897,-6.5897,-6.5897,-6.582,-6.4974,-6.3397,-6.2435,-6.1666,-6.0935,-6.0781,-6.0781,-6.0781,-6.0781,-6.0781,-6.0781,-6.0781,-5.9858,-5.8704,-5.8154,-5.7357,-5.5818,-5.5703,-5.5703,-5.5703,-5.5703,-5.5703,-5.5566,-5.5121,-5.4686,-5.4452,-5.3833,-5.3464,-5.323,-5.3203,-5.3203,-5.3203,-5.3203,-5.3203,-5.3203,-5.3203,-5.3203,-5.3203,-5.3203,-5.3203,-5.3203,-5.3203,-5.3203,-5.3203,-5.3203,-5.3203,-5.3203,-5.3203,-5.3203,-5.3203,-5.3203,-5.3203,-5.3203,-5.3203,-5.3203,-5.3203,-5.3203,-5.2894,-5.2637,-5.2197,-5.1793,-5.1536,-5.183,-5.1536,-5.0215,-5.0598,-5.1022,-5.1259,-5.2029,-5.2522,-5.2528,-5.1656,-5.059,-5.0042,-4.8908,-4.7807,-4.6992,-4.6385,-4.6014,-4.6161,-4.6136,-4.594,-4.5749,-4.5477,-4.5267,-4.5169,-4.4879,-4.4581,-4.4581,-4.4581,-4.4581,-4.4513,-4.4079,-4.391,-4.4215,-4.4412,-4.4344,-4.4378,-4.4479,-4.4547,-7.0953,-7.094,-7.094,-7.0914,-7.0744,-6.9898,-6.9052,-6.8321,-6.7321,-6.6474,-6.5974,-6.5897,-6.5897,-6.5897,-6.5897,-6.4897,-6.3281,-6.1704,-6.0858,-6.0819,-6.0781,-6.0781,-6.0781,-6.0781,-6.0781,-6.0781,-6.0781,-5.9858,-5.8704,-5.8154,-5.7357,-5.5972,-5.5703,-5.5703,-5.5703,-5.5703,-5.5621,-5.5458,-5.4988,-5.4532,-5.4305,-5.3701,-5.338,-5.3188,-5.3203,-5.3203,-5.3203,-5.3203,-5.3203,-5.3203,-5.3203,-5.3203,-5.3203,-5.3203,-5.3203,-5.3203,-5.3203,-5.3203,-5.3203,-5.3203,-5.3203,-5.3203,-5.3203,-5.3203,-5.3203,-5.3203,-5.3203,-5.3203,-5.3203,-5.3203,-5.3203,-5.3203,-5.3203,-5.3004,-5.2454,-5.205,-5.1867,-5.1279,-5.0582,-5.0178,-5.0582,-5.1059,-5.1169,-5.1573,-5.2123,-5.237,-5.1471,-5.0683,-5.0127,-4.9371,-4.815,-4.7477,-4.6936,-4.6635,-4.6728,-4.6738,-4.6612,-4.6377,-4.6039,-4.5775,-4.5571,-4.5241,-4.4927,-4.4637,-4.4581,-4.4581,-4.4445,-4.4113,-4.4113,-4.4445,-4.4344,-4.4045,-4.4147,-4.4412,-4.4412,-7.1308,-7.1148,-7.1148,-7.105,-7.0695,-6.9283,-6.859,-6.8167,-6.6782,-6.6051,-6.5897,-6.5897,-6.5897,-6.5897,-6.5897,-6.4897,-6.3243,-6.1627,-6.0781,-6.0781,-6.0781,-6.0781,-6.0781,-6.0781,-6.0781,-6.0781,-6.0742,-5.9896,-5.8665,-5.8192,-5.7319,-5.6049,-5.5703,-5.5703,-5.5703,-5.5692,-5.5566,-5.5363,-5.4988,-5.4587,-5.4118,-5.3739,-5.3444,-5.323,-5.3203,-5.3203,-5.3203,-5.3203,-5.3203,-5.3203,-5.3203,-5.3203,-5.3203,-5.3203,-5.3203,-5.3203,-5.3203,-5.3203,-5.3203,-5.3203,-5.3203,-5.3203,-5.3203,-5.3203,-5.3203,-5.3203,-5.3203,-5.3203,-5.3203,-5.3203,-5.3203,-5.3203,-5.3203,-5.3004,-5.2564,-5.205,-5.1903,-5.1426,-5.0949,-5.0839,-5.1206,-5.1242,-5.1059,-5.1096,-5.1646,-5.1793,-5.1188,-5.0581,-5.0117,-4.9338,-4.8327,-4.7891,-4.7611,-4.7406,-4.7277,-4.7299,-4.7198,-4.7044,-4.6751,-4.627,-4.6039,-4.5673,-4.5312,-4.462,-4.4412,-4.4479,-4.4282,-4.4079,-4.4012,-4.4113,-4.391,-4.3707,-4.3944,-4.4147,-4.3944,-7.129,-7.1211,-7.1097,-7.0979,-7.0604,-6.9129,-6.8398,-6.8167,-6.6667,-6.5897,-6.5897,-6.5897,-6.5897,-6.5897,-6.5897,-6.4936,-6.3243,-6.1589,-6.0858,-6.0781,-6.0781,-6.0781,-6.0781,-6.0781,-6.0781,-6.0781,-6.0704,-5.9935,-5.8473,-5.8308,-5.7319,-5.6088,-5.5703,-5.5703,-5.5703,-5.5703,-5.5588,-5.5363,-5.4988,-5.4625,-5.4118,-5.3777,-5.338,-5.3272,-5.3203,-5.3203,-5.3203,-5.3203,-5.3203,-5.3203,-5.3203,-5.3203,-5.3203,-5.3203,-5.3203,-5.3203,-5.3203,-5.3203,-5.3203,-5.3203,-5.3203,-5.3203,-5.3203,-5.3203,-5.3203,-5.3203,-5.3203,-5.3203,-5.3203,-5.3203,-5.3203,-5.3203,-5.3203,-5.3078,-5.2527,-5.2307,-5.2307,-5.1793,-5.1646,-5.1499,-5.0912,-5.0602,-5.0492,-5.0675,-5.1132,-5.1096,-5.0765,-5.0362,-4.9994,-4.9224,-4.8306,-4.819,-4.7955,-4.7858,-4.7736,-4.7715,-4.7715,-4.7611,-4.7385,-4.6932,-4.6307,-4.5898,-4.4949,-4.4007,-4.4005,-4.4319,-4.4215,-4.4045,-4.391,-4.3809,-4.391,-4.3944,-4.391,-4.3876,-4.3673,-7.1233,-7.1201,-7.1041,-7.085,-7.0437,-6.909,-6.8282,-6.7859,-6.6551,-6.5897,-6.5897,-6.5897,-6.5897,-6.5782,-6.5359,-6.4512,-6.3128,-6.155,-6.0858,-6.0781,-6.0781,-6.0781,-6.0781,-6.0781,-6.0781,-6.0781,-6.0781,-5.9935,-5.8588,-5.8269,-5.728,-5.6165,-5.5703,-5.5703,-5.5703,-5.5703,-5.5654,-5.5399,-5.504,-5.4594,-5.4187,-5.3624,-5.3203,-5.3203,-5.3203,-5.3203,-5.3203,-5.3203,-5.3203,-5.3203,-5.3203,-5.3203,-5.3203,-5.3203,-5.3203,-5.3203,-5.3203,-5.3203,-5.3203,-5.3203,-5.3203,-5.3203,-5.3203,-5.3203,-5.3203,-5.3203,-5.3203,-5.3203,-5.3203,-5.3203,-5.3203,-5.3203,-5.3203,-5.3093,-5.2747,-5.2417,-5.2674,-5.2454,-5.1977,-5.1463,-5.0492,-5.0345,-5.0565,-5.0014,-5.0455,-5.0565,-5.0235,-4.9811,-4.9407,-4.893,-4.8306,-4.8306,-4.8229,-4.8229,-4.819,-4.8151,-4.8094,-4.8035,-4.7797,-4.7449,-4.6731,-4.6012,-4.5072,-4.4308,-4.3909,-4.4133,-4.4055,-4.3775,-4.3369,-4.3335,-4.3938,-4.4045,-4.3775,-4.3606,-4.347,-7.1378,-7.1221,-7.118,-7.0676,-6.9809,-6.8821,-6.7936,-6.7205,-6.6282,-6.5897,-6.5897,-6.5897,-6.5897,-6.559,-6.4282,-6.3589,-6.2858,-6.1666,-6.0819,-6.0781,-6.0781,-6.0781,-6.0781,-6.0781,-6.0781,-6.0781,-6.0781,-5.9819,-5.8665,-5.8269,-5.7396,-5.6049,-5.5703,-5.5703,-5.5703,-5.5703,-5.5493,-5.5237,-5.5094,-5.4686,-5.4013,-5.3524,-5.3297,-5.323,-5.323,-5.3209,-5.3188,-5.3203,-5.3203,-5.3203,-5.3203,-5.3203,-5.3203,-5.3203,-5.3203,-5.3203,-5.3203,-5.3203,-5.3203,-5.3203,-5.3203,-5.3203,-5.3203,-5.3203,-5.3203,-5.3203,-5.3203,-5.3203,-5.3203,-5.3203,-5.3203,-5.3203,-5.3203,-5.3167,-5.302,-5.2968,-5.3057,-5.2858,-5.238,-5.1646,-5.0765,-5.0949,-5.1242,-5.0381,-4.9684,-4.9721,-4.9684,-4.9297,-4.8967,-4.86,-4.8306,-4.8306,-4.8306,-4.8306,-4.8306,-4.8306,-4.8306,-4.8306,-4.8151,-4.7838,-4.7061,-4.6326,-4.5964,-4.5252,-4.4593,-4.376,-4.3457,-4.3098,-4.2658,-4.2895,-4.3504,-4.3572,-4.3436,-4.3335,-4.32,-7.1435,-7.1378,-7.1242,-7.0633,-6.9642,-6.8783,-6.7898,-6.7051,-6.6244,-6.5897,-6.5897,-6.5897,-6.5897,-6.5513,-6.4089,-6.3308,-6.2935,-6.155,-6.0819,-6.0781,-6.0781,-6.0781,-6.0781,-6.0781,-6.0781,-6.0781,-6.0627,-5.9858,-5.8819,-5.8127,-5.7396,-5.5934,-5.5703,-5.5703,-5.5703,-5.5703,-5.5599,-5.5435,-5.5199,-5.4804,-5.4322,-5.4015,-5.3777,-5.3546,-5.3526,-5.344,-5.3251,-5.3203,-5.3203,-5.3203,-5.3203,-5.3203,-5.3203,-5.3203,-5.3203,-5.3203,-5.3203,-5.3203,-5.3203,-5.3203,-5.3203,-5.3203,-5.3203,-5.3203,-5.3203,-5.3203,-5.3203,-5.3203,-5.3203,-5.3203,-5.3203,-5.3203,-5.3203,-5.3203,-5.3203,-5.3203,-5.313,-5.3004,-5.2601,-5.183,-5.1132,-5.1169,-5.0949,-4.9884,-4.9224,-4.9427,-4.9334,-4.904,-4.8857,-4.8673,-4.8453,-4.8306,-4.8306,-4.8306,-4.8306,-4.8306,-4.8306,-4.8306,-4.8306,-4.7939,-4.7325,-4.674,-4.6328,-4.5215,-4.3889,-4.3174,-4.2874,-4.2625,-4.2388,-4.2726,-4.3166,-4.3369,-4.3538,-4.2929,-4.2828,-7.1466,-7.1251,-7.0968,-7.0319,-6.9373,-6.8475,-6.7552,-6.6744,-6.6167,-6.5897,-6.5897,-6.5859,-6.5782,-6.5282,-6.4051,-6.3166,-6.2858,-6.1473,-6.0935,-6.0781,-6.0781,-6.0781,-6.0781,-6.0781,-6.0781,-6.0781,-6.0781,-5.9858,-5.8781,-5.8127,-5.7396,-5.578,-5.5703,-5.5703,-5.5703,-5.5703,-5.5643,-5.5621,-5.5262,-5.4933,-5.4671,-5.4538,-5.4272,-5.4031,-5.3814,-5.3644,-5.34,-5.3209,-5.3203,-5.3203,-5.3203,-5.3203,-5.3203,-5.3203,-5.3203,-5.3203,-5.3203,-5.3203,-5.3203,-5.3203,-5.3203,-5.3203,-5.3203,-5.3203,-5.3203,-5.3203,-5.3203,-5.3203,-5.3203,-5.3203,-5.3203,-5.3203,-5.3203,-5.3203,-5.3203,-5.3203,-5.3167,-5.3078,-5.2747,-5.1977,-5.1279,-5.0655,-5.0178,-4.9114,-4.8783,-4.904,-4.8967,-4.8746,-4.8673,-4.86,-4.8489,-4.8306,-4.8306,-4.8306,-4.8306,-4.8306,-4.8306,-4.8306,-4.8306,-4.8055,-4.7425,-4.6989,-4.6583,-4.5188,-4.3759,-4.3486,-4.3658,-4.2909,-4.2286,-4.276,-4.3234,-4.3673,-4.3639,-4.3031,-4.2828,-7.1389,-7.0532,-7.0144,-6.9478,-6.8692,-6.7612,-6.6756,-6.609,-6.5974,-6.5897,-6.5897,-6.5859,-6.5474,-6.4666,-6.382,-6.2935,-6.2178,-6.1243,-6.0896,-6.0781,-6.0781,-6.0781,-6.0781,-6.0781,-6.0781,-6.0781,-6.0627,-5.9704,-5.8627,-5.8088,-5.7165,-5.5934,-5.5703,-5.5703,-5.5703,-5.5703,-5.5703,-5.5621,-5.5363,-5.5186,-5.496,-5.479,-5.4547,-5.4404,-5.4066,-5.3758,-5.3739,-5.3424,-5.3209,-5.3209,-5.3203,-5.3203,-5.3203,-5.3203,-5.3203,-5.3203,-5.3203,-5.3203,-5.3203,-5.3203,-5.3203,-5.3203,-5.3203,-5.3203,-5.3203,-5.3203,-5.3203,-5.3203,-5.3203,-5.3203,-5.3203,-5.3203,-5.3203,-5.3203,-5.3203,-5.3203,-5.3203,-5.3167,-5.2821,-5.2123,-5.1426,-5.0765,-4.9994,-4.9077,-4.8489,-4.871,-4.871,-4.8489,-4.8453,-4.8416,-4.8416,-4.8306,-4.8306,-4.8306,-4.8306,-4.8306,-4.8306,-4.8306,-4.8306,-4.8015,-4.7596,-4.719,-4.6838,-4.6297,-4.5185,-4.4792,-4.4218,-4.3425,-4.2927,-4.3037,-4.3301,-4.3606,-4.3876,-4.3606,-4.3639,-7.0233,-6.9829,-6.9011,-6.838,-6.7891,-6.7469,-6.6773,-6.5999,-6.5897,-6.5897,-6.5897,-6.5859,-6.5436,-6.4551,-6.3705,-6.2858,-6.2062,-6.1204,-6.0896,-6.0781,-6.0781,-6.0781,-6.0781,-6.0781,-6.0781,-6.0666,-6.0281,-5.9511,-5.8396,-5.7857,-5.6896,-5.6011,-5.5703,-5.5703,-5.5703,-5.5703,-5.5703,-5.5692,-5.5566,-5.5458,-5.5435,-5.5363,-5.5134,-5.4833,-5.4775,-5.4267,-5.3887,-5.3663,-5.3444,-5.3293,-5.323,-5.3209,-5.3209,-5.3209,-5.3203,-5.3203,-5.3203,-5.3203,-5.3203,-5.3203,-5.3203,-5.3203,-5.3203,-5.3203,-5.3203,-5.3203,-5.3203,-5.3203,-5.3203,-5.3203,-5.3203,-5.3203,-5.3203,-5.3203,-5.3203,-5.3203,-5.3203,-5.3203,-5.2947,-5.2307,-5.1536,-5.0765,-4.9994,-4.9187,-4.871,-4.8379,-4.8343,-4.8306,-4.8306,-4.8306,-4.8306,-4.8306,-4.8306,-4.8306,-4.8306,-4.8306,-4.8306,-4.8306,-4.8306,-4.8075,-4.7797,-4.7491,-4.7133,-4.6811,-4.6443,-4.5693,-4.4892,-4.3915,-4.3512,-4.3481,-4.3376,-4.3369,-4.3639,-4.4012,-4.4147,-6.9336,-6.9023,-6.8304,-6.7812,-6.7526,-6.7213,-6.67,-6.604,-6.5978,-6.5933,-6.5871,-6.5667,-6.5013,-6.4166,-6.332,-6.2435,-6.1666,-6.1089,-6.0858,-6.0781,-6.0781,-6.0781,-6.0781,-6.0781,-6.0781,-6.0589,-5.9935,-5.9088,-5.828,-5.7396,-5.6549,-5.5972,-5.5703,-5.5703,-5.5703,-5.5703,-5.5703,-5.5703,-5.5703,-5.5703,-5.5654,-5.5632,-5.5588,-5.525,-5.5134,-5.4833,-5.435,-5.4135,-5.3924,-5.3701,-5.3543,-5.342,-5.3339,-5.3293,-5.3188,-5.3203,-5.3203,-5.3203,-5.3203,-5.3203,-5.3203,-5.3203,-5.3203,-5.3203,-5.3203,-5.3203,-5.3203,-5.3203,-5.3203,-5.3203,-5.3203,-5.3203,-5.3203,-5.3203,-5.3203,-5.3203,-5.3203,-5.3167,-5.291,-5.2527,-5.1646,-5.0692,-4.9848,-4.9114,-4.8673,-4.8343,-4.8306,-4.8306,-4.8306,-4.8306,-4.8306,-4.8306,-4.8306,-4.8306,-4.8306,-4.8306,-4.8306,-4.8306,-4.8306,-4.8306,-4.8055,-4.7756,-4.7617,-4.7503,-4.7053,-4.6387,-4.5726,-4.5012,-4.4371,-4.381,-4.3802,-4.3823,-4.3944,-4.4282,-4.4215,-6.8906,-6.8242,-6.8164,-6.7995,-6.7688,-6.6836,-6.6314,-6.6109,-6.6109,-6.6003,-6.5807,-6.5128,-6.4282,-6.3435,-6.2666,-6.1858,-6.1166,-6.0858,-6.0781,-6.0781,-6.0781,-6.0781,-6.0781,-6.0781,-6.0781,-6.0589,-5.9781,-5.8896,-5.828,-5.7203,-5.6395,-5.5934,-5.5703,-5.5703,-5.5703,-5.5703,-5.5703,-5.5703,-5.5703,-5.5703,-5.5703,-5.5703,-5.5632,-5.5554,-5.5324,-5.5056,-5.4833,-5.4594,-5.4387,-5.4204,-5.3851,-5.3702,-5.3663,-5.3359,-5.3209,-5.3203,-5.3203,-5.3203,-5.3203,-5.3203,-5.3203,-5.3203,-5.3203,-5.3203,-5.3203,-5.3203,-5.3203,-5.3203,-5.3203,-5.3203,-5.3203,-5.3203,-5.3203,-5.3203,-5.3203,-5.3203,-5.3203,-5.3167,-5.2947,-5.2747,-5.1646,-5.0545,-4.9701,-4.9003,-4.86,-4.8343,-4.8343,-4.8306,-4.8306,-4.8306,-4.8306,-4.8306,-4.8306,-4.8306,-4.8306,-4.8306,-4.8306,-4.8306,-4.8306,-4.8306,-4.8306,-4.8151,-4.8075,-4.8097,-4.766,-4.7015,-4.6629,-4.6208,-4.5552,-4.4893,-4.4605,-4.4544,-4.4569,-4.4513,-4.4412,-6.7578,-6.7344,-6.7344,-6.7304,-6.7176,-6.6727,-6.6452,-6.629,-6.6174,-6.5996,-6.5716,-6.4974,-6.4128,-6.3281,-6.2397,-6.1601,-6.0935,-6.0781,-6.0781,-6.0781,-6.0781,-6.0781,-6.0781,-6.0781,-6.0781,-6.0396,-5.955,-5.8665,-5.828,-5.6973,-5.6175,-5.5752,-5.5703,-5.5703,-5.5703,-5.5703,-5.5703,-5.5703,-5.5703,-5.5703,-5.5703,-5.5703,-5.5703,-5.5703,-5.5504,-5.5375,-5.5173,-5.4933,-5.4819,-5.4563,-5.4153,-5.3869,-5.3777,-5.3444,-5.3188,-5.3203,-5.3203,-5.3203,-5.3203,-5.3203,-5.3203,-5.3203,-5.3203,-5.3203,-5.3203,-5.3203,-5.3203,-5.3203,-5.3203,-5.3203,-5.3203,-5.3203,-5.3203,-5.3203,-5.3203,-5.3203,-5.3203,-5.3203,-5.3057,-5.2858,-5.2123,-5.0839,-4.9811,-4.9114,-4.8636,-4.8379,-4.8306,-4.8306,-4.8306,-4.8306,-4.8306,-4.8306,-4.8306,-4.8306,-4.8306,-4.8306,-4.8306,-4.8306,-4.8306,-4.8306,-4.8306,-4.8306,-4.8287,-4.8192,-4.7968,-4.7687,-4.7409,-4.7024,-4.6543,-4.6046,-4.5655,-4.5062,-4.4769,-4.4631,-4.4547,-6.6914,-6.6914,-6.6914,-6.6914,-6.6875,-6.6743,-6.6613,-6.6407,-6.591,-6.5624,-6.5269,-6.4277,-6.3397,-6.2743,-6.2012,-6.1485,-6.0819,-6.0781,-6.0781,-6.0781,-6.0781,-6.0781,-6.0781,-6.0742,-6.055,-6.0089,-5.9127,-5.8204,-5.7742,-5.6395,-5.5818,-5.5703,-5.5703,-5.5703,-5.5703,-5.5703,-5.5703,-5.5703,-5.5703,-5.5703,-5.5703,-5.5703,-5.5703,-5.5703,-5.5632,-5.5577,-5.5387,-5.525,-5.5186,-5.4819,-5.4398,-5.4066,-5.3906,-5.3526,-5.3251,-5.3203,-5.3203,-5.3203,-5.3203,-5.3203,-5.3203,-5.3203,-5.3203,-5.3203,-5.3203,-5.3203,-5.3203,-5.3203,-5.3203,-5.3203,-5.3203,-5.3203,-5.3203,-5.3203,-5.3203,-5.3203,-5.3203,-5.3203,-5.2983,-5.2784,-5.2454,-5.1206,-5.0051,-4.9297,-4.871,-4.8489,-4.8306,-4.8343,-4.8343,-4.8306,-4.8306,-4.8306,-4.8306,-4.8306,-4.8306,-4.8306,-4.8306,-4.8306,-4.8306,-4.8306,-4.8306,-4.8306,-4.8306,-4.8306,-4.8119,-4.8043,-4.8117,-4.7822,-4.7298,-4.6869,-4.653,-4.5875,-4.5123,-4.4824,-4.4803,-6.6914,-6.6914,-6.6875,-6.6836,-6.6836,-6.664,-6.659,-6.6443,-6.535,-6.485,-6.4657,-6.2987,-6.2332,-6.2024,-6.1254,-6.0858,-6.0819,-6.0781,-6.0781,-6.0781,-6.0781,-6.0781,-6.0742,-6.0627,-6.0242,-5.9511,-5.8588,-5.7665,-5.7022,-5.6165,-5.5703,-5.5703,-5.5703,-5.5703,-5.5703,-5.5703,-5.5703,-5.5703,-5.5703,-5.5703,-5.5703,-5.5703,-5.5703,-5.5703,-5.5692,-5.5682,-5.5588,-5.5588,-5.5599,-5.5312,-5.489,-5.4609,-5.4225,-5.3643,-5.3339,-5.3203,-5.3203,-5.3203,-5.3203,-5.3203,-5.3203,-5.3203,-5.3203,-5.3203,-5.3203,-5.3203,-5.3203,-5.3203,-5.3203,-5.3203,-5.3203,-5.3203,-5.3203,-5.3203,-5.3203,-5.3203,-5.3203,-5.3057,-5.2821,-5.2601,-5.2417,-5.1536,-5.0472,-4.9664,-4.937,-4.8857,-4.8673,-4.8453,-4.8453,-4.8306,-4.8306,-4.8306,-4.8306,-4.8306,-4.8306,-4.8306,-4.8306,-4.8306,-4.8306,-4.8306,-4.8306,-4.8306,-4.8306,-4.8306,-4.8306,-4.8287,-4.8248,-4.819,-4.7959,-4.7575,-4.719,-4.6542,-4.5699,-4.5302,-4.5089,-6.6914,-6.6836,-6.625,-6.5976,-6.5898,-6.5312,-6.5263,-6.5549,-6.516,-6.4691,-6.3874,-6.2651,-6.2047,-6.2024,-6.1204,-6.0858,-6.0781,-6.0781,-6.0781,-6.0781,-6.0781,-6.0781,-6.0589,-6.0204,-5.9781,-5.905,-5.8165,-5.728,-5.6868,-5.6088,-5.5703,-5.5703,-5.5703,-5.5703,-5.5703,-5.5703,-5.5703,-5.5703,-5.5703,-5.5703,-5.5703,-5.5703,-5.5703,-5.5703,-5.5703,-5.5703,-5.5703,-5.5703,-5.5703,-5.5566,-5.4905,-5.4554,-5.4458,-5.3701,-5.3203,-5.3203,-5.3203,-5.3203,-5.3203,-5.3203,-5.3203,-5.3203,-5.3203,-5.3203,-5.3203,-5.3203,-5.3203,-5.3203,-5.3203,-5.3203,-5.3203,-5.3203,-5.3203,-5.3203,-5.3203,-5.3203,-5.3203,-5.313,-5.2873,-5.2821,-5.2601,-5.2087,-5.1022,-5.0729,-5.0398,-4.9627,-4.9114,-4.8893,-4.8563,-4.8416,-4.8306,-4.8306,-4.8306,-4.8306,-4.8306,-4.8306,-4.8306,-4.8306,-4.8306,-4.8306,-4.8306,-4.8306,-4.8306,-4.8306,-4.8306,-4.8306,-4.8287,-4.8229,-4.817,-4.8015,-4.7617,-4.6999,-4.6401,-4.5975,-4.558,-6.6406,-6.625,-6.543,-6.5078,-6.5,-6.4531,-6.4371,-6.4384,-6.4232,-6.3786,-6.313,-6.2095,-6.1638,-6.1485,-6.1012,-6.0781,-6.0781,-6.0781,-6.0781,-6.0781,-6.0742,-6.0473,-6.0165,-5.9665,-5.9088,-5.8396,-5.7638,-5.6868,-5.6483,-5.6088,-5.5703,-5.5703,-5.5703,-5.5703,-5.5703,-5.5703,-5.5703,-5.5703,-5.5703,-5.5703,-5.5703,-5.5703,-5.5703,-5.5703,-5.5703,-5.5703,-5.5703,-5.5703,-5.5703,-5.5632,-5.504,-5.4655,-5.4436,-5.3701,-5.3188,-5.3203,-5.3203,-5.3203,-5.3203,-5.3203,-5.3203,-5.3203,-5.3203,-5.3203,-5.3203,-5.3203,-5.3203,-5.3203,-5.3203,-5.3203,-5.3203,-5.3203,-5.3203,-5.3203,-5.3203,-5.3203,-5.3203,-5.3203,-5.313,-5.3093,-5.2858,-5.2417,-5.2013,-5.1793,-5.1353,-5.0508,-4.9921,-4.9627,-4.9114,-4.8563,-4.8416,-4.8306,-4.8306,-4.8306,-4.8306,-4.8306,-4.8306,-4.8306,-4.8306,-4.8306,-4.8306,-4.8306,-4.8306,-4.8306,-4.8306,-4.8306,-4.8306,-4.8306,-4.8248,-4.8114,-4.8055,-4.7695,-4.711,-4.653,-4.6209,-6.5508,-6.543,-6.457,-6.414,-6.4101,-6.3984,-6.3594,-6.293,-6.2824,-6.2637,-6.2313,-6.1493,-6.1022,-6.1021,-6.0827,-6.0781,-6.0781,-6.0781,-6.0627,-6.0666,-6.0512,-6.0165,-5.955,-5.9204,-5.8357,-5.7434,-5.6791,-5.6406,-5.5934,-5.5703,-5.5703,-5.5703,-5.5703,-5.5703,-5.5703,-5.5703,-5.5703,-5.5703,-5.5703,-5.5703,-5.5703,-5.5703,-5.5703,-5.5703,-5.5703,-5.5703,-5.5703,-5.5703,-5.5703,-5.5577,-5.5326,-5.489,-5.4355,-5.3777,-5.342,-5.323,-5.3251,-5.3203,-5.3203,-5.3203,-5.3203,-5.3203,-5.3203,-5.3203,-5.3203,-5.3203,-5.3203,-5.3203,-5.3203,-5.3203,-5.3203,-5.3203,-5.3203,-5.3203,-5.3203,-5.3203,-5.3203,-5.3203,-5.3167,-5.313,-5.2968,-5.2564,-5.2491,-5.2234,-5.1903,-5.1169,-5.0802,-5.0508,-4.9848,-4.9077,-4.8673,-4.8489,-4.8306,-4.8306,-4.8306,-4.8306,-4.8306,-4.8306,-4.8306,-4.8306,-4.8306,-4.8306,-4.8306,-4.8306,-4.8306,-4.8306,-4.8306,-4.8306,-4.8306,-4.8267,-4.8229,-4.8267,-4.7838,-4.7219,-4.6851,-6.4609,-6.4531,-6.3672,-6.293,-6.2344,-6.2344,-6.2265,-6.2031,-6.1991,-6.193,-6.1686,-6.1271,-6.1009,-6.0925,-6.0856,-6.0777,-6.0704,-6.0589,-6.0358,-6.0012,-5.9819,-5.9358,-5.8588,-5.8088,-5.7434,-5.6973,-5.6434,-5.5972,-5.578,-5.5703,-5.5703,-5.5703,-5.5703,-5.5703,-5.5703,-5.5703,-5.5703,-5.5703,-5.5703,-5.5703,-5.5703,-5.5703,-5.5703,-5.5703,-5.5703,-5.5703,-5.5703,-5.5703,-5.5703,-5.5621,-5.5326,-5.4905,-5.4484,-5.3961,-5.372,-5.3624,-5.3461,-5.3359,-5.3355,-5.3339,-5.3339,-5.3272,-5.3251,-5.3188,-5.3203,-5.3203,-5.3203,-5.3203,-5.3203,-5.3203,-5.3203,-5.3203,-5.3203,-5.3203,-5.3203,-5.3203,-5.3203,-5.3203,-5.3203,-5.3093,-5.2968,-5.2894,-5.2784,-5.2601,-5.2307,-5.2013,-5.1793,-5.1426,-5.0655,-4.9921,-4.926,-4.893,-4.8416,-4.8306,-4.8306,-4.8306,-4.8306,-4.8306,-4.8306,-4.8306,-4.8306,-4.8306,-4.8306,-4.8306,-4.8306,-4.8306,-4.8306,-4.8306,-4.8306,-4.8306,-4.8306,-4.8306,-4.8306,-4.7818,-4.7554,-6.3711,-6.3594,-6.2812,-6.2148,-6.1758,-6.1719,-6.1719,-6.1719,-6.1719,-6.1677,-6.1577,-6.133,-6.1147,-6.104,-6.0925,-6.0476,-6.0315,-6.0204,-5.9665,-5.9165,-5.8858,-5.8396,-5.778,-5.7176,-5.678,-5.6395,-5.6011,-5.5703,-5.5703,-5.5703,-5.5703,-5.5703,-5.5703,-5.5703,-5.5703,-5.5703,-5.5703,-5.5703,-5.5703,-5.5703,-5.5703,-5.5703,-5.5703,-5.5703,-5.5703,-5.5703,-5.5703,-5.5703,-5.5703,-5.5588,-5.5287,-5.5094,-5.4745,-5.4371,-5.4153,-5.4066,-5.3943,-5.3777,-5.3758,-5.372,-5.3701,-5.3682,-5.3504,-5.3526,-5.3444,-5.3424,-5.3188,-5.3203,-5.3203,-5.3203,-5.3203,-5.3203,-5.3203,-5.3203,-5.3203,-5.3203,-5.3203,-5.3203,-5.3203,-5.3167,-5.3093,-5.3057,-5.3041,-5.3004,-5.2726,-5.2726,-5.2564,-5.2197,-5.1463,-5.0822,-5.0141,-4.9481,-4.904,-4.8489,-4.8306,-4.8306,-4.8306,-4.8306,-4.8306,-4.8306,-4.8306,-4.8306,-4.8306,-4.8306,-4.8306,-4.8306,-4.8306,-4.8306,-4.8306,-4.8306,-4.8306,-4.8306,-4.8306,-4.8306,-4.8035,-6.2851,-6.2734,-6.2031,-6.1719,-6.1719,-6.1719,-6.1719,-6.1719,-6.1719,-6.1719,-6.1601,-6.1419,-6.1169,-6.0963,-6.0803,-6.0122,-5.9628,-5.9407,-5.8858,-5.8319,-5.8127,-5.755,-5.7088,-5.6714,-5.6319,-5.6011,-5.5742,-5.5703,-5.5703,-5.5703,-5.5703,-5.5703,-5.5703,-5.5703,-5.5703,-5.5703,-5.5703,-5.5703,-5.5703,-5.5703,-5.5703,-5.5703,-5.5703,-5.5703,-5.5703,-5.5703,-5.5703,-5.5703,-5.5703,-5.5599,-5.5423,-5.5275,-5.5056,-5.4804,-5.464,-5.4516,-5.4387,-5.4322,-5.4355,-5.4305,-5.4355,-5.4322,-5.4048,-5.3869,-5.3814,-5.3682,-5.3461,-5.3359,-5.3359,-5.3209,-5.323,-5.3188,-5.3188,-5.3203,-5.3203,-5.3203,-5.3203,-5.3203,-5.3203,-5.3203,-5.3203,-5.3203,-5.3203,-5.3203,-5.3203,-5.3203,-5.302,-5.2711,-5.227,-5.172,-5.1096,-5.0435,-4.9884,-4.9334,-4.871,-4.8563,-4.8636,-4.8306,-4.8306,-4.8306,-4.8306,-4.8306,-4.8306,-4.8306,-4.8306,-4.8306,-4.8306,-4.8306,-4.8306,-4.8306,-4.8306,-4.8306,-4.8306,-4.8306,-4.8306,-6.1953,-6.1914,-6.1758,-6.1719,-6.1719,-6.1719,-6.1719,-6.1719,-6.1719,-6.1719,-6.1484,-6.0898,-6.0458,-6.0197,-6.0065,-5.9485,-5.8622,-5.8511,-5.7973,-5.7357,-5.7242,-5.6665,-5.628,-5.6214,-5.5895,-5.5742,-5.5703,-5.5703,-5.5703,-5.5703,-5.5703,-5.5703,-5.5703,-5.5703,-5.5703,-5.5703,-5.5703,-5.5703,-5.5703,-5.5703,-5.5703,-5.5703,-5.5703,-5.5703,-5.5703,-5.5703,-5.5703,-5.5703,-5.5703,-5.5643,-5.561,-5.5554,-5.5411,-5.5199,-5.5053,-5.4957,-5.4804,-5.4686,-5.4686,-5.4686,-5.4716,-5.4671,-5.4452,-5.4355,-5.4288,-5.4238,-5.4086,-5.3979,-5.387,-5.344,-5.3339,-5.3314,-5.3272,-5.3209,-5.3203,-5.3203,-5.3203,-5.3203,-5.3203,-5.3203,-5.3203,-5.3203,-5.3203,-5.3203,-5.3203,-5.3203,-5.3203,-5.2894,-5.2821,-5.2417,-5.1977,-5.1463,-5.0839,-5.0141,-4.9537,-4.9243,-4.9133,-4.8673,-4.8306,-4.8306,-4.8306,-4.8306,-4.8306,-4.8306,-4.8306,-4.8306,-4.8306,-4.8306,-4.8306,-4.8306,-4.8306,-4.8306,-4.8306,-4.8306,-4.8306]},{"header":{"parameterUnit":"m.s-1","parameterCategory":1,"la1":31.0,"la2":29.5877,"lo1":-88.7671,"lo2":-86.6584,"dy":0.0162,"dx":0.0185,"nx":115,"ny":88,"refTime":"2024-05-21T12:00:00:Z","depth":0,"parameterNumber":3,"parameterNumberName":"V-component_of_WINDS"},"data":[0.0,0.0,0.0,0.0,0.0,0.0,0.0,0.0,0.0,0.0,0.0,0.0,0.0,0.0,0.0,0.0,0.0,0.0,0.0,0.0,0.0,0.0,0.0,0.0,0.0,0.0,0.0,0.0,0.0,0.0,0.0,0.0,0.0,0.0,0.0,0.0,0.0,0.0,0.0,0.0,0.0,0.0,0.0,0.0,0.0,0.0,0.0,0.0,0.0,0.0,0.0,0.0,0.0,0.0,0.0,0.0,0.0,0.0,0.0,0.0,0.0,0.0,0.0,0.0,0.0,0.0,0.0,0.0,0.0,0.0,0.0,0.0,0.0,0.0,0.0,0.0,0.0,0.0,0.0,0.0,0.0,0.0,0.0,0.0,0.0,0.0,0.0,0.0,0.0,0.0,0.0,0.0,0.0,0.0,0.0,0.0,0.0,0.0,0.0,0.0,0.0,0.0,0.0,0.0,0.0,0.0,0.0,0.0,0.0,0.0,0.0,0.0,0.0,0.0,0.0,0.0,0.0,0.0,0.0,0.0,0.0,0.0,0.0,0.0,0.0,0.0,0.0,0.0,0.0,0.0,0.0,0.0,0.0,0.0,0.0,0.0,0.0,0.0,0.0,0.0,0.0,0.0,0.0,0.0,0.0,0.0,0.0,0.0,0.0,0.0,0.0,0.0,0.0,0.0,0.0,0.0,0.0,0.0,0.0,0.0,0.0,0.0,0.0,0.0,0.0,0.0,0.0,0.0,0.0,0.0,0.0,0.0,0.0,0.0,0.0,0.0,0.0,0.0,0.0,0.0,0.0,0.0,0.0,0.0,0.0,0.0,0.0,0.0,0.0,0.0,0.0,0.0,0.0,0.0,0.0,0.0,0.0,0.0,0.0,0.0,0.0,0.0,0.0,0.0,0.0,0.0,0.0,0.0,0.0,0.0,0.0,0.0,0.0,0.0,0.0,0.0,0.0,0.0,0.0,0.0,0.0,0.0,0.0,0.0,0.0,0.0,0.0,0.0,0.0,0.0,0.0,0.0,0.0,0.0,0.0,0.0,0.0,0.0,0.0,0.0,0.0,0.0,0.0,0.0,0.0,0.0,0.0,0.0,0.0,0.0,0.0,0.0,0.0,0.0,0.0,0.0,0.0,0.0,0.0,0.0,0.0,0.0,0.0,0.0,0.0,0.0,0.0,0.0,0.0,0.0,0.0,0.0,0.0,0.0,0.0,0.0,0.0,0.0,0.0,0.0,0.0,0.0,0.0,0.0,0.0,0.0,0.0,0.0,0.0,0.0,0.0,0.0,0.0,0.0,0.0,0.0,0.0,0.0,0.0,0.0,0.0,0.0,0.0,0.0,0.0,0.0,0.0,0.0,0.0,0.0,0.0,0.0,0.0,0.0,0.0,0.0,0.0,0.0,0.0,0.0,0.0,0.0,0.0,0.0,0.0,0.0,0.0,0.0,0.0,0.0,0.0,0.0,0.0,0.0,0.0,0.0,0.0,0.0,0.0,0.0,0.0,0.0,0.0,0.0,0.0,0.0,0.0,0.0,0.0,0.0,0.0,0.0,0.0,0.0,0.0,0.0,0.0,0.0,0.0,0.0,0.0,0.0,0.0,0.0,0.0,0.0,0.0,0.0,0.0,0.0,0.0,0.0,0.0,0.0,0.0,0.0,0.0,0.0,0.0,0.0,0.0,0.0,0.0,0.0,0.0,0.0,0.0,0.0,0.0,0.0,0.0,0.0,0.0,0.0,0.0,0.0,0.0,0.0,0.0,0.0,0.0,0.0,0.0,0.0,0.0,0.0,0.0,0.0,0.0,0.0,0.0,0.0,0.0,0.0,0.0,0.0,0.0,0.0,0.0,0.0,0.0,0.0,0.0,0.0,0.0,0.0,0.0,0.0,0.0,0.0,0.0,0.0,0.0,0.0,0.0,0.0,0.0,0.0,0.0,0.0,0.0,0.0,0.0,0.0,0.0,0.0,0.0,0.0,0.0,0.0,0.0,0.0,0.0,0.0,0.0,0.0,0.0,0.0,0.0,0.0,0.0,0.0,0.0,0.0,0.0,0.0,0.0,0.0,0.0,0.0,0.0,0.0,0.0,0.0,0.0,0.0,0.0,0.0,0.0,0.0,0.0,0.0,0.0,0.0,0.0,0.0,0.0,0.0,0.0,0.0,0.0,0.0,0.0,0.0,0.0,0.0,0.0,0.0,0.0,0.0,0.0,0.0,0.0,0.0,0.0,0.0,0.0,0.0,0.0,0.0,0.0,0.0,0.0,0.0,0.0,0.0,0.0,0.0,0.0,0.0,0.0,0.0,0.0,0.0,0.0,0.0,0.0,0.0,0.0,0.0,0.0,0.0,0.0,0.0,0.0,0.0,0.0,0.0,0.0,0.0,0.0,0.0,0.0,0.0,0.0,0.0,0.0,0.0,0.0,0.0,0.0,0.0,0.0,0.0,0.0,0.0,0.0,0.0,0.0,0.0,0.0,0.0,0.0,0.0,0.0,0.0,0.0,0.0,0.0,0.0,0.0,0.0,0.0,0.0,0.0,0.0,0.0,0.0,0.0,0.0,0.0,0.0,0.0,0.0,0.0,0.0,0.0,0.0,0.0,0.0,0.0,0.0,0.0,0.0,0.0,0.0,0.0,0.0,0.0,0.0,0.0,0.0,0.0,0.0,0.0,0.0,0.0,0.0,0.0,0.0,0.0,0.0,0.0,0.0,0.0,0.0,0.0,0.0,0.0,0.0,0.0,0.0,0.0,0.0,0.0,0.0,0.0,0.0,0.0,0.0,0.0,0.0,0.0,0.0,0.0,0.0,0.0,0.0,0.0,0.0,0.0,0.0,0.0,0.0,0.0,0.0,0.0,0.0,0.0,0.0,0.0,0.0,0.0,0.0,0.0,0.0,0.0,0.0,0.0,0.0,0.0,0.0,0.0,0.0,0.0,0.0,0.0,0.0,0.0,0.0,0.0,0.0,0.0,0.0,0.0,0.0,0.0,0.0,0.0,0.0,0.0,0.0,0.0,0.0,0.0,0.0,0.0,0.0,0.0,0.0,0.0,0.0,0.0,0.0,0.0,0.0,0.0,0.0,0.0,0.0,0.0,0.0,0.0,0.0,0.0,0.0,0.0,0.0,0.0,0.0,0.0,0.0,0.0,0.0,0.0,0.0,0.0,0.0,0.0,0.0,0.0,0.0,0.0,0.0,0.0,0.0,0.0,0.0,0.0,0.0,0.0,0.0,0.0,0.0,0.0,0.0,0.0,0.0,0.0,0.0,0.0,0.0,0.0,0.0,0.0,0.0,0.0,0.0,0.0,0.0,0.0,0.0,0.0,0.0,0.0,0.0,0.0,0.0,0.0,0.0,0.0,0.0,0.0,0.0,0.0,0.0,0.0,0.0,0.0,0.0,0.0,0.0,0.0,0.0,0.0,0.0,0.0,0.0,0.0,0.0,0.0,0.0,0.0,0.0,0.0,0.0,0.0,0.0,0.0,0.0,0.0,0.0,0.0,0.0,0.0,0.0,0.0,0.0,0.0,0.0,0.0,0.0,0.0,0.0,0.0,0.0,0.0,0.0,0.0,0.0,0.0,0.0,0.0,0.0,0.0,0.0,0.0,0.0,0.0,0.0,0.0,0.0,0.0,0.0,0.0,0.0,0.0,0.0,0.0,0.0,0.0,0.0,0.0,0.0,0.0,0.0,0.0,0.0,0.0,0.0,0.0,0.0,0.0,0.0,0.0,0.0,0.0,0.0,0.0,0.0,0.0,0.0,0.0,0.0,0.0,0.0,0.0,0.0,0.0,0.0,0.0,0.0,0.0,0.0,0.0,0.0,0.0,0.0,0.0,0.0,0.0,0.0,0.0,0.0,0.0,0.0,0.0,0.0,0.0,0.0,0.0,0.0,0.0,0.0,0.0,0.0,0.0,0.0,0.0,0.0,0.0,0.0,0.0,0.0,0.0,0.0,0.0,0.0,0.0,0.0,0.0,0.0,0.0,0.0,0.0,0.0,0.0,0.0,0.0,0.0,0.0,0.0,0.0,0.0,0.0,0.0,0.0,0.0,0.0,0.0,0.0,0.0,0.0,0.0,0.0,0.0,0.0,0.0,0.0,0.0,0.0,0.0,0.0,0.0,0.0,0.0,0.0,0.0,0.0,0.0,0.0,0.0,0.0,0.0,0.0,0.0,0.0,0.0,0.0,0.0,0.0,0.0,0.0,0.0,0.0,0.0,0.0,0.0,0.0,0.0,0.0,0.0,0.0,0.0,0.0,0.0,-1.5471,0.0,0.0,0.0,0.0,0.0,0.0,0.0,0.0,0.0,0.0,0.0,0.0,0.0,0.0,0.0,0.0,0.0,0.0,0.0,0.0,0.0,0.0,0.0,0.0,0.0,0.0,0.0,0.0,0.0,0.0,0.0,0.0,0.0,0.0,0.0,0.0,0.0,0.0,0.0,0.0,0.0,0.0,0.0,0.0,0.0,0.0,0.0,0.0,0.0,0.0,0.0,0.0,0.0,0.0,0.0,0.0,0.0,0.0,0.0,0.0,0.0,0.0,0.0,0.0,0.0,0.0,0.0,0.0,0.0,0.0,0.0,0.0,0.0,0.0,0.0,0.0,0.0,0.0,0.0,0.0,0.0,0.0,0.0,0.0,0.0,0.0,0.0,0.0,0.0,0.0,0.0,0.0,0.0,0.0,0.0,0.0,0.0,0.0,0.0,0.0,0.0,0.0,0.0,0.0,0.0,0.0,0.0,0.0,0.0,0.0,-1.7501,-1.7219,-1.7435,-1.6901,-1.5458,0.0,0.0,0.0,0.0,0.0,0.0,0.0,0.0,0.0,0.0,0.0,0.0,0.0,0.0,0.0,0.0,0.0,0.0,0.0,0.0,0.0,0.0,0.0,0.0,0.0,0.0,0.0,0.0,0.0,0.0,0.0,0.0,0.0,0.0,0.0,0.0,0.0,0.0,0.0,0.0,0.0,0.0,0.0,0.0,0.0,0.0,0.0,0.0,0.0,0.0,0.0,0.0,0.0,0.0,0.0,0.0,0.0,0.0,0.0,0.0,0.0,0.0,0.0,0.0,0.0,0.0,0.0,0.0,0.0,0.0,0.0,0.0,0.0,0.0,0.0,0.0,0.0,0.0,0.0,0.0,0.0,0.0,0.0,0.0,0.0,0.0,0.0,0.0,0.0,0.0,0.0,0.0,0.0,0.0,0.0,0.0,0.0,0.0,0.0,0.0,0.0,0.0,0.0,0.0,0.0,0.0,0.0,0.0,0.0,0.0,0.0,0.0,-1.7595,-1.7061,-1.5752,0.0,0.0,0.0,0.0,0.0,0.0,0.0,0.0,0.0,0.0,0.0,0.0,0.0,0.0,0.0,0.0,0.0,0.0,0.0,0.0,0.0,0.0,0.0,0.0,0.0,0.0,0.0,0.0,0.0,0.0,0.0,0.0,0.0,0.0,0.0,0.0,0.0,0.0,0.0,0.0,0.0,0.0,0.0,0.0,0.0,0.0,0.0,0.0,0.0,0.0,0.0,0.0,0.0,0.0,0.0,0.0,0.0,0.0,0.0,0.0,0.0,0.0,0.0,0.0,0.0,0.0,0.0,0.0,0.0,0.0,0.0,0.0,0.0,0.0,0.0,0.0,0.0,0.0,0.0,0.0,0.0,0.0,0.0,0.0,0.0,0.0,0.0,0.0,0.0,0.0,0.0,0.0,0.0,0.0,0.0,0.0,0.0,0.0,0.0,0.0,0.0,0.0,0.0,0.0,0.0,0.0,0.0,0.0,0.0,0.0,-1.7021,-1.8317,-1.8103,0.0,-1.6647,0.0,0.0,0.0,0.0,0.0,0.0,0.0,0.0,0.0,0.0,0.0,0.0,0.0,0.0,0.0,0.0,0.0,0.0,0.0,0.0,0.0,0.0,0.0,0.0,0.0,0.0,0.0,0.0,0.0,0.0,0.0,0.0,0.0,0.0,0.0,0.0,0.0,0.0,0.0,0.0,0.0,0.0,0.0,0.0,0.0,0.0,0.0,0.0,0.0,0.0,0.0,0.0,0.0,0.0,0.0,0.0,0.0,0.0,0.0,0.0,0.0,0.0,0.0,0.0,0.0,0.0,0.0,0.0,0.0,0.0,0.0,0.0,0.0,0.0,0.0,0.0,0.0,0.0,0.0,0.0,0.0,0.0,0.0,0.0,0.0,0.0,0.0,0.0,0.0,0.0,0.0,0.0,0.0,0.0,0.0,0.0,0.0,0.0,0.0,0.0,0.0,0.0,0.0,0.0,0.0,0.0,0.0,0.0,0.0,0.0,-1.7502,-1.8464,-1.7849,-1.7168,0.0,0.0,0.0,0.0,0.0,0.0,0.0,0.0,0.0,0.0,0.0,0.0,0.0,0.0,0.0,0.0,0.0,0.0,0.0,0.0,0.0,0.0,0.0,0.0,0.0,0.0,0.0,0.0,0.0,0.0,0.0,0.0,0.0,0.0,0.0,0.0,0.0,0.0,0.0,0.0,0.0,0.0,0.0,0.0,0.0,0.0,0.0,0.0,0.0,0.0,0.0,0.0,0.0,0.0,0.0,0.0,0.0,0.0,0.0,0.0,0.0,0.0,0.0,0.0,0.0,0.0,0.0,0.0,0.0,0.0,0.0,0.0,0.0,0.0,0.0,0.0,0.0,0.0,0.0,0.0,0.0,0.0,0.0,0.0,0.0,0.0,0.0,0.0,0.0,0.0,0.0,0.0,0.0,0.0,0.0,0.0,0.0,0.0,0.0,0.0,0.0,0.0,0.0,0.0,0.0,0.0,0.0,0.0,0.0,0.0,-1.7435,-1.7916,-1.8531,-1.7822,-1.7007,-1.6179,0.0,0.0,0.0,0.0,0.0,0.0,0.0,0.0,0.0,0.0,0.0,0.0,0.0,0.0,0.0,0.0,0.0,0.0,0.0,0.0,0.0,0.0,0.0,0.0,0.0,0.0,0.0,0.0,0.0,0.0,0.0,0.0,0.0,0.0,0.0,0.0,0.0,0.0,0.0,0.0,0.0,0.0,0.0,0.0,0.0,0.0,0.0,0.0,0.0,0.0,0.0,0.0,0.0,0.0,0.0,0.0,0.0,0.0,0.0,0.0,0.0,0.0,0.0,0.0,0.0,0.0,0.0,0.0,0.0,0.0,0.0,0.0,0.0,0.0,0.0,0.0,0.0,0.0,0.0,0.0,0.0,0.0,0.0,0.0,0.0,0.0,0.0,0.0,0.0,0.0,0.0,0.0,0.0,0.0,0.0,0.0,0.0,0.0,0.0,0.0,0.0,0.0,0.0,0.0,0.0,0.0,0.0,0.0,-1.9082,-1.813,-1.8009,-1.8878,-1.8275,-1.7276,0.0,0.0,0.0,0.0,0.0,0.0,0.0,0.0,0.0,0.0,0.0,0.0,0.0,0.0,0.0,0.0,0.0,0.0,0.0,0.0,0.0,0.0,0.0,0.0,0.0,0.0,0.0,0.0,0.0,0.0,0.0,0.0,0.0,0.0,0.0,0.0,0.0,0.0,0.0,0.0,0.0,0.0,0.0,0.0,0.0,0.0,0.0,0.0,0.0,0.0,0.0,0.0,0.0,0.0,0.0,0.0,0.0,0.0,0.0,0.0,0.0,0.0,0.0,0.0,0.0,0.0,0.0,0.0,0.0,0.0,0.0,0.0,0.0,0.0,0.0,0.0,0.0,0.0,0.0,0.0,0.0,0.0,0.0,0.0,0.0,0.0,0.0,0.0,0.0,0.0,0.0,0.0,0.0,0.0,0.0,0.0,0.0,0.0,0.0,0.0,0.0,0.0,0.0,0.0,0.0,0.0,0.0,0.0,0.0,-1.7074,-1.7582,-1.8384,-1.9386,-1.8183,-1.7221,0.0,0.0,0.0,0.0,0.0,0.0,0.0,0.0,0.0,0.0,0.0,0.0,0.0,0.0,0.0,0.0,0.0,0.0,0.0,0.0,0.0,0.0,0.0,0.0,0.0,0.0,0.0,0.0,0.0,0.0,0.0,0.0,0.0,0.0,0.0,0.0,0.0,0.0,0.0,0.0,0.0,0.0,0.0,0.0,0.0,0.0,0.0,0.0,0.0,0.0,0.0,0.0,0.0,0.0,0.0,0.0,0.0,0.0,0.0,0.0,0.0,0.0,0.0,0.0,0.0,0.0,0.0,0.0,0.0,0.0,0.0,0.0,0.0,0.0,0.0,0.0,0.0,0.0,0.0,0.0,0.0,0.0,0.0,0.0,0.0,0.0,0.0,0.0,0.0,0.0,0.0,0.0,0.0,0.0,0.0,0.0,0.0,0.0,0.0,0.0,0.0,0.0,0.0,0.0,0.0,0.0,0.0,0.0,0.0,-1.67,0.0,-1.8985,0.0,-1.8076,-1.6991,0.0,0.0,0.0,0.0,0.0,0.0,0.0,0.0,0.0,0.0,0.0,0.0,0.0,0.0,0.0,0.0,0.0,0.0,0.0,0.0,0.0,0.0,0.0,0.0,0.0,0.0,0.0,0.0,0.0,0.0,0.0,0.0,0.0,0.0,0.0,0.0,0.0,0.0,0.0,0.0,0.0,0.0,0.0,0.0,0.0,0.0,0.0,0.0,0.0,0.0,0.0,0.0,0.0,0.0,0.0,0.0,0.0,0.0,0.0,0.0,0.0,0.0,0.0,0.0,0.0,0.0,0.0,0.0,0.0,0.0,0.0,0.0,0.0,0.0,0.0,0.0,0.0,0.0,0.0,0.0,0.0,0.0,0.0,0.0,0.0,0.0,0.0,0.0,0.0,0.0,0.0,0.0,0.0,0.0,0.0,0.0,0.0,0.0,0.0,0.0,0.0,0.0,0.0,0.0,0.0,0.0,0.0,0.0,-1.642,-1.837,-1.9533,-1.9674,-1.8958,-1.805,-1.65,0.0,0.0,0.0,0.0,0.0,0.0,0.0,0.0,0.0,0.0,0.0,0.0,0.0,0.0,0.0,0.0,0.0,0.0,0.0,0.0,0.0,0.0,0.0,0.0,0.0,0.0,0.0,0.0,0.0,0.0,0.0,0.0,0.0,0.0,0.0,0.0,0.0,0.0,0.0,0.0,0.0,0.0,0.0,0.0,0.0,0.0,0.0,0.0,0.0,0.0,0.0,0.0,0.0,0.0,0.0,0.0,0.0,0.0,0.0,0.0,0.0,0.0,0.0,0.0,0.0,0.0,0.0,0.0,0.0,0.0,0.0,0.0,0.0,0.0,0.0,0.0,0.0,0.0,0.0,0.0,0.0,0.0,0.0,0.0,0.0,0.0,0.0,0.0,0.0,0.0,0.0,0.0,0.0,0.0,0.0,0.0,0.0,0.0,0.0,0.0,0.0,0.0,0.0,0.0,0.0,0.0,0.0,0.0,0.0,-1.7621,-1.8718,-1.9492,-1.9746,-1.7969,-1.682,0.0,0.0,0.0,0.0,0.0,0.0,0.0,0.0,0.0,0.0,0.0,0.0,0.0,0.0,0.0,0.0,0.0,0.0,0.0,0.0,0.0,0.0,0.0,0.0,0.0,0.0,0.0,0.0,0.0,0.0,0.0,0.0,0.0,0.0,0.0,0.0,0.0,0.0,0.0,0.0,0.0,0.0,0.0,0.0,0.0,0.0,0.0,0.0,0.0,0.0,0.0,0.0,0.0,0.0,0.0,0.0,0.0,0.0,0.0,0.0,0.0,0.0,0.0,0.0,0.0,0.0,0.0,0.0,0.0,0.0,0.0,0.0,0.0,0.0,0.0,0.0,0.0,0.0,0.0,0.0,0.0,0.0,0.0,0.0,0.0,0.0,0.0,0.0,0.0,0.0,0.0,0.0,0.0,0.0,0.0,0.0,0.0,0.0,0.0,0.0,0.0,0.0,0.0,0.0,0.0,0.0,0.0,0.0,0.0,-1.833,-1.9345,-2.0,-2.0227,-1.837,-1.7221,-1.6887,0.0,0.0,0.0,0.0,0.0,0.0,0.0,0.0,0.0,0.0,0.0,0.0,0.0,0.0,0.0,0.0,0.0,0.0,0.0,0.0,0.0,0.0,0.0,0.0,0.0,0.0,0.0,0.0,0.0,0.0,0.0,0.0,0.0,0.0,0.0,0.0,0.0,0.0,0.0,0.0,0.0,0.0,0.0,0.0,0.0,0.0,0.0,0.0,0.0,0.0,0.0,0.0,0.0,0.0,0.0,0.0,0.0,0.0,0.0,0.0,0.0,0.0,0.0,0.0,0.0,0.0,0.0,0.0,0.0,0.0,0.0,0.0,0.0,0.0,0.0,0.0,0.0,0.0,0.0,0.0,0.0,0.0,0.0,0.0,0.0,0.0,0.0,0.0,0.0,0.0,0.0,0.0,0.0,0.0,0.0,0.0,0.0,0.0,0.0,0.0,0.0,0.0,0.0,0.0,0.0,0.0,0.0,0.0,-2.018,-2.1136,-2.1203,-2.0326,-1.9145,-1.7689,0.0,0.0,0.0,0.0,0.0,0.0,0.0,0.0,0.0,0.0,0.0,0.0,0.0,0.0,0.0,0.0,0.0,0.0,0.0,0.0,0.0,0.0,0.0,0.0,0.0,0.0,0.0,0.0,0.0,0.0,0.0,0.0,0.0,0.0,0.0,0.0,0.0,0.0,0.0,0.0,0.0,0.0,0.0,0.0,0.0,0.0,0.0,0.0,0.0,0.0,0.0,0.0,0.0,0.0,0.0,0.0,0.0,0.0,0.0,0.0,0.0,0.0,0.0,0.0,0.0,0.0,0.0,0.0,0.0,0.0,0.0,0.0,0.0,0.0,0.0,0.0,0.0,0.0,0.0,0.0,0.0,0.0,0.0,0.0,0.0,0.0,0.0,0.0,0.0,0.0,0.0,0.0,0.0,0.0,0.0,0.0,0.0,0.0,0.0,0.0,0.0,0.0,0.0,0.0,0.0,0.0,0.0,0.0,0.0,-2.0535,-2.163,-2.2084,-2.1804,-1.9666,-1.8156,0.0,0.0,0.0,0.0,0.0,0.0,0.0,0.0,0.0,0.0,0.0,0.0,0.0,0.0,0.0,0.0,0.0,0.0,0.0,0.0,0.0,0.0,0.0,0.0,0.0,0.0,0.0,0.0,0.0,0.0,0.0,0.0,0.0,0.0,0.0,0.0,0.0,0.0,0.0,0.0,0.0,0.0,0.0,0.0,0.0,0.0,0.0,0.0,0.0,0.0,0.0,0.0,0.0,0.0,0.0,0.0,0.0,0.0,0.0,0.0,0.0,0.0,0.0,0.0,0.0,0.0,0.0,0.0,0.0,0.0,0.0,0.0,0.0,0.0,0.0,0.0,0.0,0.0,0.0,0.0,0.0,0.0,0.0,0.0,0.0,0.0,0.0,0.0,0.0,0.0,0.0,0.0,0.0,0.0,0.0,0.0,0.0,0.0,0.0,0.0,0.0,0.0,0.0,0.0,0.0,0.0,0.0,0.0,-1.9987,-2.139,-2.2191,-2.2659,-2.2792,-2.0722,-1.9092,0.0,0.0,0.0,0.0,0.0,0.0,0.0,0.0,0.0,0.0,0.0,0.0,0.0,0.0,0.0,0.0,0.0,0.0,0.0,0.0,0.0,0.0,0.0,0.0,0.0,0.0,0.0,0.0,0.0,0.0,0.0,0.0,0.0,0.0,0.0,0.0,0.0,0.0,0.0,0.0,0.0,0.0,0.0,0.0,0.0,0.0,0.0,0.0,0.0,0.0,0.0,0.0,0.0,0.0,0.0,0.0,0.0,0.0,0.0,0.0,0.0,0.0,0.0,0.0,0.0,0.0,0.0,0.0,0.0,0.0,0.0,0.0,0.0,0.0,0.0,0.0,0.0,0.0,0.0,0.0,0.0,0.0,0.0,0.0,0.0,0.0,0.0,0.0,0.0,0.0,0.0,0.0,0.0,0.0,0.0,0.0,0.0,0.0,0.0,0.0,0.0,0.0,0.0,0.0,0.0,0.0,0.0,0.0,-2.0615,-2.2285,-2.2672,-2.3006,-2.326,-2.183,-2.0094,0.0,0.0,0.0,0.0,0.0,0.0,0.0,0.0,0.0,0.0,0.0,0.0,0.0,0.0,0.0,0.0,0.0,0.0,0.0,0.0,0.0,0.0,0.0,0.0,0.0,0.0,0.0,0.0,0.0,0.0,0.0,0.0,0.0,0.0,0.0,0.0,0.0,0.0,0.0,0.0,0.0,0.0,0.0,0.0,0.0,0.0,0.0,0.0,0.0,0.0,0.0,0.0,0.0,0.0,0.0,0.0,0.0,0.0,0.0,0.0,0.0,0.0,0.0,0.0,0.0,0.0,0.0,0.0,0.0,0.0,0.0,0.0,0.0,0.0,0.0,0.0,0.0,0.0,0.0,0.0,0.0,0.0,0.0,0.0,0.0,0.0,0.0,0.0,0.0,0.0,0.0,0.0,0.0,0.0,0.0,0.0,0.0,0.0,0.0,0.0,0.0,0.0,0.0,0.0,0.0,0.0,0.0,0.0,-2.0428,-2.171,-2.2472,-2.3006,-2.3313,-2.143,-1.9786,0.0,0.0,0.0,0.0,0.0,0.0,0.0,0.0,0.0,0.0,0.0,0.0,0.0,0.0,0.0,0.0,0.0,0.0,0.0,0.0,0.0,0.0,0.0,0.0,0.0,0.0,0.0,0.0,0.0,0.0,0.0,0.0,0.0,0.0,0.0,0.0,0.0,0.0,0.0,0.0,0.0,0.0,0.0,0.0,0.0,0.0,0.0,0.0,-1.661,0.0,0.0,0.0,0.0,0.0,0.0,0.0,0.0,0.0,0.0,0.0,0.0,0.0,0.0,0.0,0.0,0.0,0.0,0.0,0.0,0.0,0.0,0.0,0.0,0.0,0.0,0.0,0.0,0.0,0.0,0.0,0.0,0.0,0.0,0.0,0.0,0.0,0.0,0.0,0.0,0.0,0.0,0.0,0.0,0.0,0.0,0.0,0.0,0.0,0.0,0.0,0.0,0.0,0.0,0.0,0.0,0.0,0.0,0.0,-2.0788,-2.1924,-2.2552,-2.2939,-2.3033,-2.151,-2.0094,0.0,0.0,0.0,0.0,0.0,0.0,0.0,0.0,0.0,0.0,0.0,0.0,0.0,0.0,0.0,0.0,0.0,0.0,0.0,0.0,0.0,0.0,0.0,0.0,0.0,0.0,0.0,0.0,0.0,0.0,0.0,0.0,0.0,0.0,0.0,0.0,0.0,0.0,0.0,0.0,0.0,0.0,0.0,0.0,0.0,0.0,0.0,0.0,0.0,0.0,0.0,0.0,0.0,0.0,0.0,0.0,0.0,0.0,0.0,0.0,0.0,0.0,0.0,0.0,0.0,0.0,0.0,0.0,0.0,0.0,0.0,0.0,0.0,0.0,0.0,0.0,0.0,0.0,0.0,0.0,0.0,0.0,0.0,0.0,0.0,0.0,0.0,0.0,0.0,0.0,0.0,0.0,0.0,0.0,0.0,0.0,0.0,0.0,0.0,0.0,0.0,0.0,0.0,0.0,0.0,0.0,0.0,-1.9591,-2.1082,-2.2298,-2.2686,-2.2914,-2.2779,-2.1697,-2.0521,-1.9323,0.0,0.0,0.0,0.0,0.0,0.0,0.0,0.0,0.0,0.0,0.0,0.0,0.0,0.0,0.0,0.0,0.0,0.0,0.0,0.0,0.0,0.0,0.0,0.0,0.0,0.0,0.0,0.0,0.0,0.0,0.0,0.0,0.0,0.0,0.0,0.0,0.0,0.0,-1.9883,-2.095,0.0,0.0,0.0,0.0,0.0,0.0,0.0,0.0,-1.976,0.0,0.0,0.0,0.0,0.0,0.0,0.0,0.0,0.0,0.0,0.0,0.0,0.0,0.0,0.0,0.0,0.0,0.0,0.0,0.0,0.0,0.0,0.0,0.0,0.0,0.0,0.0,0.0,0.0,0.0,0.0,0.0,0.0,0.0,0.0,0.0,0.0,0.0,0.0,0.0,0.0,0.0,0.0,0.0,0.0,0.0,0.0,0.0,0.0,0.0,0.0,0.0,0.0,0.0,0.0,0.0,-1.8303,-1.9158,-2.0388,-2.2017,-2.2579,-2.2739,-2.2485,-2.159,-2.0334,-1.8691,0.0,0.0,0.0,0.0,0.0,0.0,0.0,0.0,0.0,0.0,0.0,0.0,0.0,0.0,0.0,0.0,0.0,0.0,0.0,0.0,0.0,0.0,0.0,0.0,0.0,0.0,0.0,0.0,0.0,0.0,0.0,0.0,0.0,0.0,0.0,0.0,0.0,0.0,0.0,-2.2999,-2.3062,0.0,0.0,0.0,0.0,0.0,0.0,0.0,0.0,-2.1844,0.0,0.0,0.0,0.0,0.0,0.0,0.0,0.0,0.0,0.0,0.0,0.0,0.0,0.0,0.0,0.0,0.0,0.0,0.0,0.0,0.0,0.0,0.0,0.0,0.0,0.0,0.0,0.0,0.0,0.0,0.0,0.0,0.0,0.0,0.0,0.0,0.0,0.0,0.0,0.0,0.0,0.0,0.0,0.0,0.0,0.0,0.0,0.0,0.0,0.0,0.0,0.0,0.0,0.0,0.0,-1.7983,-1.9506,-2.0828,-2.1951,-2.2405,-2.2485,-2.2178,-2.1056,-1.9666,0.0,0.0,0.0,0.0,0.0,0.0,0.0,0.0,0.0,0.0,0.0,0.0,0.0,0.0,0.0,0.0,0.0,0.0,0.0,0.0,0.0,0.0,0.0,0.0,0.0,0.0,0.0,0.0,0.0,0.0,0.0,0.0,0.0,0.0,0.0,0.0,0.0,0.0,0.0,0.0,-2.4326,-2.4722,-2.5256,0.0,0.0,0.0,0.0,0.0,0.0,-2.3426,-2.3164,0.0,0.0,0.0,0.0,0.0,0.0,0.0,0.0,0.0,0.0,0.0,0.0,0.0,0.0,0.0,0.0,0.0,0.0,0.0,0.0,0.0,0.0,0.0,0.0,0.0,0.0,0.0,0.0,0.0,0.0,0.0,0.0,0.0,0.0,0.0,0.0,0.0,0.0,0.0,0.0,0.0,0.0,0.0,0.0,0.0,0.0,0.0,0.0,0.0,0.0,0.0,0.0,0.0,0.0,0.0,-1.7595,-1.9679,-2.1136,-2.1871,-2.2178,-2.2164,-2.1804,-2.0615,-1.9172,0.0,0.0,0.0,0.0,0.0,0.0,0.0,0.0,0.0,0.0,0.0,0.0,0.0,0.0,0.0,0.0,0.0,0.0,0.0,0.0,0.0,0.0,0.0,0.0,0.0,0.0,0.0,0.0,0.0,0.0,0.0,0.0,0.0,0.0,0.0,0.0,0.0,0.0,0.0,0.0,0.0,-2.6367,-2.6699,-2.625,0.0,0.0,0.0,0.0,-2.5352,-2.5067,0.0,0.0,0.0,0.0,0.0,0.0,0.0,0.0,0.0,0.0,0.0,0.0,0.0,0.0,0.0,0.0,0.0,0.0,0.0,0.0,0.0,0.0,0.0,0.0,0.0,0.0,0.0,0.0,0.0,0.0,0.0,0.0,0.0,0.0,0.0,0.0,0.0,0.0,0.0,0.0,0.0,0.0,0.0,0.0,0.0,0.0,0.0,0.0,0.0,0.0,0.0,0.0,0.0,0.0,0.0,0.0,-1.7542,-1.8891,-2.0288,-2.1601,-2.1884,-2.1764,-2.1229,-2.0788,-1.9386,0.0,0.0,0.0,0.0,0.0,0.0,0.0,0.0,0.0,0.0,0.0,0.0,0.0,0.0,0.0,0.0,0.0,0.0,0.0,0.0,0.0,0.0,0.0,0.0,0.0,0.0,0.0,0.0,0.0,0.0,0.0,0.0,0.0,0.0,0.0,0.0,0.0,0.0,0.0,0.0,0.0,-2.748,-2.6025,-2.6133,-2.6269,0.0,0.0,-2.625,-2.6719,-2.7344,0.0,0.0,0.0,0.0,0.0,0.0,0.0,0.0,0.0,0.0,0.0,0.0,0.0,0.0,0.0,0.0,0.0,0.0,0.0,0.0,0.0,0.0,0.0,0.0,0.0,0.0,0.0,0.0,0.0,0.0,0.0,0.0,0.0,0.0,0.0,0.0,0.0,0.0,0.0,0.0,0.0,0.0,0.0,0.0,0.0,0.0,0.0,0.0,0.0,0.0,0.0,0.0,0.0,0.0,0.0,-1.5778,-1.7393,-1.9216,-2.0636,-2.1574,-2.1735,-2.1537,-2.1122,-2.0187,-1.8744,0.0,0.0,0.0,0.0,0.0,0.0,0.0,0.0,0.0,0.0,0.0,0.0,0.0,0.0,0.0,0.0,0.0,0.0,0.0,0.0,0.0,0.0,0.0,0.0,0.0,0.0,0.0,0.0,0.0,0.0,0.0,0.0,0.0,0.0,0.0,0.0,0.0,0.0,0.0,0.0,0.0,0.0,-2.7487,-2.75,0.0,0.0,0.0,-2.7266,-2.7676,0.0,0.0,0.0,0.0,0.0,0.0,0.0,0.0,0.0,0.0,0.0,0.0,0.0,0.0,0.0,0.0,0.0,0.0,0.0,0.0,0.0,0.0,0.0,0.0,0.0,0.0,0.0,0.0,0.0,0.0,0.0,0.0,0.0,0.0,0.0,0.0,0.0,0.0,0.0,0.0,0.0,0.0,0.0,0.0,0.0,0.0,0.0,0.0,0.0,0.0,0.0,0.0,0.0,0.0,0.0,0.0,0.0,-1.7219,-1.9399,-2.0842,-2.1416,-2.144,-2.1253,-2.0882,-1.9693,0.0,0.0,0.0,0.0,0.0,0.0,0.0,0.0,0.0,0.0,0.0,0.0,0.0,0.0,0.0,0.0,0.0,0.0,0.0,0.0,0.0,0.0,0.0,0.0,0.0,0.0,0.0,-1.4561,0.0,0.0,0.0,0.0,0.0,0.0,0.0,0.0,0.0,0.0,0.0,0.0,0.0,0.0,-2.748,-2.832,-2.8535,-2.873,0.0,0.0,-2.8203,-2.8418,-2.8379,-2.7754,0.0,0.0,0.0,0.0,0.0,0.0,0.0,0.0,0.0,0.0,0.0,0.0,0.0,0.0,0.0,0.0,0.0,0.0,0.0,0.0,0.0,0.0,0.0,0.0,0.0,0.0,0.0,0.0,0.0,0.0,0.0,0.0,0.0,0.0,0.0,0.0,0.0,0.0,0.0,0.0,0.0,0.0,0.0,0.0,0.0,0.0,0.0,0.0,0.0,0.0,0.0,0.0,0.0,0.0,0.0,-1.7219,-1.9199,-2.0548,-2.1096,-2.0869,-2.0601,-2.0233,-1.9666,-1.825,0.0,0.0,0.0,0.0,0.0,0.0,0.0,0.0,0.0,0.0,0.0,0.0,0.0,0.0,0.0,0.0,0.0,0.0,0.0,0.0,0.0,0.0,0.0,0.0,0.0,0.0,0.0,0.0,0.0,0.0,0.0,0.0,0.0,0.0,0.0,0.0,0.0,0.0,0.0,0.0,0.0,-2.75,-2.7187,-2.8476,-2.9492,0.0,0.0,-2.9316,-2.8926,-2.9531,-2.918,-2.6738,0.0,0.0,0.0,0.0,0.0,0.0,0.0,0.0,0.0,0.0,0.0,0.0,0.0,0.0,0.0,0.0,0.0,0.0,0.0,0.0,0.0,0.0,0.0,0.0,0.0,0.0,0.0,0.0,0.0,0.0,0.0,0.0,0.0,0.0,0.0,0.0,0.0,0.0,0.0,0.0,0.0,0.0,0.0,0.0,0.0,0.0,0.0,0.0,0.0,0.0,0.0,0.0,0.0,-1.5618,-1.667,-1.8824,-2.016,-2.0548,-2.0468,-2.0267,-1.9973,-1.9573,-1.8343,0.0,0.0,0.0,0.0,0.0,0.0,0.0,0.0,0.0,0.0,0.0,0.0,0.0,0.0,0.0,0.0,0.0,0.0,0.0,0.0,0.0,0.0,0.0,0.0,0.0,0.0,0.0,0.0,-1.6181,-1.6367,-1.6124,0.0,0.0,0.0,0.0,0.0,0.0,0.0,0.0,0.0,0.0,-2.8184,-2.8535,-2.9375,0.0,0.0,-3.0137,-2.9902,-2.9726,-2.9531,-2.8809,-2.7051,-2.6328,0.0,0.0,0.0,0.0,0.0,0.0,0.0,0.0,0.0,0.0,0.0,0.0,0.0,0.0,0.0,0.0,0.0,0.0,0.0,0.0,0.0,0.0,0.0,0.0,0.0,0.0,0.0,0.0,0.0,0.0,0.0,0.0,0.0,0.0,0.0,0.0,0.0,0.0,0.0,0.0,0.0,0.0,0.0,0.0,0.0,0.0,0.0,0.0,0.0,0.0,0.0,0.0,-1.5491,-1.6442,-1.8637,-1.9947,-2.0227,-2.0147,-2.0013,-1.98,-1.9439,-1.8384,0.0,0.0,0.0,0.0,0.0,0.0,0.0,0.0,0.0,0.0,0.0,0.0,0.0,0.0,0.0,0.0,0.0,0.0,0.0,0.0,0.0,0.0,0.0,0.0,0.0,0.0,0.0,0.0,-1.6336,-1.6465,-1.63,0.0,0.0,0.0,0.0,0.0,0.0,0.0,0.0,0.0,0.0,-2.8555,-2.9277,-2.9844,-3.0312,-3.0644,-3.0293,-3.0,-3.0019,-2.9512,-2.8672,-2.7402,0.0,0.0,0.0,0.0,0.0,0.0,0.0,0.0,0.0,0.0,0.0,0.0,0.0,0.0,0.0,0.0,0.0,0.0,0.0,0.0,0.0,0.0,0.0,0.0,0.0,0.0,0.0,0.0,0.0,0.0,0.0,0.0,0.0,0.0,0.0,0.0,0.0,0.0,0.0,0.0,0.0,0.0,0.0,0.0,0.0,0.0,0.0,0.0,0.0,0.0,0.0,0.0,0.0,-1.5584,-1.67,-1.8731,-1.9933,-2.0201,-1.9947,-1.98,-1.9773,-1.9239,-1.8357,-1.7179,0.0,0.0,0.0,0.0,0.0,0.0,0.0,0.0,0.0,0.0,0.0,0.0,0.0,0.0,0.0,0.0,0.0,0.0,0.0,0.0,0.0,0.0,0.0,0.0,0.0,0.0,-1.4751,-1.5586,-1.63,0.0,0.0,0.0,0.0,0.0,0.0,0.0,0.0,0.0,0.0,-2.7207,-2.8457,-2.8887,-2.9668,-3.0215,-3.0234,-2.9883,-2.9609,-2.959,-2.9607,-2.9176,0.0,0.0,0.0,0.0,0.0,0.0,0.0,0.0,0.0,0.0,0.0,0.0,0.0,0.0,0.0,0.0,0.0,0.0,0.0,0.0,0.0,0.0,0.0,0.0,0.0,0.0,0.0,-0.7678,-0.7421,0.0,0.0,0.0,0.0,0.0,0.0,0.0,0.0,0.0,0.0,0.0,-1.2044,-1.404,0.0,0.0,0.0,0.0,0.0,0.0,0.0,0.0,0.0,0.0,0.0,0.0,-1.5631,-1.6473,-1.8464,-1.9559,-1.9653,-1.9559,-1.9506,-1.9519,-1.9319,-1.8384,-1.667,0.0,0.0,0.0,0.0,0.0,0.0,0.0,0.0,0.0,0.0,0.0,0.0,0.0,0.0,0.0,0.0,0.0,0.0,0.0,0.0,0.0,0.0,0.0,0.0,0.0,-1.4725,0.0,0.0,0.0,0.0,0.0,0.0,0.0,0.0,0.0,0.0,0.0,-2.5245,-2.6376,-2.7812,-2.8867,-2.9297,-2.9824,-3.0312,0.0,0.0,0.0,0.0,0.0,0.0,0.0,0.0,0.0,0.0,0.0,0.0,0.0,0.0,-2.582,-2.4102,-2.3418,-2.3184,-2.332,0.0,0.0,0.0,0.0,0.0,0.0,0.0,0.0,0.0,0.0,0.0,0.0,0.0,0.0,0.0,0.0,-0.7862,0.0,0.0,0.0,0.0,0.0,0.0,0.0,0.0,-1.1021,-1.2156,-1.2171,-1.3844,-1.5184,0.0,-1.5925,-1.5463,0.0,0.0,0.0,0.0,0.0,0.0,0.0,0.0,-1.6046,-1.6817,-1.8464,-1.943,-1.943,-1.943,-1.943,-1.943,-1.9265,-1.8424,-1.678,-1.5698,-1.4442,0.0,0.0,0.0,0.0,0.0,0.0,0.0,0.0,0.0,0.0,0.0,0.0,0.0,0.0,0.0,0.0,0.0,0.0,0.0,0.0,0.0,0.0,0.0,-1.5472,0.0,0.0,0.0,0.0,0.0,0.0,0.0,0.0,0.0,-2.3164,-2.4875,-2.6504,-2.7344,-2.8301,-2.9082,-2.9512,0.0,0.0,0.0,0.0,0.0,0.0,0.0,-2.9141,-2.8491,-2.8491,-2.8398,-2.8022,-2.8242,-2.832,-2.7806,0.0,0.0,-2.6074,-2.5527,-2.5371,-2.5508,-2.5644,-2.5752,-2.5566,-2.5898,-2.6113,0.0,0.0,0.0,0.0,0.0,0.0,0.0,0.0,-0.9429,-0.934,0.0,-0.8859,0.0,0.0,0.0,0.0,0.0,0.0,0.0,0.0,-1.179,-1.2817,-1.2829,-1.4207,-1.572,-1.7144,-1.7121,-1.7426,-1.7901,-1.6366,0.0,0.0,0.0,0.0,0.0,0.0,-1.6727,-1.7635,-1.8758,-1.943,-1.943,-1.943,-1.943,-1.9417,-1.9078,-1.849,-1.7622,-1.674,-1.5665,-1.4162,-1.2784,0.0,0.0,0.0,0.0,0.0,0.0,0.0,0.0,0.0,0.0,0.0,0.0,0.0,0.0,0.0,0.0,0.0,0.0,0.0,0.0,-1.4882,0.0,0.0,0.0,0.0,0.0,0.0,0.0,0.0,0.0,0.0,-2.457,-2.5996,-2.7363,-2.8164,0.0,0.0,0.0,0.0,-2.9802,-3.0176,-2.9883,-2.9766,-3.0137,-3.0195,-3.0039,-2.9665,0.0,0.0,-2.8555,-2.8652,-2.8633,-2.7904,-2.8027,-2.8281,-2.8242,-2.7519,-2.7148,-2.7571,-2.7266,-2.7207,-2.7578,-2.7793,-2.8105,-1.1165,0.0,0.0,0.0,0.0,-1.0365,-1.0521,-1.0792,-1.0473,-1.0249,-1.008,-0.9571,0.0,0.0,0.0,0.0,0.0,0.0,-0.9456,-0.9834,-1.1931,-1.2957,-1.3025,-1.3547,-1.5165,-1.7727,-1.6585,-1.7135,-1.9176,-1.8571,-1.7034,-1.4763,0.0,0.0,0.0,0.0,-1.7235,-1.7929,-1.8878,-1.943,-1.943,-1.943,-1.943,-1.9417,-1.8878,-1.8384,-1.7903,-1.73,-1.6268,-1.4834,-1.4108,0.0,0.0,0.0,0.0,0.0,0.0,0.0,0.0,0.0,0.0,0.0,0.0,0.0,0.0,0.0,0.0,0.0,0.0,0.0,-1.3472,-1.5522,-1.699,0.0,0.0,0.0,0.0,0.0,0.0,0.0,0.0,0.0,-2.625,-2.7226,-2.8027,0.0,0.0,-2.9434,-2.9607,-2.9824,-3.0176,-3.0625,0.0,0.0,0.0,-3.0195,-3.0059,-2.9685,-2.9724,-2.9629,-2.9258,-2.9043,-2.875,-2.8203,-2.8223,-2.8301,-2.8281,-2.8105,-2.7969,-2.8066,-2.8008,-2.7969,-2.8086,-2.8223,-2.8301,-1.2054,-1.1402,-1.1111,-1.1043,-1.1118,-1.109,-1.126,-1.1552,-1.1274,-1.1111,-1.0995,-1.0527,-1.0066,-0.9572,-0.9361,0.0,0.0,0.0,-1.0039,-1.0276,-1.1543,-1.2133,-1.2227,-1.2266,-1.3973,-1.7061,-1.6075,-1.7032,-1.996,-1.9679,-1.8464,-1.6482,0.0,0.0,-1.6219,-1.7233,-1.7916,-1.8342,-1.9038,-1.943,-1.943,-1.943,-1.9319,-1.9185,-1.8851,-1.8464,-1.805,-1.7689,-1.6874,-1.5598,-1.4977,-1.3948,0.0,0.0,0.0,0.0,0.0,0.0,0.0,0.0,0.0,0.0,0.0,-1.0555,-1.0394,0.0,0.0,0.0,-1.2727,-1.424,-1.5681,-1.7896,0.0,0.0,0.0,0.0,0.0,0.0,0.0,-2.5284,-2.6445,-2.7246,-2.75,-2.8125,-2.8535,-2.8535,-2.9141,-2.9685,-2.9841,0.0,-3.0371,-3.082,-3.0898,-3.0801,-3.0527,-3.0469,-3.0332,-2.9883,-2.988,-2.9668,-2.9355,-2.9082,-2.8789,-2.8418,-2.8301,-2.8301,-2.8301,-2.8301,-2.8301,-2.8301,-2.8301,-2.8301,-2.8301,-2.8301,-2.8301,-1.2657,-1.2461,-1.1769,-1.1484,-1.1491,-1.1633,-1.1762,-1.1877,-1.187,-1.187,-1.1843,-1.1545,-1.1165,-1.0731,-1.026,0.0,0.0,-1.0629,-1.0826,-1.09,-1.0962,-1.0894,-1.0873,-1.0799,-1.2429,-1.5654,-1.5455,-1.6956,-1.9889,-1.9721,-1.9296,-1.8597,-1.8277,-1.8103,-1.8035,-1.837,-1.8664,-1.8958,-1.9225,-1.943,-1.943,-1.9345,-1.9199,-1.8931,-1.8851,-1.8557,-1.7982,-1.7902,-1.7422,-1.6313,-1.5504,-1.4392,-1.2998,0.0,0.0,0.0,0.0,0.0,0.0,0.0,0.0,0.0,0.0,0.0,0.0,0.0,0.0,0.0,-1.5258,0.0,-1.8696,-2.0972,0.0,0.0,0.0,-2.3452,-2.3984,-2.5117,-2.6103,-2.6973,0.0,0.0,0.0,0.0,-2.8906,-2.8867,-2.9277,-2.9707,-3.0098,-3.0117,-3.0312,-3.0742,-3.0801,-3.0781,-3.0644,-3.0664,-3.0527,-3.0137,-3.0117,-2.9766,-2.9101,-2.8867,-2.8711,-2.8359,-2.8301,-2.8301,-2.8301,-2.8301,-2.8301,-2.8301,-2.8301,-2.8301,-2.8301,-2.8301,-2.8301,-1.2813,-1.2651,-1.2359,-1.2237,-1.2244,-1.2277,-1.2311,-1.2332,-1.223,-1.2182,-1.2149,-1.1742,-1.1375,-1.105,-1.0948,-1.0921,-1.1022,-1.1023,-1.1077,-1.1111,-1.1111,-1.105,-1.088,-1.0847,-1.1947,-1.3849,-1.3861,-1.5465,-1.8479,-1.8275,-1.8624,-1.9434,-1.9185,-1.8824,-1.841,-1.8677,-1.8971,-1.9265,-1.939,-1.943,-1.9417,-1.9145,-1.8998,-1.8861,-1.8263,-1.7836,-1.7689,-1.7261,-1.6794,-1.6335,-1.5645,-1.4937,-1.4135,-1.2759,0.0,0.0,0.0,0.0,0.0,0.0,0.0,0.0,0.0,-1.2398,-1.1455,0.0,-1.308,0.0,-1.5563,-1.7059,-1.708,-1.9981,0.0,0.0,-2.3863,-2.5039,-2.6113,-2.6523,-2.6914,-2.7441,-2.7969,-2.8301,-2.8301,-2.8652,-2.8789,-2.8516,-2.9101,-2.9665,-2.9763,-2.9763,-2.9863,-3.0254,-3.0117,-2.9883,-2.9978,-2.9883,-2.9863,-2.9746,-2.9453,-2.9141,-2.8965,-2.8652,-2.8398,-2.8301,-2.8301,-2.8301,-2.8301,-2.8301,-2.8301,-2.8301,-2.8301,-2.8301,-2.8301,-2.8301,-2.8301,-1.2868,-1.2718,-1.2569,-1.2467,-1.2413,-1.2474,-1.2501,-1.2494,-1.242,-1.2352,-1.2264,-1.1884,-1.1586,-1.1375,-1.1369,-1.1369,-1.1369,-1.1369,-1.1369,-1.1362,-1.1226,-1.1118,-1.1036,-1.0907,-1.1659,-1.3259,-1.3325,-1.453,-1.6765,-1.6684,-1.7245,-1.8513,-1.842,-1.8494,-1.8905,-1.9038,-1.9199,-1.9417,-1.943,-1.943,-1.9417,-1.9078,-1.8741,-1.8475,-1.805,-1.7595,-1.7208,-1.7007,-1.6647,-1.6099,-1.5645,-1.507,-1.4349,-1.3293,-1.2705,0.0,0.0,0.0,0.0,0.0,0.0,0.0,0.0,0.0,0.0,0.0,-1.4212,0.0,-1.6802,0.0,-1.9495,-2.1878,-2.3724,-2.4703,-2.5817,-2.6719,-2.7266,-2.7461,-2.7676,-2.791,-2.8144,-2.8301,-2.8301,-2.8496,-2.8555,-2.832,-2.8691,-2.9062,-2.9258,-2.9434,-2.9648,-2.9863,-2.9783,-2.957,-2.957,-2.957,-2.9492,-2.9297,-2.9082,-2.8867,-2.8672,-2.8457,-2.8301,-2.8301,-2.8301,-2.8301,-2.8301,-2.8301,-2.8301,-2.8301,-2.8301,-2.8301,-2.8301,-2.8301,-2.8301,-1.2868,-1.2718,-1.2569,-1.2427,-1.2325,-1.2447,-1.2481,-1.2447,-1.2447,-1.2372,-1.2244,-1.1979,-1.1782,-1.1647,-1.1626,-1.1619,-1.1619,-1.1619,-1.1619,-1.1599,-1.1321,-1.1179,-1.122,-1.088,-1.1527,-1.2931,-1.2997,-1.3655,-1.4985,-1.4955,-1.5594,-1.6667,-1.668,-1.7513,-1.8997,-1.9068,-1.9185,-1.943,-1.943,-1.943,-1.9417,-1.9038,-1.8624,-1.8075,-1.7902,-1.7463,-1.6754,-1.6914,-1.6723,-1.5824,-1.5591,-1.507,-1.4242,-1.3681,-1.3347,0.0,-1.3039,0.0,0.0,0.0,0.0,0.0,0.0,0.0,0.0,-1.4576,-1.5538,-1.7143,-1.8297,-2.0128,-2.3086,-2.4584,-2.5853,-2.6943,-2.7812,-2.8144,-2.7812,-2.8066,-2.8301,-2.8301,-2.8301,-2.8301,-2.8301,-2.8301,-2.8301,-2.8301,-2.834,-2.8476,-2.8789,-2.9141,-2.9375,-2.9453,-2.9489,-2.9297,-2.9316,-2.9355,-2.9238,-2.8906,-2.8828,-2.8711,-2.8379,-2.8301,-2.8301,-2.8301,-2.8301,-2.8301,-2.8301,-2.8301,-2.8301,-2.8301,-2.8301,-2.8301,-2.8301,-2.8301,-2.8301,-1.2874,-1.2718,-1.2562,-1.2488,-1.2461,-1.2488,-1.2366,-1.2149,-1.2149,-1.2128,-1.2101,-1.204,-1.1932,-1.1782,-1.1674,-1.1619,-1.1619,-1.1619,-1.1619,-1.1613,-1.143,-1.128,-1.1158,-1.0989,-1.0974,-1.1181,-1.1181,-1.1984,-1.3488,-1.3276,-1.3952,-1.5345,-1.5168,-1.5843,-1.7384,0.0,0.0,0.0,-1.943,-1.943,-1.9403,-1.8851,-1.8517,-1.8384,-1.7462,0.0,-1.6714,-1.6526,-1.6246,-1.5858,-1.5778,0.0,0.0,0.0,0.0,0.0,0.0,0.0,0.0,0.0,0.0,0.0,-1.4963,-1.4763,-1.4509,-1.5792,-1.6742,-1.6881,-1.8838,-2.0786,-2.2399,-2.4245,-2.5964,-2.7402,-2.7988,-2.8262,-2.8184,-2.8242,-2.8301,-2.8301,-2.8301,-2.8301,-2.8301,-2.8301,-2.8301,-2.8301,-2.8301,-2.832,-2.8398,-2.8516,-2.8672,-2.8945,-2.8809,-2.8574,-2.8535,-2.8574,-2.8594,-2.8418,-2.8418,-2.8379,-2.832,-2.8301,-2.8301,-2.8301,-2.8301,-2.8301,-2.8301,-2.8301,-2.8301,-2.8301,-2.8301,-2.8301,-2.8301,-2.8301,-2.8301,-1.2874,0.0,-1.2569,-1.2461,0.0,-1.24,-1.2271,-1.2149,-1.2216,-1.2237,-1.2169,-1.2094,-1.1979,-1.1743,-1.1606,-1.1504,-1.1504,-1.143,-1.1436,-1.1497,-1.1274,-1.1172,-1.1158,-1.0934,-1.0799,-1.0724,-1.0717,-1.1054,-1.1716,-1.1568,-1.2258,-1.3616,-1.3463,-1.4242,-1.5784,-1.6609,-1.7806,-1.9359,-1.943,-1.943,-1.9417,-1.8931,-1.8571,-1.8263,0.0,0.0,0.0,0.0,0.0,0.0,0.0,0.0,0.0,0.0,0.0,-1.4705,-1.5003,-1.5097,-1.4977,-1.5351,-1.5658,-1.5818,-1.6099,-1.6072,-1.5631,-1.6687,-1.7667,-1.8339,-1.9226,-2.0848,-2.3525,-2.4309,-2.5523,-2.7651,-2.8164,-2.8301,-2.8301,-2.8301,-2.8301,-2.8301,-2.8301,-2.8301,-2.8301,-2.8301,-2.8301,-2.8301,-2.8301,-2.8301,-2.8301,-2.8301,-2.8398,-2.8574,-2.8457,-2.8301,-2.8301,-2.8301,-2.8301,-2.8301,-2.8301,-2.8301,-2.8301,-2.8301,-2.8301,-2.8301,-2.8301,-2.8301,-2.8301,-2.8301,-2.8301,-2.8301,-2.8301,-2.8301,-2.8301,-2.8301,-2.8301,-1.2854,-1.2678,-1.2556,-1.2433,-1.2325,-1.2325,-1.2257,-1.2155,0.0,0.0,0.0,-1.2115,-1.1979,-1.1809,-1.1552,-1.143,-1.1423,-1.1301,-1.1301,-1.1375,-1.1111,-1.1036,-1.1111,-1.0846,-1.0717,-1.0717,-1.0717,-1.0568,-1.0354,-1.034,-1.0808,-1.1708,-1.1796,-1.2689,-1.4599,-1.6492,-1.804,-1.9301,-1.943,-1.943,-1.9417,-1.9078,-1.8608,-1.8089,-1.7969,-1.7595,-1.682,-1.678,-1.654,-1.5971,-1.5805,-1.5551,-1.5276,-1.5471,-1.5712,-1.5899,-1.6192,-1.6353,-1.6353,-1.662,-1.67,-1.6563,-1.7005,-1.7152,-1.6807,-1.7368,-1.8316,-1.9716,-1.9528,-2.0974,-2.4734,-2.4631,-2.5333,-2.8014,-2.8301,-2.8301,-2.8301,-2.8301,-2.8301,-2.8301,-2.8301,-2.8301,-2.8301,-2.8301,-2.8301,-2.8301,-2.8301,-2.8301,-2.8301,-2.8301,-2.8301,-2.832,-2.832,-2.8301,-2.8301,-2.8301,-2.8301,-2.8301,-2.8301,-2.8301,-2.8301,-2.8301,-2.8301,-2.8301,-2.8301,-2.8301,-2.8301,-2.8301,-2.8301,-2.8301,-2.8301,-2.8301,-2.8301,-2.8301,-2.8301,-1.2793,-1.2535,-1.2508,-1.2494,-1.2474,-1.2474,-1.2461,-1.2433,-1.2352,-1.2237,-1.2169,-1.2149,-1.1979,-1.1823,-1.166,-1.1586,-1.1586,-1.1565,-1.1497,0.0,-1.1212,-1.1077,-1.09,-1.0799,-1.0717,-1.0717,-1.0717,-1.0568,-1.0304,-1.0276,-1.0246,-1.0154,-1.0119,-1.1675,-1.4599,-1.7572,-1.9185,-1.9359,-1.943,-1.943,-1.9417,-1.9078,-1.8771,-1.8424,-1.7929,-1.7475,-1.7152,-1.7139,-1.6991,-1.6607,-1.6831,-1.671,-1.6187,-1.6353,-1.6433,-1.6246,-1.6486,-1.6647,-1.666,-1.6927,-1.7233,-1.7382,-1.7527,-1.7447,-1.7192,-1.7876,-1.8494,-1.8768,-2.0145,-2.1963,-2.3867,-2.5006,-2.6264,-2.8014,-2.8301,-2.8301,-2.8301,-2.8301,-2.8301,-2.8301,-2.8301,-2.8301,-2.8301,-2.8301,-2.8301,-2.8301,-2.8301,-2.8301,-2.8301,-2.8301,-2.8301,-2.8301,-2.8301,-2.8301,-2.8301,-2.8301,-2.8301,-2.8301,-2.8301,-2.8301,-2.8301,-2.8301,-2.8301,-2.8301,-2.8301,-2.8301,-2.8301,-2.8301,-2.8301,-2.8301,-2.8281,-2.8262,-2.8242,-2.8242,-2.8242,-1.2779,-1.2515,-1.2501,-1.2501,-1.2501,-1.2501,-1.2501,-1.2494,-1.2433,-1.2318,-1.2182,-1.2176,-1.1972,-1.1816,-1.1592,-1.1497,-1.1491,-1.1328,-1.126,-1.1246,-1.1029,-1.0934,-1.0867,-1.0792,-1.0717,-1.0717,-1.0636,-1.0487,-1.029,-1.0195,-1.0039,-0.9896,-1.0664,-1.2749,-1.5784,-1.7384,-1.8532,-1.9372,-1.943,-1.943,-1.943,-1.9239,-1.8945,-1.8504,-1.821,-1.7849,-1.746,-1.7286,-1.7139,-1.7005,-1.6914,-1.678,-1.654,-1.6844,-1.6938,-1.6817,-1.7021,-1.7181,-1.7181,-1.7301,-1.7435,-1.7569,-1.7742,-1.7782,-1.7649,-1.8156,-1.8557,-1.8718,-1.979,-2.1373,-2.3543,-2.4433,-2.5772,-2.8067,-2.8301,-2.8301,-2.8301,-2.8301,-2.8301,-2.8301,-2.8301,-2.8301,-2.8301,-2.8301,-2.8301,-2.8301,-2.8301,-2.8301,-2.8301,-2.8301,-2.8301,-2.8301,-2.8301,-2.8301,-2.8301,-2.8301,-2.8301,-2.8301,-2.8301,-2.8301,-2.8301,-2.8301,-2.8301,-2.8301,-2.8301,-2.8301,-2.8301,-2.8301,-2.8301,-2.8281,-2.8086,-2.7988,-2.8002,-2.7773,-2.7695,-1.2779,-1.2501,-1.2501,-1.2501,-1.2501,-1.2501,-1.2501,-1.2501,-1.2501,-1.24,-1.2237,-1.2115,-1.1959,-1.1769,-1.1538,-1.1443,-1.1409,-1.1165,-1.109,-1.1131,-1.0894,-1.0752,-1.088,-1.0772,-1.0717,-1.0697,-1.0568,-1.0419,-1.0276,-1.0127,-0.9909,-1.0018,-1.1736,-1.4004,-1.6433,-1.7208,-1.8169,-1.9301,-1.943,-1.943,-1.943,-1.943,-1.9092,-1.8544,-1.849,-1.821,-1.7622,-1.742,-1.73,-1.7286,-1.7034,-1.6901,-1.6914,-1.7166,-1.73,-1.7313,-1.7514,-1.7582,-1.7582,-1.7582,-1.7609,-1.7675,-1.7849,-1.8049,-1.8195,-1.845,-1.8677,-1.8918,-1.9573,-2.1045,-2.3319,-2.4211,-2.5388,-2.7906,-2.8301,-2.8301,-2.8301,-2.8301,-2.8301,-2.8301,-2.8301,-2.8301,-2.8301,-2.8301,-2.8301,-2.8301,-2.8301,-2.8301,-2.8301,-2.8301,-2.8301,-2.8301,-2.8301,-2.8301,-2.8301,-2.8301,-2.8301,-2.8301,-2.8301,-2.8301,-2.8301,-2.8301,-2.8301,-2.8301,-2.8301,-2.8301,-2.8301,-2.8301,-2.8242,-2.8144,-2.7891,-2.7708,-2.7519,-2.7305,-2.7129,-1.2779,-1.2522,-1.2501,-1.2501,-1.2501,-1.2501,-1.2501,-1.2501,-1.2501,-1.2338,-1.2094,-1.2142,-1.1904,-1.166,-1.1606,-1.1592,-1.1579,-1.1423,-1.1274,-1.1151,-1.1002,-1.0793,-1.0751,-1.0724,-1.0717,-1.0704,-1.0561,-1.0412,-1.0276,-1.012,-0.9903,-1.02,-1.2868,-1.448,-1.5133,-1.7689,-1.9243,-1.943,-1.943,-1.943,-1.943,-1.943,-1.9149,-1.8517,-1.849,-1.821,-1.7661,-1.7555,-1.7542,-1.7542,-1.7502,-1.7502,-1.7488,-1.7528,-1.7542,-1.7542,-1.7569,-1.7582,-1.7582,-1.7582,-1.7702,-1.7943,-1.7982,-1.8235,-1.8701,-1.8865,-1.8891,-1.9155,-2.0416,-2.1854,-2.3654,-2.4931,-2.6264,-2.778,-2.8228,-2.8301,-2.8301,-2.8301,-2.8301,-2.8301,-2.8301,-2.8301,-2.8301,-2.8301,-2.8301,-2.8301,-2.8301,-2.8301,-2.8301,-2.8301,-2.8301,-2.8301,-2.8301,-2.8301,-2.8301,-2.8301,-2.8301,-2.8301,-2.8301,-2.8301,-2.8301,-2.8301,-2.8301,-2.8301,-2.8301,-2.8301,-2.8242,-2.8281,-2.8125,-2.7793,-2.7669,-2.75,-2.7187,-2.6973,-2.6953,-1.2779,-1.2508,-1.2501,-1.2501,-1.2501,-1.2501,-1.2501,-1.2501,-1.2501,-1.2338,-1.2081,-1.206,-1.1898,-1.1619,-1.1619,-1.1619,-1.1599,-1.1369,-1.1226,-1.1145,-1.0921,-1.0712,-1.0724,-1.0717,-1.0717,-1.0697,-1.048,-1.0337,-1.0249,-1.0032,-1.0304,-1.1322,-1.3526,-1.5074,-1.6079,-1.8286,-1.943,-1.943,-1.943,-1.943,-1.943,-1.943,-1.9092,-1.8571,-1.849,-1.821,-1.7662,-1.7582,-1.7582,-1.7582,-1.7582,-1.7582,-1.7582,-1.7582,-1.7582,-1.7582,-1.7582,-1.7582,-1.7582,-1.7756,-1.7849,-1.7982,-1.8315,-1.8621,-1.8835,-1.9078,-1.9185,-1.9314,-1.9899,-2.0931,-2.2363,-2.3877,-2.5316,-2.6771,-2.7726,-2.8301,-2.8301,-2.8301,-2.8301,-2.8301,-2.8301,-2.8301,-2.8301,-2.8301,-2.8301,-2.8301,-2.8301,-2.8301,-2.8301,-2.8301,-2.8301,-2.8301,-2.8301,-2.8301,-2.8301,-2.8301,-2.8301,-2.8301,-2.8301,-2.8301,-2.8301,-2.8301,-2.8301,-2.8301,-2.8262,-2.8144,-2.793,-2.791,-2.7793,-2.7422,-2.7012,-2.6777,-2.6298,-2.622,-2.62,-1.2745,-1.2522,-1.2501,-1.2501,-1.2501,-1.2501,-1.2501,-1.2501,-1.2501,-1.2338,-1.2074,-1.206,-1.1898,-1.1647,-1.1619,-1.1619,-1.1579,-1.1301,-1.1234,-1.1124,-1.086,-1.0717,-1.0717,-1.0717,-1.0717,-1.067,-1.0419,-1.0236,-1.0148,-0.9944,-1.0422,-1.1675,-1.3586,-1.5192,-1.6433,-1.8298,-1.943,-1.943,-1.943,-1.943,-1.943,-1.943,-1.9118,-1.8664,-1.8531,-1.8237,-1.7742,-1.7622,-1.7582,-1.7582,-1.7582,-1.7582,-1.7582,-1.7582,-1.7582,-1.7582,-1.7582,-1.7622,-1.7702,-1.7862,-1.8062,-1.8249,-1.8648,-1.8958,-1.9065,-1.9252,-1.9417,-1.9417,-1.943,-2.0026,-2.1472,-2.2927,-2.4433,-2.5936,-2.7384,-2.8301,-2.8301,-2.8301,-2.8301,-2.8301,-2.8301,-2.8301,-2.8301,-2.8301,-2.8301,-2.8301,-2.8301,-2.8301,-2.8301,-2.8301,-2.8301,-2.8301,-2.8301,-2.8301,-2.8301,-2.8301,-2.8301,-2.8301,-2.8301,-2.8301,-2.8301,-2.8301,-2.8301,-2.8281,-2.8223,-2.8047,-2.7793,-2.7656,-2.7344,-2.6934,-2.6523,-2.6191,-2.5869,-2.5732,-2.5713,-1.2651,-1.2508,-1.2501,-1.2501,-1.2501,-1.2501,-1.2501,-1.2501,-1.2501,-1.2338,-1.2081,-1.206,-1.1898,-1.1626,-1.1619,-1.1619,-1.1579,-1.1301,-1.1234,-1.1131,-1.0853,-1.0717,-1.0717,-1.0717,-1.0717,-1.0697,-1.0426,-1.0134,-0.9876,-0.9836,-0.9822,-1.0119,-1.2988,-1.4599,-1.5192,-1.7818,-1.9359,-1.9359,-1.943,-1.943,-1.943,-1.943,-1.9225,-1.8918,-1.8637,-1.8343,-1.7969,-1.7729,-1.7582,-1.7582,-1.7582,-1.7582,-1.7582,-1.7582,-1.7582,-1.7582,-1.7595,-1.7716,-1.7902,-1.8009,-1.8235,-1.8758,-1.8905,-1.9052,-1.9336,-1.9403,-1.9417,-1.943,-1.943,-2.004,-2.1316,-2.2645,-2.4211,-2.5754,-2.733,-2.8067,-2.8301,-2.8301,-2.8301,-2.8301,-2.8301,-2.8301,-2.8301,-2.8301,-2.8301,-2.8301,-2.8301,-2.8301,-2.8301,-2.8301,-2.8301,-2.8301,-2.8301,-2.8301,-2.8301,-2.8301,-2.8301,-2.8301,-2.8301,-2.8281,-2.8301,-2.8301,-2.8281,-2.8184,-2.7891,-2.7695,-2.7598,-2.7324,-2.6875,-2.6484,-2.6083,-2.5771,-2.5713,-2.5693,-2.5674,-1.2644,-1.2501,-1.2501,-1.2501,-1.2501,-1.2501,-1.2501,-1.2501,-1.2501,-1.2338,-1.2094,-1.206,-1.1898,-1.1619,-1.1619,-1.1619,-1.1586,-1.1301,-1.1234,-1.1131,-1.086,-1.0717,-1.0717,-1.0717,-1.0717,-1.0677,-1.0419,-1.012,-0.9849,-0.9822,-0.9822,-1.0119,-1.1976,-1.3526,-1.4777,-1.6738,-1.8344,-1.9301,-1.943,-1.943,-1.943,-1.943,-1.9305,-1.9199,-1.8744,-1.8343,-1.7995,-1.7742,-1.7582,-1.7582,-1.7582,-1.7582,-1.7582,-1.7582,-1.7582,-1.7609,-1.7769,-1.7876,-1.8022,-1.8342,-1.8691,-1.8905,-1.9105,-1.9239,-1.9345,-1.943,-1.943,-1.943,-1.943,-1.9764,-2.0256,-2.1529,-2.2983,-2.4488,-2.5991,-2.7276,-2.8067,-2.8301,-2.8301,-2.8301,-2.8301,-2.8301,-2.8301,-2.8301,-2.8301,-2.8301,-2.8301,-2.8301,-2.8301,-2.8301,-2.8301,-2.8281,-2.8301,-2.8301,-2.8301,-2.8301,-2.8301,-2.8301,-2.8301,-2.8262,-2.8242,-2.7969,-2.7871,-2.7793,-2.7519,-2.7148,-2.7012,-2.6641,-2.625,-2.6064,-2.5732,-2.5713,-2.5693,-2.5674,-2.5674,-1.2596,-1.2508,-1.2501,-1.2501,-1.2501,-1.2501,-1.2501,-1.2494,-1.2454,-1.2291,-1.2088,-1.2013,-1.185,-1.1647,-1.1619,-1.1619,-1.1586,-1.1301,-1.1234,-1.1131,-1.0853,-1.0717,-1.0717,-1.0717,-1.0717,-1.0677,-1.0419,-1.0127,-0.9856,-0.9822,-0.9822,-0.9876,-1.1442,-1.2689,-1.4004,-1.5902,-1.7618,-1.8519,-1.9127,-1.943,-1.943,-1.943,-1.943,-1.935,-1.8891,-1.8544,-1.8262,-1.7943,-1.7742,-1.7716,-1.7635,-1.7582,-1.7582,-1.7582,-1.7622,-1.7742,-1.7876,-1.8089,-1.8288,-1.8648,-1.8958,-1.9065,-1.9239,-1.943,-1.943,-1.943,-1.943,-1.943,-1.943,-1.943,-1.9591,-2.0314,-2.1487,-2.2927,-2.4433,-2.5936,-2.7349,-2.7565,-2.778,-2.8174,-2.8301,-2.8301,-2.8301,-2.8301,-2.8301,-2.8301,-2.8301,-2.8301,-2.8301,-2.8301,-2.8223,-2.8125,-2.8066,-2.7969,-2.7832,-2.7715,-2.7891,-2.793,-2.7832,-2.791,-2.791,-2.7637,-2.7513,-2.7383,-2.7109,-2.668,-2.6309,-2.5908,-2.5752,-2.5693,-2.5693,-2.5693,-2.5674,-2.5674,-2.5654,-1.2508,-1.2501,-1.2501,-1.2501,-1.2501,-1.2501,-1.2501,-1.2467,-1.2359,-1.221,-1.2026,-1.1904,-1.1769,-1.164,-1.1619,-1.1619,-1.1565,-1.1301,-1.1234,-1.1131,-1.086,-1.0717,-1.0717,-1.0717,-1.069,-1.0663,-1.0412,-1.012,-0.9775,-0.9822,-0.9822,-1.0058,-1.1201,-1.2097,-1.2277,-1.5182,-1.6915,-1.7443,-1.8648,-1.9372,-1.943,-1.943,-1.943,-1.9403,-1.9078,-1.8918,-1.8891,-1.8275,-1.7955,-1.7929,-1.7742,-1.7595,-1.7582,-1.7582,-1.7702,-1.7902,-1.7995,-1.8288,-1.8741,-1.8918,-1.9092,-1.9265,-1.9359,-1.943,-1.943,-1.943,-1.943,-1.943,-1.943,-1.943,-1.943,-1.9533,-2.0199,-2.1472,-2.3039,-2.4433,-2.5663,-2.6155,-2.6662,-2.778,-2.8174,-2.8301,-2.8301,-2.8301,-2.8301,-2.8301,-2.8301,-2.8262,-2.8203,-2.8184,-2.8066,-2.7826,-2.7656,-2.7578,-2.7285,-2.7051,-2.7285,-2.7461,-2.7305,-2.7266,-2.7305,-2.7148,-2.7051,-2.6953,-2.666,-2.625,-2.6074,-2.5732,-2.5732,-2.5674,-2.5674,-2.5674,-2.5674,-2.5674,-2.5615,-1.2501,-1.2501,-1.2501,-1.2501,-1.2501,-1.2501,-1.2454,-1.2359,-1.2305,-1.2149,-1.1925,-1.185,-1.1748,-1.164,-1.1619,-1.1619,-1.1592,-1.1314,-1.1234,-1.1111,-1.0853,-1.0717,-1.0717,-1.0717,-1.0616,-1.0432,-1.0331,-1.012,-0.9876,-0.9822,-0.9822,-0.9937,-1.0301,-1.114,-1.2217,-1.4302,-1.5784,-1.7091,-1.859,-1.943,-1.943,-1.943,-1.943,-1.9417,-1.9279,-1.9225,-1.9199,-1.8464,-1.8009,-1.7995,-1.7756,-1.7582,-1.7582,-1.7582,-1.7729,-1.7969,-1.825,-1.8504,-1.8878,-1.9118,-1.9252,-1.9403,-1.943,-1.943,-1.943,-1.943,-1.943,-1.943,-1.943,-1.943,-1.943,-1.943,-2.004,-2.1415,-2.204,-2.287,-2.4322,-2.5443,-2.6209,-2.6771,-2.7672,-2.8247,-2.8301,-2.8301,-2.8174,-2.8301,-2.8301,-2.8223,-2.7969,-2.793,-2.7695,-2.7305,-2.7246,-2.7148,-2.6894,-2.666,-2.6699,-2.6875,-2.6816,-2.6738,-2.6758,-2.6719,-2.6621,-2.6484,-2.6191,-2.5996,-2.5752,-2.5674,-2.5674,-2.5674,-2.5674,-2.5674,-2.5674,-2.5654,-2.5615,-1.2501,-1.2501,-1.2501,-1.2501,-1.2501,-1.2501,-1.242,-1.2291,-1.223,-1.206,-1.1857,-1.1775,-1.1701,-1.1633,-1.1619,-1.1619,-1.1586,-1.1301,-1.1234,-1.1118,-1.086,-1.0724,-1.0717,-1.0717,-1.0602,-1.0385,-1.031,-1.0154,-0.9849,-0.9849,-0.9822,-0.9822,-0.9822,-1.024,-1.1382,-1.2928,-1.454,-1.6079,-1.763,-1.8823,-1.9243,-1.943,-1.943,-1.943,-1.943,-1.943,-1.9319,-1.8704,-1.8262,-1.8156,-1.7822,-1.7595,-1.7595,-1.7702,-1.7889,-1.8196,-1.849,-1.8784,-1.9065,-1.9252,-1.943,-1.943,-1.943,-1.943,-1.943,-1.943,-1.943,-1.943,-1.943,-1.943,-1.943,-1.943,-1.9866,-2.0644,-2.0759,-2.143,-2.2814,-2.4322,-2.5498,-2.5991,-2.6391,-2.7114,-2.796,-2.7672,-2.7833,-2.8067,-2.8301,-2.8242,-2.793,-2.7826,-2.7441,-2.709,-2.6894,-2.6738,-2.6473,-2.6278,-2.6152,-2.625,-2.6309,-2.6309,-2.6278,-2.623,-2.6133,-2.6113,-2.5918,-2.5879,-2.5674,-2.5674,-2.5674,-2.5674,-2.5674,-2.5674,-2.5674,-2.5674,-2.5635,-1.2501,-1.2501,-1.2501,-1.2501,-1.2501,-1.2501,-1.2406,-1.2257,-1.2135,-1.1972,-1.1809,-1.1687,-1.1626,-1.1619,-1.1619,-1.1613,-1.1552,-1.1301,-1.1145,-1.1063,-1.086,-1.0717,-1.0717,-1.0717,-1.0629,-1.0473,-1.0358,-1.0209,-0.9963,-0.9849,-0.9829,-0.9822,-0.9822,-0.9822,-1.0361,-1.1503,-1.3108,-1.448,-1.6197,-1.7864,-1.9068,-1.9372,-1.943,-1.943,-1.943,-1.943,-1.9377,-1.9025,-1.8731,-1.845,-1.7969,-1.7729,-1.7716,-1.7916,-1.821,-1.849,-1.8784,-1.9025,-1.9279,-1.9403,-1.943,-1.943,-1.943,-1.943,-1.943,-1.943,-1.943,-1.943,-1.943,-1.943,-1.943,-1.943,-1.9461,-1.939,-1.9622,-2.0256,-2.1358,-2.2758,-2.4011,-2.4989,-2.4731,-2.4748,-2.722,-2.6553,-2.6717,-2.733,-2.7726,-2.7829,-2.7665,-2.7303,-2.7331,-2.6992,-2.6434,-2.6298,-2.6083,-2.6044,-2.5937,-2.5977,-2.5966,-2.5966,-2.5966,-2.5869,-2.5859,-2.582,-2.5781,-2.5713,-2.5635,-2.5615,-2.5654,-2.5674,-2.5674,-2.5674,-2.5674,-2.5674,-2.5577,-1.2501,-1.2501,-1.2501,-1.2501,-1.2501,-1.2501,-1.2352,-1.2135,-1.2162,-1.1918,-1.1708,-1.164,-1.1619,-1.1619,-1.1613,-1.1558,-1.143,-1.1253,-1.1097,-1.0989,-1.0812,-1.0724,-1.0717,-1.0717,-1.0643,-1.0507,-1.0439,-1.0304,-1.0004,-0.9943,-0.9862,-0.9822,-0.9822,-0.9822,-1.0058,-1.1382,-1.2337,-1.3168,-1.5666,-1.7149,-1.7747,-1.8881,-1.9372,-1.943,-1.943,-1.943,-1.9403,-1.9078,-1.8784,-1.8517,-1.837,-1.825,-1.8223,-1.8317,-1.849,-1.8744,-1.8878,-1.9052,-1.935,-1.943,-1.943,-1.943,-1.943,-1.943,-1.943,-1.943,-1.943,-1.943,-1.943,-1.943,-1.943,-1.943,-1.9336,-1.9105,-1.9252,-1.9577,-2.0127,-2.1259,-2.2342,-2.2458,-2.3213,-2.3971,-2.4562,-2.4703,-2.462,-2.5206,-2.6064,-2.6532,-2.6305,-2.6968,-2.7109,-2.6356,-2.5888,-2.583,-2.5752,-2.5732,-2.5713,-2.5732,-2.5752,-2.5791,-2.5771,-2.5752,-2.5713,-2.5693,-2.5713,-2.5693,-2.5557,-2.5508,-2.5538,-2.5674,-2.5566,-2.5508,-2.5615,-2.5674,-2.5547,-1.2501,-1.2501,-1.2501,-1.2501,-1.2501,-1.2501,-1.2332,-1.2101,-1.2054,-1.1898,-1.1667,-1.1619,-1.1619,-1.1619,-1.1619,-1.1531,-1.1389,-1.1233,-1.1084,-1.0873,-1.0725,-1.0724,-1.0717,-1.0717,-1.067,-1.0588,-1.0521,-1.0365,-1.0168,-1.0024,-0.9903,-0.9849,-0.9822,-0.9822,-0.9822,-1.0604,-1.1555,-1.2509,-1.4708,-1.6256,-1.702,-1.8577,-1.9301,-1.943,-1.943,-1.943,-1.9403,-1.9199,-1.8971,-1.8718,-1.8571,-1.849,-1.8504,-1.8624,-1.8744,-1.8861,-1.9038,-1.9199,-1.9377,-1.943,-1.943,-1.943,-1.943,-1.943,-1.943,-1.943,-1.943,-1.943,-1.943,-1.943,-1.943,-1.943,-1.9279,-1.9199,-1.9265,-1.9319,-1.9212,-1.9946,-2.0627,-2.107,-2.1415,-2.2237,-2.3004,-2.2996,-2.3157,-2.3939,-2.5371,-2.518,-2.4792,-2.5942,-2.6473,-2.5488,-2.5352,-2.5499,-2.545,-2.543,-2.543,-2.5479,-2.5693,-2.5693,-2.5674,-2.5674,-2.5674,-2.5674,-2.5674,-2.5654,-2.5538,-2.5527,-2.5577,-2.5577,-2.543,-2.543,-2.5577,-2.5674,-2.5547,-1.2501,-1.2501,-1.2501,-1.2501,-1.2501,-1.2481,-1.2311,-1.2094,-1.2033,-1.1877,-1.166,-1.1619,-1.1619,-1.1619,-1.1613,-1.1525,-1.1355,-1.1219,-1.1063,-1.0914,-1.0785,-1.0717,-1.0717,-1.0717,-1.0711,-1.0683,-1.0575,-1.0432,-1.0276,-1.0134,-0.9923,-0.9863,-0.9822,-0.9822,-0.9822,-0.9943,-1.0596,-1.1796,-1.3407,-1.5074,-1.6433,-1.7994,-1.8952,-1.943,-1.943,-1.943,-1.943,-1.939,-1.9212,-1.8971,-1.8718,-1.8651,-1.8651,-1.8865,-1.8958,-1.9025,-1.9199,-1.9403,-1.943,-1.943,-1.943,-1.943,-1.943,-1.943,-1.943,-1.943,-1.943,-1.943,-1.943,-1.943,-1.943,-1.943,-1.9363,-1.9239,-1.9279,-1.9172,-1.8971,-1.8918,-1.9427,-2.0477,-1.9389,-2.032,-2.1399,-2.2009,-2.1481,-2.2107,-2.3461,-2.3611,-2.353,-2.428,-2.453,-2.4065,-2.4411,-2.5216,-2.5186,-2.5167,-2.5167,-2.5167,-2.5547,-2.5693,-2.5674,-2.5674,-2.5674,-2.5674,-2.5674,-2.5674,-2.5654,-2.5635,-2.5615,-2.5625,-2.5469,-2.5566,-2.5674,-2.5674,-2.5625,-1.2501,-1.2501,-1.2501,-1.2501,-1.2481,-1.2379,-1.223,-1.206,-1.1932,-1.1789,-1.1647,-1.1619,-1.1619,-1.1619,-1.1606,-1.147,-1.124,-1.1151,-1.1023,-1.0785,-1.0744,-1.0717,-1.0717,-1.0717,-1.0717,-1.0711,-1.069,-1.0527,-1.0324,-1.0222,-1.0086,-0.9849,-0.9822,-0.9822,-0.9822,-0.9822,-0.9883,-1.0604,-1.1976,-1.3706,-1.5311,-1.6973,-1.8344,-1.9243,-1.943,-1.943,-1.943,-1.943,-1.939,-1.9265,-1.9199,-1.9105,-1.9189,-1.9256,-1.9239,-1.9252,-1.9363,-1.943,-1.943,-1.943,-1.943,-1.943,-1.943,-1.943,-1.943,-1.943,-1.943,-1.943,-1.943,-1.943,-1.943,-1.943,-1.9279,-1.9145,-1.9052,-1.8931,-1.8744,-1.8985,-1.9118,-1.8877,-1.9067,-1.9296,-1.9653,-2.0104,-2.0103,-2.053,-2.1136,-2.1742,-2.2231,-2.2759,-2.279,-2.2605,-2.3294,-2.3998,-2.3782,-2.385,-2.4048,-2.4362,-2.4873,-2.5284,-2.5333,-2.5674,-2.5674,-2.5674,-2.5674,-2.5674,-2.5674,-2.5527,-2.541,-2.5469,-2.5527,-2.5538,-2.5596,-2.5635,-2.5674,-1.2501,-1.2501,-1.2501,-1.2501,-1.2474,-1.2352,-1.2203,-1.2047,-1.1898,-1.1748,-1.164,-1.1619,-1.1619,-1.1619,-1.1606,-1.1457,-1.1179,-1.1009,-1.0873,-1.0744,-1.0717,-1.0717,-1.0717,-1.0717,-1.0717,-1.0717,-1.0717,-1.0555,-1.0351,-1.032,-1.0114,-0.9842,-0.9822,-0.9822,-0.9822,-0.9822,-0.9822,-1.0361,-1.2157,-1.3825,-1.4718,-1.6973,-1.8344,-1.9243,-1.943,-1.943,-1.943,-1.943,-1.943,-1.943,-1.943,-1.943,-1.943,-1.943,-1.943,-1.943,-1.943,-1.943,-1.943,-1.943,-1.943,-1.943,-1.943,-1.943,-1.943,-1.943,-1.943,-1.943,-1.943,-1.943,-1.943,-1.943,-1.9252,-1.9158,-1.8998,-1.8851,-1.8758,-1.8865,-1.8758,-1.8277,-1.8479,-1.8571,-1.872,-1.9001,-1.9246,-1.9901,-2.0739,-2.1279,-2.0664,-2.1139,-2.141,-2.1601,-2.2249,-2.2567,-2.2265,-2.2316,-2.2717,-2.3185,-2.38,-2.4196,-2.4461,-2.5069,-2.5674,-2.5674,-2.5674,-2.5674,-2.5635,-2.5449,-2.5352,-2.5527,-2.5577,-2.5538,-2.5557,-2.5615,-2.5654,-1.1714,-1.203,-1.203,-1.2185,-1.2474,-1.2325,-1.2176,-1.2047,-1.187,-1.1721,-1.1633,-1.1619,-1.1619,-1.1619,-1.1619,-1.1443,-1.1158,-1.088,-1.0731,-1.0724,-1.0717,-1.0717,-1.0717,-1.0717,-1.0717,-1.0717,-1.0717,-1.0555,-1.0351,-1.032,-1.0114,-0.9869,-0.9822,-0.9822,-0.9822,-0.9822,-1.0058,-1.0717,-1.2569,-1.4421,-1.5252,-1.7513,-1.8706,-1.9359,-1.943,-1.943,-1.943,-1.943,-1.943,-1.943,-1.943,-1.943,-1.943,-1.943,-1.943,-1.943,-1.943,-1.943,-1.943,-1.943,-1.943,-1.943,-1.943,-1.943,-1.943,-1.943,-1.943,-1.943,-1.943,-1.943,-1.943,-1.943,-1.943,-1.9292,-1.9092,-1.8945,-1.8878,-1.8664,-1.841,-1.8263,-1.841,-1.8584,-1.8624,-1.8771,-1.8971,-1.932,-2.0145,-2.0542,-1.9935,-1.951,-1.9821,-2.0214,-2.0775,-2.1253,-2.1049,-2.0931,-2.1304,-2.1811,-2.2517,-2.3135,-2.3534,-2.4245,-2.4903,-2.5577,-2.5674,-2.5674,-2.5596,-2.5469,-2.5469,-2.5596,-2.5538,-2.543,-2.5488,-2.5577,-2.5577,-0.8361,-0.992,-0.992,-1.0856,-1.2306,-1.2216,-1.2094,-1.202,-1.1775,-1.1647,-1.1619,-1.1619,-1.1619,-1.1619,-1.1619,-1.1443,-1.1151,-1.0867,-1.0717,-1.0717,-1.0717,-1.0717,-1.0717,-1.0717,-1.0717,-1.0717,-1.0711,-1.0561,-1.0344,-1.0326,-1.0107,-0.9883,-0.9822,-0.9822,-0.9822,-0.9883,-1.0361,-1.1201,-1.2569,-1.4054,-1.5902,-1.7267,-1.8402,-1.9243,-1.943,-1.943,-1.943,-1.943,-1.943,-1.943,-1.943,-1.943,-1.943,-1.943,-1.943,-1.943,-1.943,-1.943,-1.943,-1.943,-1.943,-1.943,-1.943,-1.943,-1.943,-1.943,-1.943,-1.943,-1.943,-1.943,-1.943,-1.943,-1.943,-1.9292,-1.9132,-1.8945,-1.8891,-1.8718,-1.8544,-1.8504,-1.8637,-1.8651,-1.8584,-1.8597,-1.8798,-1.8851,-1.9138,-1.9416,-1.8988,-1.8508,-1.831,-1.8684,-1.9176,-1.9576,-1.9886,-1.9834,-1.9973,-2.0333,-2.0998,-2.1946,-2.2517,-2.3335,-2.4029,-2.5052,-2.5577,-2.5615,-2.5566,-2.5449,-2.541,-2.5469,-2.5352,-2.5234,-2.5371,-2.5488,-2.5371,-0.8517,-0.9454,-1.0546,-1.156,-1.237,-1.2189,-1.206,-1.202,-1.1755,-1.1619,-1.1619,-1.1619,-1.1619,-1.1619,-1.1619,-1.145,-1.1151,-1.086,-1.0731,-1.0717,-1.0717,-1.0717,-1.0717,-1.0717,-1.0717,-1.0717,-1.0704,-1.0568,-1.031,-1.0347,-1.0107,-0.989,-0.9822,-0.9822,-0.9822,-0.9822,-1.024,-1.1201,-1.2569,-1.4063,-1.5902,-1.7149,-1.8706,-1.9127,-1.943,-1.943,-1.943,-1.943,-1.943,-1.943,-1.943,-1.943,-1.943,-1.943,-1.943,-1.943,-1.943,-1.943,-1.943,-1.943,-1.943,-1.943,-1.943,-1.943,-1.943,-1.943,-1.943,-1.943,-1.943,-1.943,-1.943,-1.943,-1.943,-1.9319,-1.9118,-1.9038,-1.9038,-1.8851,-1.8798,-1.8744,-1.8531,-1.8355,-1.8315,-1.8382,-1.8611,-1.8597,-1.8477,-1.833,-1.8196,-1.7916,-1.7582,-1.7898,-1.8408,-1.8551,-1.8864,-1.8916,-1.8916,-1.9176,-1.9627,-2.059,-2.1593,-2.2448,-2.3712,-2.5025,-2.5343,-2.5266,-2.5527,-2.543,-2.5352,-2.5293,-2.5352,-2.5371,-2.5352,-2.5332,-2.5215,-0.8983,-0.9532,-1.1172,-1.2095,-1.242,-1.2182,-1.204,-1.1965,-1.1735,-1.1619,-1.1619,-1.1619,-1.1619,-1.1599,-1.1525,-1.1375,-1.1131,-1.0853,-1.0731,-1.0717,-1.0717,-1.0717,-1.0717,-1.0717,-1.0717,-1.0717,-1.0717,-1.0568,-1.0331,-1.034,-1.01,-0.9903,-0.9822,-0.9822,-0.9822,-0.9822,-0.9876,-1.102,-1.2517,-1.4183,-1.5666,-1.7747,-1.943,-1.943,-1.943,-1.943,-1.943,-1.943,-1.943,-1.943,-1.943,-1.943,-1.943,-1.943,-1.943,-1.943,-1.943,-1.943,-1.943,-1.943,-1.943,-1.943,-1.943,-1.943,-1.943,-1.943,-1.943,-1.943,-1.943,-1.943,-1.943,-1.943,-1.943,-1.939,-1.9199,-1.9078,-1.9172,-1.9092,-1.8918,-1.8731,-1.8315,-1.8262,-1.8342,-1.8142,-1.8302,-1.8342,-1.8222,-1.813,-1.7983,-1.7809,-1.7582,-1.7582,-1.7793,-1.7793,-1.7898,-1.8003,-1.8042,-1.8199,-1.8708,-1.9472,-2.0562,-2.1578,-2.2965,-2.4245,-2.4402,-2.4401,-2.4862,-2.5273,-2.5039,-2.5019,-2.5304,-2.543,-2.5273,-2.5176,-2.5098,-0.7738,-0.9376,-0.9687,-1.072,-1.2152,-1.2135,-1.1979,-1.185,-1.1687,-1.1619,-1.1619,-1.1619,-1.1619,-1.1565,-1.1335,-1.1212,-1.1084,-1.0873,-1.0724,-1.0717,-1.0717,-1.0717,-1.0717,-1.0717,-1.0717,-1.0717,-1.0717,-1.0548,-1.0344,-1.034,-1.012,-0.9883,-0.9822,-0.9822,-0.9822,-0.9822,-1.0536,-1.1615,-1.2277,-1.3825,-1.6256,-1.8169,-1.8939,-1.9243,-1.9243,-1.9301,-1.9359,-1.943,-1.943,-1.943,-1.943,-1.943,-1.943,-1.943,-1.943,-1.943,-1.943,-1.943,-1.943,-1.943,-1.943,-1.943,-1.943,-1.943,-1.943,-1.943,-1.943,-1.943,-1.943,-1.943,-1.943,-1.943,-1.943,-1.9417,-1.9363,-1.9279,-1.9377,-1.9239,-1.9065,-1.8798,-1.8477,-1.8544,-1.8651,-1.8275,-1.8022,-1.8035,-1.8022,-1.7943,-1.7822,-1.7689,-1.7582,-1.7582,-1.7582,-1.7582,-1.7582,-1.7582,-1.7582,-1.7582,-1.8003,-1.8603,-1.9795,-2.099,-2.1862,-2.2871,-2.3214,-2.3945,-2.4649,-2.4883,-2.4629,-2.4766,-2.5117,-2.5156,-2.5078,-2.5019,-2.4941,-0.68,-0.7738,-0.8905,-1.0477,-1.2201,-1.2128,-1.1972,-1.1823,-1.1681,-1.1619,-1.1619,-1.1619,-1.1619,-1.1552,-1.1301,-1.1234,-1.1097,-1.0853,-1.0724,-1.0717,-1.0717,-1.0717,-1.0717,-1.0717,-1.0717,-1.0717,-1.069,-1.0555,-1.0371,-1.0249,-1.012,-0.9863,-0.9822,-0.9822,-0.9822,-0.9822,-1.0179,-1.0838,-1.1796,-1.3347,-1.5192,-1.6385,-1.7149,-1.7981,-1.804,-1.8532,-1.9185,-1.943,-1.943,-1.943,-1.943,-1.943,-1.943,-1.943,-1.943,-1.943,-1.943,-1.943,-1.943,-1.943,-1.943,-1.943,-1.943,-1.943,-1.943,-1.943,-1.943,-1.943,-1.943,-1.943,-1.943,-1.943,-1.943,-1.943,-1.943,-1.943,-1.9403,-1.9292,-1.9145,-1.8865,-1.8611,-1.8624,-1.8544,-1.8156,-1.7916,-1.7929,-1.7956,-1.7849,-1.7782,-1.7716,-1.7635,-1.7582,-1.7582,-1.7582,-1.7582,-1.7582,-1.7582,-1.7582,-1.7582,-1.8342,-1.9361,-2.0444,-2.1174,-2.242,-2.3459,-2.4117,-2.4567,-2.4609,-2.4473,-2.4668,-2.4922,-2.5039,-2.5137,-2.4785,-2.4727,-0.4997,-0.5764,-0.8243,-1.0196,-1.1454,-1.1843,-1.1911,-1.1769,-1.1667,-1.1619,-1.1619,-1.1613,-1.1599,-1.1511,-1.1294,-1.1138,-1.1084,-1.0839,-1.0744,-1.0717,-1.0717,-1.0717,-1.0717,-1.0717,-1.0717,-1.0717,-1.0717,-1.0555,-1.0365,-1.0249,-1.012,-0.9836,-0.9822,-0.9822,-0.9822,-0.9822,-0.9937,-1.0058,-1.1495,-1.2808,-1.3885,-1.455,-1.537,-1.6197,-1.6903,-1.756,-1.8648,-1.9301,-1.943,-1.943,-1.943,-1.943,-1.943,-1.943,-1.943,-1.943,-1.943,-1.943,-1.943,-1.943,-1.943,-1.943,-1.943,-1.943,-1.943,-1.943,-1.943,-1.943,-1.943,-1.943,-1.943,-1.943,-1.943,-1.943,-1.943,-1.943,-1.9417,-1.9319,-1.9199,-1.8918,-1.8664,-1.8437,-1.8263,-1.7876,-1.7756,-1.7849,-1.7822,-1.7742,-1.7716,-1.7689,-1.7649,-1.7582,-1.7582,-1.7582,-1.7582,-1.7582,-1.7582,-1.7582,-1.7582,-1.8146,-1.9221,-1.9764,-2.0315,-2.1675,-2.3206,-2.355,-2.3643,-2.403,-2.4414,-2.4687,-2.4961,-2.5215,-2.5195,-2.4844,-2.4727,-0.1558,-0.3619,-0.7527,-0.9147,-0.9425,-1.1087,-1.1696,-1.1653,-1.1633,-1.1619,-1.1619,-1.1613,-1.1545,-1.1402,-1.1253,-1.1097,-1.0894,-1.0799,-1.0738,-1.0717,-1.0717,-1.0717,-1.0717,-1.0717,-1.0717,-1.0717,-1.069,-1.0527,-1.0337,-1.0243,-1.008,-0.9863,-0.9822,-0.9822,-0.9822,-0.9822,-0.9822,-1.0058,-1.1201,-1.1856,-1.2689,-1.3407,-1.4361,-1.4896,-1.6079,-1.7079,-1.7267,-1.846,-1.9301,-1.9301,-1.943,-1.943,-1.943,-1.943,-1.943,-1.943,-1.943,-1.943,-1.943,-1.943,-1.943,-1.943,-1.943,-1.943,-1.943,-1.943,-1.943,-1.943,-1.943,-1.943,-1.943,-1.943,-1.943,-1.943,-1.943,-1.943,-1.943,-1.9417,-1.9225,-1.8971,-1.8718,-1.8477,-1.8196,-1.7862,-1.7649,-1.7729,-1.7729,-1.7649,-1.7635,-1.7622,-1.7622,-1.7582,-1.7582,-1.7582,-1.7582,-1.7582,-1.7582,-1.7582,-1.7582,-1.8251,-1.9109,-1.9486,-1.9821,-2.0673,-2.2038,-2.2394,-2.2835,-2.3333,-2.3918,-2.4598,-2.5,-2.5176,-2.5332,-2.5176,-2.5195,-0.046,-0.1447,-0.4221,-0.6735,-0.8938,-0.9707,-1.065,-1.1489,-1.1619,-1.1619,-1.1619,-1.1613,-1.1538,-1.1382,-1.1233,-1.1084,-1.0873,-1.0792,-1.0738,-1.0717,-1.0717,-1.0717,-1.0717,-1.0717,-1.0717,-1.0697,-1.0629,-1.0493,-1.0297,-1.0202,-1.0032,-0.9876,-0.9822,-0.9822,-0.9822,-0.9822,-0.9822,-0.9883,-1.0361,-1.0717,-1.0838,-1.1201,-1.2097,-1.3228,-1.3467,-1.5241,-1.6668,-1.7501,-1.8402,-1.9068,-1.9243,-1.9301,-1.9301,-1.9301,-1.943,-1.943,-1.943,-1.943,-1.943,-1.943,-1.943,-1.943,-1.943,-1.943,-1.943,-1.943,-1.943,-1.943,-1.943,-1.943,-1.943,-1.943,-1.943,-1.943,-1.943,-1.943,-1.943,-1.943,-1.9336,-1.9038,-1.8758,-1.8477,-1.8196,-1.7903,-1.7729,-1.7609,-1.7595,-1.7582,-1.7582,-1.7582,-1.7582,-1.7582,-1.7582,-1.7582,-1.7582,-1.7582,-1.7582,-1.7582,-1.7582,-1.8094,-1.8708,-1.9369,-1.9825,-2.0476,-2.0921,-2.1429,-2.2016,-2.2739,-2.3502,-2.4288,-2.4791,-2.5039,-2.5195,-2.541,-2.5488,0.0,0.0,-0.149,-0.3999,-0.7023,-0.7732,-0.9003,-1.0534,-1.0671,-1.1181,-1.1541,-1.1579,-1.1463,-1.1314,-1.1165,-1.1009,-1.0873,-1.0772,-1.0731,-1.0717,-1.0717,-1.0717,-1.0717,-1.0717,-1.0717,-1.0683,-1.0568,-1.0419,-1.0276,-1.012,-0.9971,-0.9869,-0.9822,-0.9822,-0.9822,-0.9822,-0.9822,-0.9822,-0.9822,-0.9822,-0.9876,-0.9997,-1.024,-1.1555,-1.2097,-1.3228,-1.4945,-1.5843,-1.668,-1.7513,-1.811,-1.859,-1.8823,-1.9068,-1.9359,-1.943,-1.943,-1.943,-1.943,-1.943,-1.943,-1.943,-1.943,-1.943,-1.943,-1.943,-1.943,-1.943,-1.943,-1.943,-1.943,-1.943,-1.943,-1.943,-1.943,-1.943,-1.943,-1.9417,-1.9323,-1.9118,-1.8798,-1.845,-1.8143,-1.7876,-1.7716,-1.7595,-1.7582,-1.7582,-1.7582,-1.7582,-1.7582,-1.7582,-1.7582,-1.7582,-1.7582,-1.7582,-1.7582,-1.7582,-1.7582,-1.7582,-1.8146,-1.8812,-1.9057,-1.9132,-1.9611,-2.0471,-2.108,-2.159,-2.2792,-2.4097,-2.4593,-2.5111,-2.5371,-2.5566,-2.5527,0.0,0.0,0.0,-0.1335,-0.3399,-0.5113,-0.697,-0.8703,-0.8997,-1.0011,-1.1456,-1.1484,-1.1335,-1.1185,-1.105,-1.0907,-1.0785,-1.0731,-1.0717,-1.0717,-1.0717,-1.0717,-1.0717,-1.0717,-1.0717,-1.0683,-1.0541,-1.0385,-1.0276,-1.0086,-0.9944,-0.9863,-0.9822,-0.9822,-0.9822,-0.9822,-0.9822,-0.9822,-0.9822,-0.9822,-0.9822,-0.9822,-0.9997,-1.0422,-1.1193,-1.2269,-1.3228,-1.4183,-1.4955,-1.5607,-1.6915,-1.7384,-1.7501,-1.8765,-1.9301,-1.943,-1.943,-1.943,-1.943,-1.943,-1.943,-1.943,-1.943,-1.943,-1.943,-1.943,-1.943,-1.943,-1.943,-1.943,-1.943,-1.943,-1.943,-1.943,-1.943,-1.943,-1.943,-1.9417,-1.9336,-1.9199,-1.8798,-1.8397,-1.809,-1.7836,-1.7689,-1.7595,-1.7595,-1.7582,-1.7582,-1.7582,-1.7582,-1.7582,-1.7582,-1.7582,-1.7582,-1.7582,-1.7582,-1.7582,-1.7582,-1.7582,-1.7582,-1.8003,-1.8094,-1.7923,-1.8414,-1.9294,-1.9913,-2.0392,-2.1727,-2.3059,-2.4598,-2.5266,-2.5538,-2.5635,-2.5577,0.0,0.0,0.0,-0.0367,-0.1246,-0.3059,-0.5011,-0.6821,-0.8198,-0.979,-1.1292,-1.1457,-1.1307,-1.1158,-1.1002,-1.0793,-1.0744,-1.0717,-1.0717,-1.0717,-1.0717,-1.0717,-1.0717,-1.0717,-1.0717,-1.0649,-1.05,-1.0344,-1.0276,-1.0046,-0.9842,-0.9768,-0.9822,-0.9822,-0.9822,-0.9822,-0.9822,-0.9822,-0.9822,-0.9822,-0.9822,-0.9822,-0.9822,-0.9822,-1.0475,-1.114,-1.1916,-1.2808,-1.3287,-1.4302,-1.5784,-1.6727,-1.7149,-1.8402,-1.9359,-1.943,-1.943,-1.943,-1.943,-1.943,-1.943,-1.943,-1.943,-1.943,-1.943,-1.943,-1.943,-1.943,-1.943,-1.943,-1.943,-1.943,-1.943,-1.943,-1.943,-1.943,-1.943,-1.943,-1.9377,-1.9239,-1.8971,-1.8504,-1.813,-1.7876,-1.7702,-1.7609,-1.7582,-1.7582,-1.7582,-1.7582,-1.7582,-1.7582,-1.7582,-1.7582,-1.7582,-1.7582,-1.7582,-1.7582,-1.7582,-1.7582,-1.7582,-1.7582,-1.7635,-1.7779,-1.7934,-1.8126,-1.8735,-1.9478,-2.0601,-2.1963,-2.3199,-2.4658,-2.5265,-2.5509,-2.5654,0.0,0.0,0.0,0.0,0.0,-0.1384,-0.2981,-0.5081,-0.7437,-0.9369,-1.0411,-1.0901,-1.1179,-1.1063,-1.0934,-1.0772,-1.0724,-1.0717,-1.0717,-1.0717,-1.0717,-1.0717,-1.0717,-1.0711,-1.0677,-1.0595,-1.0426,-1.0263,-1.0181,-0.9944,-0.9842,-0.9822,-0.9822,-0.9822,-0.9822,-0.9822,-0.9822,-0.9822,-0.9822,-0.9822,-0.9822,-0.9822,-0.9822,-0.9822,-0.9997,-1.0301,-1.108,-1.1555,-1.1856,-1.3287,-1.4767,-1.6079,-1.6738,-1.804,-1.9185,-1.943,-1.943,-1.943,-1.943,-1.943,-1.943,-1.943,-1.943,-1.943,-1.943,-1.943,-1.943,-1.943,-1.943,-1.943,-1.943,-1.943,-1.943,-1.943,-1.943,-1.943,-1.943,-1.943,-1.935,-1.9212,-1.9092,-1.8637,-1.8155,-1.7943,-1.7729,-1.7649,-1.7582,-1.7595,-1.7595,-1.7582,-1.7582,-1.7582,-1.7582,-1.7582,-1.7582,-1.7582,-1.7582,-1.7582,-1.7582,-1.7582,-1.7582,-1.7582,-1.7582,-1.7582,-1.7752,-1.7843,-1.7871,-1.8537,-1.9531,-2.044,-2.1389,-2.2935,-2.4627,-2.5167,-2.5284,0.0,0.0,0.0,0.0,0.0,0.0,-0.1235,-0.3264,-0.6797,-0.8394,-0.8656,-1.0329,-1.0921,-1.0867,-1.0732,-1.0731,-1.0724,-1.0717,-1.0717,-1.0717,-1.0717,-1.0717,-1.0711,-1.069,-1.0622,-1.0493,-1.0331,-1.0168,-0.999,-0.9903,-0.9822,-0.9822,-0.9822,-0.9822,-0.9822,-0.9822,-0.9822,-0.9822,-0.9822,-0.9822,-0.9822,-0.9822,-0.9822,-0.9822,-0.9883,-0.9943,-1.024,-1.024,-1.0179,-1.1253,-1.2988,-1.4123,-1.5677,-1.7689,-1.8823,-1.943,-1.943,-1.943,-1.943,-1.943,-1.943,-1.943,-1.943,-1.943,-1.943,-1.943,-1.943,-1.943,-1.943,-1.943,-1.943,-1.943,-1.943,-1.943,-1.943,-1.943,-1.943,-1.9377,-1.9225,-1.9145,-1.9078,-1.8758,-1.837,-1.8076,-1.7969,-1.7782,-1.7716,-1.7635,-1.7635,-1.7582,-1.7582,-1.7582,-1.7582,-1.7582,-1.7582,-1.7582,-1.7582,-1.7582,-1.7582,-1.7582,-1.7582,-1.7582,-1.7582,-1.7582,-1.7582,-1.7635,-1.774,-1.7898,-1.829,-1.9161,-2.0092,-2.1456,-2.3285,-2.4214,-2.4609,0.0,0.0,0.0,0.0,0.0,0.0,-0.1139,-0.3149,-0.5486,-0.7085,-0.8622,-1.0203,-1.0731,-1.0867,-1.0792,-1.0731,-1.0717,-1.0717,-1.0717,-1.0717,-1.0717,-1.0717,-1.0683,-1.0616,-1.0541,-1.0412,-1.0256,-1.01,-0.9963,-0.989,-0.9822,-0.9822,-0.9822,-0.9822,-0.9822,-0.9822,-0.9822,-0.9822,-0.9822,-0.9822,-0.9822,-0.9822,-0.9822,-0.9822,-0.9822,-0.9822,-0.9822,-0.9822,-0.9822,-1.0361,-1.2928,-1.449,-1.4847,-1.7513,-1.943,-1.943,-1.943,-1.943,-1.943,-1.943,-1.943,-1.943,-1.943,-1.943,-1.943,-1.943,-1.943,-1.943,-1.943,-1.943,-1.943,-1.943,-1.943,-1.943,-1.943,-1.943,-1.943,-1.9403,-1.931,-1.9225,-1.9145,-1.8958,-1.8571,-1.8464,-1.8343,-1.8063,-1.7876,-1.7796,-1.7675,-1.7622,-1.7582,-1.7582,-1.7582,-1.7582,-1.7582,-1.7582,-1.7582,-1.7582,-1.7582,-1.7582,-1.7582,-1.7582,-1.7582,-1.7582,-1.7582,-1.7582,-1.7635,-1.7793,-1.795,-1.8251,-1.9057,-2.0436,-2.176,-2.2735,-2.3601,0.0,0.0,0.0,0.0,0.0,0.0,-0.0702,-0.1967,-0.3647,-0.551,-0.7332,-0.8934,-1.0107,-1.0772,-1.0758,-1.0717,-1.0717,-1.0717,-1.0717,-1.0717,-1.0711,-1.0663,-1.0609,-1.0521,-1.0419,-1.0297,-1.0098,-0.9963,-0.9896,-0.989,-0.9822,-0.9822,-0.9822,-0.9822,-0.9822,-0.9822,-0.9822,-0.9822,-0.9822,-0.9822,-0.9822,-0.9822,-0.9822,-0.9822,-0.9822,-0.9822,-0.9822,-0.9822,-0.9822,-0.9997,-1.2517,-1.3944,-1.4777,-1.7513,-1.9359,-1.943,-1.943,-1.943,-1.943,-1.943,-1.943,-1.943,-1.943,-1.943,-1.943,-1.943,-1.943,-1.943,-1.943,-1.943,-1.943,-1.943,-1.943,-1.943,-1.943,-1.943,-1.943,-1.943,-1.9403,-1.939,-1.9239,-1.9078,-1.8931,-1.8851,-1.8691,-1.8384,-1.817,-1.8063,-1.7876,-1.7675,-1.7622,-1.7582,-1.7582,-1.7582,-1.7582,-1.7582,-1.7582,-1.7582,-1.7582,-1.7582,-1.7582,-1.7582,-1.7582,-1.7582,-1.7582,-1.7582,-1.7582,-1.7582,-1.774,-1.7989,-1.8146,-1.8968,-2.0179,-2.1389,-2.2165,0.0,0.0,0.0,0.0,0.0,0.0,0.0,0.0,-0.1851,-0.3488,-0.5315,-0.721,-0.8984,-1.0006,-1.0452,-1.0717,-1.0717,-1.0717,-1.069,-1.0697,-1.067,-1.0609,-1.05,-1.0439,-1.029,-1.0127,-0.995,-0.9883,-0.9863,-0.9822,-0.9822,-0.9822,-0.9822,-0.9822,-0.9822,-0.9822,-0.9822,-0.9822,-0.9822,-0.9822,-0.9822,-0.9822,-0.9822,-0.9822,-0.9822,-0.9822,-0.9822,-0.9822,-0.9822,-1.0301,-1.1382,-1.2988,-1.5074,-1.7149,-1.859,-1.9243,-1.9185,-1.943,-1.943,-1.943,-1.943,-1.943,-1.943,-1.943,-1.943,-1.943,-1.943,-1.943,-1.943,-1.943,-1.943,-1.943,-1.943,-1.943,-1.943,-1.943,-1.943,-1.943,-1.9417,-1.9403,-1.9279,-1.9132,-1.9105,-1.9011,-1.8891,-1.8624,-1.849,-1.8384,-1.8143,-1.7862,-1.7716,-1.7649,-1.7582,-1.7582,-1.7582,-1.7582,-1.7582,-1.7582,-1.7582,-1.7582,-1.7582,-1.7582,-1.7582,-1.7582,-1.7582,-1.7582,-1.7582,-1.7582,-1.7582,-1.7687,-1.7793,-1.7687,-1.8603,-1.9922,-2.0676,0.0,0.0,0.0,0.0,0.0,0.0,0.0,0.0,-0.0406,-0.1689,-0.3705,-0.6372,-0.8235,-0.8834,-1.0047,-1.0512,-1.0704,-1.0683,-1.0643,-1.0582,-1.0548,-1.0466,-1.0331,-1.0243,-1.0127,-1.0046,-0.9951,-0.9869,-0.9836,-0.9822,-0.9822,-0.9822,-0.9822,-0.9822,-0.9822,-0.9822,-0.9822,-0.9822,-0.9822,-0.9822,-0.9822,-0.9822,-0.9822,-0.9822,-0.9822,-0.9822,-0.9822,-0.9822,-0.9822,-1.0058,-1.1382,-1.2928,-1.4599,-1.6562,-1.7455,-1.7747,-1.8473,-1.8765,-1.8894,-1.8823,-1.8823,-1.9127,-1.9185,-1.9359,-1.943,-1.943,-1.943,-1.943,-1.943,-1.943,-1.943,-1.943,-1.943,-1.943,-1.943,-1.943,-1.943,-1.943,-1.943,-1.939,-1.9279,-1.9252,-1.9212,-1.9145,-1.9038,-1.8931,-1.8851,-1.8718,-1.8437,-1.817,-1.7929,-1.7809,-1.7622,-1.7582,-1.7582,-1.7582,-1.7582,-1.7582,-1.7582,-1.7582,-1.7582,-1.7582,-1.7582,-1.7582,-1.7582,-1.7582,-1.7582,-1.7582,-1.7582,-1.7582,-1.7582,-1.7582,-1.7582,-1.8655,-1.9213,0.0,0.0,0.0,0.0,0.0,0.0,0.0,0.0,0.0,-0.0538,-0.1747,-0.4356,-0.6427,-0.7698,-0.9105,-1.0188,-1.0432,-1.0616,-1.0521,-1.0432,-1.0378,-1.0297,-1.0188,-1.0017,-1.0012,-0.9944,-0.9876,-0.9822,-0.9822,-0.9822,-0.9822,-0.9822,-0.9822,-0.9822,-0.9822,-0.9822,-0.9822,-0.9822,-0.9822,-0.9822,-0.9822,-0.9822,-0.9822,-0.9822,-0.9822,-0.9822,-0.9822,-0.9822,-0.9822,-1.024,-1.1374,-1.2277,-1.3586,-1.5015,-1.5784,-1.6079,-1.6621,-1.7279,-1.7337,-1.7455,-1.7513,-1.7572,-1.8227,-1.804,-1.8402,-1.846,-1.9359,-1.943,-1.943,-1.943,-1.943,-1.943,-1.943,-1.943,-1.943,-1.943,-1.943,-1.943,-1.943,-1.9417,-1.939,-1.9377,-1.9305,-1.9292,-1.9256,-1.9256,-1.9132,-1.8998,-1.8731,-1.8435,-1.825,-1.8009,-1.7849,-1.7649,-1.7582,-1.7582,-1.7582,-1.7582,-1.7582,-1.7582,-1.7582,-1.7582,-1.7582,-1.7582,-1.7582,-1.7582,-1.7582,-1.7582,-1.7582,-1.7582,-1.7582,-1.7582,-1.7582,-1.7582,-1.8199,0.0,0.0,0.0,0.0,0.0,0.0,0.0,0.0,0.0,0.0,0.0,-0.1809,-0.4411,-0.6677,-0.8005,-0.9187,-1.0045,-1.0408,-1.0378,-1.0283,-1.0249,-1.0148,-1.0066,-0.9936,-0.993,-0.9876,-0.9829,-0.9822,-0.9822,-0.9822,-0.9822,-0.9822,-0.9822,-0.9822,-0.9822,-0.9822,-0.9822,-0.9822,-0.9822,-0.9822,-0.9822,-0.9822,-0.9822,-0.9822,-0.9822,-0.9822,-0.9822,-0.9822,-0.9822,-1.0179,-1.0899,-1.1434,-1.2269,-1.3347,-1.4004,-1.448,-1.4955,-1.5192,-1.5074,-1.5252,-1.5074,-1.5192,-1.6138,-1.6727,-1.7032,-1.7572,-1.8473,-1.8765,-1.8765,-1.9301,-1.9243,-1.9359,-1.9359,-1.943,-1.943,-1.943,-1.943,-1.943,-1.943,-1.943,-1.943,-1.943,-1.943,-1.943,-1.943,-1.943,-1.9363,-1.9185,-1.9025,-1.8824,-1.8597,-1.8357,-1.8156,-1.7956,-1.7729,-1.7675,-1.7702,-1.7582,-1.7582,-1.7582,-1.7582,-1.7582,-1.7582,-1.7582,-1.7582,-1.7582,-1.7582,-1.7582,-1.7582,-1.7582,-1.7582,-1.7582,-1.7582,-1.7582,-1.7582,0.0,0.0,0.0,0.0,0.0,0.0,0.0,0.0,0.0,0.0,0.0,0.0,-0.2441,-0.573,-0.7309,-0.8691,-1.0139,-1.0317,-1.0222,-1.0114,-1.0093,-0.9992,-0.9924,-0.9849,-0.9856,-0.9829,-0.9822,-0.9822,-0.9822,-0.9822,-0.9822,-0.9822,-0.9822,-0.9822,-0.9822,-0.9822,-0.9822,-0.9822,-0.9822,-0.9822,-0.9822,-0.9822,-0.9822,-0.9822,-0.9822,-0.9822,-0.9822,-0.9822,-0.9822,-0.9937,-1.0119,-1.0422,-1.0959,-1.1796,-1.2457,-1.2877,-1.3347,-1.3825,-1.3825,-1.3825,-1.3706,-1.3885,-1.4718,-1.5074,-1.5311,-1.5488,-1.6149,-1.6503,-1.6985,-1.8532,-1.8823,-1.901,-1.9127,-1.9301,-1.943,-1.943,-1.943,-1.943,-1.943,-1.943,-1.943,-1.943,-1.943,-1.943,-1.943,-1.943,-1.943,-1.9252,-1.9225,-1.9078,-1.8918,-1.8731,-1.8504,-1.825,-1.7969,-1.7862,-1.7822,-1.7716,-1.7582,-1.7582,-1.7582,-1.7582,-1.7582,-1.7582,-1.7582,-1.7582,-1.7582,-1.7582,-1.7582,-1.7582,-1.7582,-1.7582,-1.7582,-1.7582,-1.7582]}]]